[[{"header":{"parameterUnit":"m.s-1","parameterCategory":1,"la1":30.6,"la2":29.2853,"lo1":-89.7004,"lo2":-87.6739,"dy":0.0162,"dx":0.0183,"nx":112,"ny":82,"refTime":"2023-11-11T06:00:00:Z","depth":0,"parameterNumber":2,"parameterNumberName":"U-component_of_WINDS"},"data":[0.0,0.0,0.0,0.0,0.0,0.0,0.0,0.0,0.0,0.0,0.0,0.0,0.0,0.0,0.0,0.0,0.0,0.0,0.0,0.0,0.0,0.0,0.0,0.0,0.0,0.0,0.0,0.0,0.0,0.0,0.0,0.0,0.0,0.0,0.0,0.0,0.0,0.0,0.0,0.0,0.0,0.0,0.0,0.0,0.0,0.0,0.0,0.0,0.0,0.0,0.0,0.0,0.0,0.0,0.0,0.0,0.0,0.0,0.0,0.0,0.0,0.0,0.0,0.0,0.0,0.0,0.0,0.0,0.0,0.0,0.0,0.0,0.0,0.0,0.0,0.0,0.0,0.0,0.0,0.0,0.0,0.0,0.0,0.0,0.0,0.0,0.0,0.0,0.0,0.0,3.3053,3.4223,3.425,3.3788,3.2868,3.1764,3.0508,2.9082,0.0,0.0,0.0,0.0,0.0,0.0,0.0,0.0,0.0,0.0,0.0,0.0,0.0,0.0,0.0,0.0,0.0,0.0,0.0,0.0,0.0,0.0,0.0,0.0,0.0,0.0,0.0,0.0,0.0,0.0,0.0,0.0,0.0,0.0,0.0,0.0,0.0,0.0,0.0,0.0,0.0,0.0,0.0,0.0,0.0,0.0,0.0,0.0,0.0,0.0,0.0,0.0,0.0,0.0,0.0,0.0,0.0,0.0,0.0,0.0,0.0,0.0,0.0,0.0,0.0,0.0,0.0,0.0,0.0,0.0,0.0,0.0,0.0,0.0,0.0,0.0,0.0,0.0,0.0,0.0,0.0,0.0,0.0,0.0,0.0,0.0,0.0,0.0,0.0,0.0,0.0,0.0,0.0,0.0,0.0,0.0,0.0,0.0,0.0,0.0,0.0,0.0,0.0,0.0,3.4877,3.5857,3.5038,3.4101,3.328,3.1705,3.038,2.947,0.0,0.0,0.0,0.0,0.0,0.0,0.0,0.0,0.0,0.0,0.0,0.0,0.0,0.0,0.0,0.0,0.0,0.0,0.0,0.0,0.0,0.0,0.0,0.0,0.0,0.0,0.0,0.0,0.0,0.0,0.0,0.0,0.0,0.0,0.0,0.0,0.0,0.0,0.0,0.0,0.0,0.0,0.0,0.0,0.0,0.0,0.0,0.0,0.0,0.0,0.0,0.0,0.0,0.0,0.0,0.0,0.0,0.0,0.0,0.0,0.0,0.0,0.0,0.0,0.0,0.0,0.0,0.0,0.0,0.0,0.0,0.0,0.0,0.0,0.0,0.0,0.0,0.0,0.0,0.0,0.0,0.0,0.0,0.0,0.0,0.0,0.0,0.0,0.0,0.0,0.0,0.0,0.0,0.0,0.0,0.0,0.0,0.0,0.0,0.0,0.0,0.0,0.0,3.4476,3.5085,3.5293,3.4739,3.4015,3.3199,3.1843,3.0656,2.9777,2.8498,0.0,0.0,0.0,0.0,0.0,0.0,0.0,0.0,0.0,0.0,0.0,0.0,0.0,0.0,0.0,0.0,0.0,0.0,0.0,0.0,0.0,0.0,0.0,0.0,0.0,0.0,0.0,0.0,0.0,0.0,0.0,0.0,0.0,0.0,0.0,0.0,0.0,0.0,0.0,0.0,0.0,0.0,0.0,0.0,0.0,0.0,0.0,0.0,0.0,0.0,0.0,0.0,0.0,0.0,0.0,0.0,0.0,0.0,0.0,0.0,0.0,0.0,0.0,0.0,0.0,0.0,0.0,0.0,0.0,0.0,0.0,0.0,0.0,0.0,0.0,0.0,0.0,0.0,0.0,0.0,0.0,0.0,0.0,0.0,0.0,0.0,0.0,0.0,0.0,0.0,0.0,0.0,0.0,0.0,0.0,0.0,0.0,0.0,0.0,0.0,0.0,0.0,3.4974,3.5096,3.4897,3.4538,3.3952,3.3106,3.1872,3.0819,2.9998,2.8691,0.0,0.0,0.0,0.0,0.0,0.0,0.0,0.0,0.0,0.0,0.0,0.0,0.0,0.0,0.0,0.0,0.0,0.0,0.0,0.0,0.0,0.0,0.0,0.0,0.0,0.0,0.0,0.0,0.0,0.0,0.0,0.0,0.0,0.0,0.0,0.0,0.0,0.0,0.0,0.0,0.0,0.0,0.0,0.0,0.0,0.0,0.0,0.0,0.0,0.0,0.0,0.0,0.0,0.0,0.0,0.0,0.0,0.0,0.0,0.0,0.0,0.0,0.0,0.0,0.0,0.0,0.0,0.0,0.0,0.0,0.0,0.0,0.0,0.0,0.0,0.0,0.0,0.0,0.0,0.0,0.0,0.0,0.0,0.0,0.0,0.0,0.0,0.0,0.0,0.0,0.0,0.0,0.0,0.0,0.0,0.0,0.0,0.0,0.0,0.0,0.0,0.0,3.5592,3.5538,3.5939,3.5138,3.4162,3.3181,3.1653,3.0555,3.0105,2.8487,0.0,0.0,0.0,0.0,0.0,0.0,0.0,0.0,0.0,0.0,0.0,0.0,0.0,0.0,0.0,0.0,0.0,0.0,0.0,0.0,0.0,0.0,0.0,0.0,0.0,0.0,0.0,0.0,0.0,0.0,0.0,0.0,0.0,0.0,0.0,0.0,0.0,0.0,0.0,0.0,0.0,0.0,0.0,0.0,0.0,0.0,0.0,0.0,0.0,0.0,0.0,0.0,0.0,0.0,0.0,0.0,0.0,0.0,0.0,0.0,0.0,0.0,0.0,0.0,0.0,0.0,0.0,0.0,0.0,0.0,0.0,0.0,0.0,0.0,0.0,0.0,0.0,0.0,0.0,0.0,0.0,0.0,0.0,0.0,0.0,0.0,0.0,0.0,0.0,0.0,0.0,0.0,0.0,0.0,0.0,0.0,0.0,0.0,0.0,0.0,0.0,0.0,3.5717,3.5742,3.5675,3.4799,3.384,3.2941,3.1647,3.0508,2.9597,0.0,0.0,0.0,0.0,0.0,0.0,0.0,0.0,0.0,0.0,0.0,0.0,0.0,0.0,0.0,0.0,0.0,0.0,0.0,0.0,0.0,0.0,0.0,0.0,0.0,0.0,0.0,0.0,0.0,0.0,0.0,0.0,0.0,0.0,0.0,0.0,0.0,0.0,0.0,0.0,0.0,0.0,0.0,0.0,0.0,0.0,0.0,0.0,0.0,0.0,0.0,0.0,0.0,0.0,0.0,0.0,0.0,0.0,0.0,0.0,0.0,0.0,0.0,0.0,0.0,0.0,0.0,0.0,0.0,0.0,0.0,0.0,0.0,0.0,0.0,0.0,0.0,0.0,0.0,0.0,0.0,0.0,0.0,0.0,0.0,0.0,0.0,0.0,0.0,0.0,0.0,0.0,0.0,0.0,0.0,0.0,0.0,0.0,0.0,0.0,0.0,0.0,3.5482,3.5718,3.5664,3.5258,3.452,3.3684,3.2774,3.1689,3.0662,2.9701,0.0,0.0,0.0,0.0,0.0,0.0,0.0,0.0,0.0,0.0,0.0,0.0,0.0,0.0,0.0,0.0,0.0,0.0,0.0,0.0,0.0,0.0,0.0,0.0,0.0,0.0,0.0,0.0,0.0,0.0,0.0,0.0,0.0,0.0,0.0,0.0,0.0,0.0,0.0,0.0,0.0,0.0,0.0,0.0,0.0,0.0,0.0,0.0,0.0,0.0,0.0,0.0,0.0,0.0,0.0,0.0,0.0,0.0,0.0,0.0,0.0,0.0,0.0,0.0,0.0,0.0,0.0,0.0,0.0,0.0,0.0,0.0,0.0,0.0,0.0,0.0,0.0,0.0,0.0,0.0,0.0,0.0,0.0,0.0,0.0,0.0,0.0,0.0,0.0,0.0,0.0,0.0,0.0,0.0,0.0,0.0,0.0,0.0,0.0,0.0,0.0,0.0,3.5892,3.5645,3.5252,3.4841,3.4446,3.3787,3.279,3.1771,3.1037,0.0,0.0,0.0,0.0,0.0,0.0,0.0,0.0,0.0,0.0,0.0,0.0,0.0,0.0,0.0,0.0,0.0,0.0,0.0,0.0,0.0,0.0,0.0,0.0,0.0,0.0,0.0,0.0,0.0,0.0,0.0,0.0,0.0,0.0,0.0,0.0,0.0,0.0,0.0,0.0,0.0,0.0,0.0,0.0,0.0,0.0,0.0,0.0,0.0,0.0,0.0,0.0,0.0,0.0,0.0,0.0,0.0,0.0,0.0,0.0,0.0,0.0,0.0,0.0,0.0,0.0,0.0,0.0,0.0,0.0,0.0,0.0,0.0,0.0,0.0,0.0,0.0,0.0,0.0,0.0,0.0,0.0,0.0,0.0,0.0,0.0,0.0,0.0,0.0,0.0,0.0,0.0,0.0,0.0,0.0,0.0,0.0,0.0,0.0,0.0,0.0,0.0,0.0,3.5528,3.559,3.5392,3.4792,3.4156,3.3468,3.2703,3.1846,3.0929,2.9962,0.0,0.0,0.0,0.0,0.0,0.0,0.0,0.0,0.0,0.0,0.0,0.0,0.0,0.0,0.0,0.0,0.0,0.0,0.0,0.0,0.0,0.0,0.0,0.0,0.0,0.0,0.0,0.0,0.0,0.0,0.0,0.0,0.0,0.0,0.0,0.0,0.0,0.0,0.0,0.0,0.0,0.0,0.0,0.0,0.0,0.0,0.0,0.0,0.0,0.0,0.0,0.0,0.0,0.0,0.0,0.0,0.0,0.0,0.0,0.0,0.0,0.0,0.0,0.0,0.0,0.0,0.0,0.0,0.0,0.0,0.0,0.0,0.0,0.0,0.0,0.0,0.0,0.0,0.0,0.0,0.0,0.0,0.0,0.0,0.0,0.0,0.0,0.0,0.0,0.0,0.0,0.0,0.0,0.0,0.0,0.0,0.0,0.0,0.0,0.0,0.0,0.0,3.5809,3.5622,3.5316,3.4976,3.4158,3.3405,3.2841,3.2147,3.1211,2.9987,0.0,0.0,0.0,0.0,0.0,0.0,0.0,0.0,0.0,0.0,0.0,0.0,0.0,0.0,0.0,0.0,0.0,0.0,0.0,0.0,0.0,0.0,0.0,0.0,0.0,0.0,0.0,0.0,0.0,0.0,0.0,0.0,0.0,0.0,0.0,0.0,0.0,0.0,0.0,0.0,0.0,0.0,0.0,0.0,0.0,0.0,0.0,0.0,0.0,0.0,0.0,0.0,0.0,0.0,0.0,0.0,0.0,0.0,0.0,0.0,0.0,0.0,0.0,0.0,0.0,0.0,0.0,0.0,0.0,0.0,0.0,0.0,0.0,0.0,0.0,0.0,0.0,0.0,0.0,0.0,0.0,0.0,0.0,0.0,0.0,0.0,0.0,0.0,0.0,0.0,0.0,0.0,0.0,0.0,0.0,0.0,0.0,0.0,0.0,0.0,0.0,0.0,3.6388,3.5759,3.5196,3.5227,3.4341,3.3547,3.3101,3.2553,3.1738,3.0535,0.0,0.0,0.0,0.0,0.0,0.0,0.0,0.0,0.0,0.0,0.0,0.0,0.0,0.0,0.0,0.0,0.0,0.0,0.0,0.0,0.0,0.0,0.0,0.0,0.0,0.0,0.0,0.0,0.0,0.0,0.0,0.0,0.0,0.0,0.0,0.0,0.0,0.0,0.0,0.0,0.0,0.0,0.0,0.0,0.0,0.0,0.0,0.0,0.0,0.0,0.0,0.0,0.0,0.0,0.0,0.0,0.0,0.0,0.0,0.0,3.5292,0.0,0.0,0.0,0.0,0.0,0.0,0.0,0.0,0.0,0.0,0.0,0.0,0.0,0.0,0.0,0.0,0.0,0.0,0.0,0.0,0.0,0.0,0.0,0.0,0.0,0.0,0.0,0.0,0.0,0.0,0.0,0.0,0.0,0.0,0.0,0.0,0.0,0.0,0.0,0.0,0.0,3.5991,3.596,3.5604,3.4917,3.4388,3.3762,3.2926,3.2707,3.2151,3.1095,3.0715,0.0,0.0,0.0,0.0,0.0,0.0,0.0,0.0,0.0,0.0,0.0,0.0,0.0,0.0,0.0,0.0,0.0,0.0,0.0,0.0,0.0,0.0,0.0,0.0,0.0,0.0,0.0,0.0,0.0,0.0,0.0,0.0,0.0,0.0,0.0,0.0,0.0,0.0,0.0,0.0,0.0,0.0,0.0,0.0,0.0,0.0,0.0,0.0,0.0,0.0,0.0,0.0,0.0,0.0,0.0,0.0,0.0,0.0,0.0,0.0,3.5819,0.0,0.0,0.0,0.0,0.0,0.0,0.0,0.0,0.0,0.0,0.0,0.0,0.0,0.0,0.0,0.0,0.0,0.0,0.0,0.0,0.0,0.0,0.0,0.0,0.0,0.0,0.0,0.0,0.0,0.0,0.0,0.0,0.0,0.0,0.0,0.0,0.0,0.0,0.0,0.0,3.6343,3.6035,3.5634,3.5305,3.477,3.4084,3.3199,3.3093,3.2553,3.1278,3.1273,0.0,0.0,0.0,0.0,0.0,0.0,0.0,0.0,0.0,0.0,0.0,0.0,0.0,0.0,0.0,0.0,0.0,0.0,0.0,0.0,0.0,0.0,0.0,0.0,0.0,0.0,0.0,0.0,0.0,0.0,0.0,0.0,0.0,0.0,0.0,0.0,0.0,0.0,0.0,0.0,0.0,0.0,0.0,0.0,0.0,0.0,0.0,0.0,0.0,0.0,0.0,0.0,0.0,4.1647,4.2104,4.2429,4.2216,4.1618,4.0683,3.917,3.814,3.746,3.6734,0.0,0.0,0.0,0.0,0.0,0.0,0.0,0.0,0.0,0.0,0.0,0.0,0.0,0.0,0.0,0.0,0.0,0.0,0.0,0.0,0.0,0.0,0.0,0.0,3.4983,3.4415,0.0,0.0,0.0,0.0,0.0,0.0,0.0,0.0,0.0,0.0,0.0,0.0,3.6748,3.6135,3.5701,3.5894,3.5281,3.4517,3.3719,3.364,3.3012,3.1582,3.1779,3.1278,0.0,0.0,0.0,0.0,0.0,0.0,0.0,0.0,0.0,0.0,0.0,0.0,0.0,0.0,0.0,0.0,0.0,0.0,0.0,0.0,0.0,0.0,0.0,0.0,0.0,0.0,0.0,0.0,0.0,0.0,0.0,0.0,3.286,3.3419,0.0,0.0,0.0,0.0,0.0,0.0,0.0,0.0,0.0,0.0,0.0,0.0,0.0,4.0162,4.1371,4.1422,4.1839,4.2615,4.2471,4.2624,4.2978,4.2726,4.2305,4.1816,4.2024,0.0,3.8713,3.7972,0.0,0.0,0.0,0.0,0.0,0.0,0.0,0.0,0.0,0.0,0.0,0.0,0.0,0.0,0.0,0.0,0.0,0.0,0.0,0.0,0.0,0.0,3.6801,3.6884,3.6557,3.6238,0.0,3.4772,3.3468,3.3832,3.379,0.0,0.0,0.0,0.0,0.0,0.0,0.0,3.6341,3.6437,3.6404,3.6033,3.5628,3.508,3.4331,3.4237,3.3753,3.2658,3.2357,3.1862,3.0983,3.0133,0.0,0.0,0.0,0.0,0.0,0.0,0.0,0.0,0.0,0.0,0.0,0.0,0.0,0.0,0.0,0.0,0.0,0.0,0.0,0.0,0.0,0.0,0.0,0.0,0.0,0.0,0.0,0.0,0.0,3.3367,3.434,3.4648,3.4636,3.4785,0.0,0.0,0.0,0.0,0.0,0.0,0.0,0.0,0.0,4.1257,4.1752,4.2501,4.3531,4.3862,4.4139,4.4415,4.4533,4.4588,4.4599,4.4173,4.3819,4.3521,4.3573,4.296,4.181,4.0394,3.9248,3.8357,0.0,0.0,0.0,0.0,3.794,3.828,3.8302,3.8449,0.0,3.8545,0.0,0.0,0.0,0.0,0.0,0.0,0.0,0.0,0.0,0.0,3.7897,3.8203,3.801,3.7805,3.7902,3.7014,3.5981,0.0,3.497,3.5063,3.5845,0.0,0.0,0.0,0.0,3.7035,3.6552,3.7175,3.7229,3.6125,3.6148,3.5782,3.4717,3.4459,3.4035,3.3291,3.2722,3.2053,3.128,3.0524,2.9705,0.0,0.0,0.0,0.0,0.0,0.0,0.0,0.0,0.0,0.0,0.0,0.0,0.0,0.0,0.0,0.0,0.0,0.0,0.0,0.0,0.0,0.0,0.0,0.0,0.0,0.0,0.0,0.0,3.4832,3.5573,3.6036,3.5926,3.6071,0.0,0.0,0.0,0.0,0.0,0.0,4.0304,4.1459,4.2517,4.3418,4.398,4.4568,4.5247,4.5647,4.5804,4.5704,4.5915,4.5959,4.5843,4.5391,4.5047,4.4764,4.4719,4.4421,4.3874,4.2382,4.1052,3.9967,3.9897,3.9617,3.9287,3.9314,3.9696,4.0206,3.991,4.005,4.0299,4.003,0.0,3.8911,3.8865,0.0,0.0,0.0,0.0,3.7636,3.8936,3.8923,3.8707,3.9186,3.911,3.8941,3.9079,3.8853,3.82,0.0,3.637,3.6456,3.7137,0.0,0.0,0.0,0.0,3.7508,3.7093,3.7767,3.7748,3.6362,3.655,3.628,3.5021,3.4722,3.4325,3.3664,3.2982,3.2225,3.143,3.0768,2.995,2.8928,0.0,0.0,0.0,0.0,0.0,0.0,0.0,0.0,0.0,0.0,0.0,0.0,0.0,0.0,0.0,0.0,0.0,0.0,0.0,0.0,0.0,0.0,0.0,0.0,0.0,0.0,0.0,0.0,0.0,3.8081,3.8117,0.0,0.0,0.0,0.0,3.9214,4.0508,4.1669,4.2484,4.3146,4.4099,4.5415,4.5486,4.5729,4.6222,4.6071,4.5996,4.598,4.5672,4.5684,4.5977,4.5826,4.5486,4.5018,4.5716,4.5027,4.342,4.3123,4.2956,4.2828,4.2205,4.1917,4.1917,4.2045,4.2045,4.1869,4.1166,4.0848,4.061,3.9582,3.9124,3.8965,3.8756,3.8447,0.0,0.0,3.9212,3.8815,3.9712,3.9507,3.9208,3.9738,3.9519,3.9379,4.0077,3.9799,3.9194,0.0,3.8119,3.7919,3.7694,0.0,3.8024,3.7914,3.8147,3.8259,3.7976,3.7965,3.7715,3.6859,3.6785,3.6356,3.5284,3.5162,3.4752,3.3756,3.3184,3.2521,3.1724,3.0737,3.0064,2.9763,2.9243,0.0,0.0,0.0,0.0,0.0,0.0,0.0,0.0,0.0,0.0,0.0,0.0,0.0,0.0,0.0,0.0,0.0,0.0,0.0,0.0,0.0,0.0,0.0,0.0,0.0,0.0,0.0,0.0,3.9679,4.0036,0.0,4.0375,4.1063,4.1494,4.1494,4.3107,4.4236,4.4546,4.5503,4.6424,4.7246,4.7732,4.824,4.8745,4.8547,4.815,4.7605,4.7711,4.743,4.6835,4.6995,4.6908,4.6628,4.6749,4.6194,4.5208,4.5107,4.4317,4.3074,4.2838,4.2811,4.2928,4.2846,4.2879,4.288,4.2494,4.2315,4.2214,4.1674,4.1303,4.0988,4.067,4.0278,3.9934,3.9959,3.9576,3.93,3.9953,3.9873,3.9715,4.0069,4.0032,3.9934,4.0086,3.9964,3.9767,3.9557,3.8988,3.8637,3.8877,3.8595,3.8439,3.8735,3.8765,3.8492,3.7829,3.8391,3.8301,3.6947,3.7105,3.6808,3.5561,3.5291,3.4891,3.4195,3.3372,3.2605,3.1973,3.1147,3.0294,2.9359,2.9154,2.8793,0.0,0.0,0.0,0.0,0.0,0.0,0.0,0.0,0.0,0.0,0.0,0.0,0.0,0.0,0.0,0.0,0.0,0.0,0.0,0.0,0.0,0.0,0.0,0.0,0.0,3.9126,4.0579,4.1178,4.1729,4.211,4.2197,4.3062,4.359,4.3552,4.5431,4.6546,4.647,4.7713,4.851,4.8746,4.921,4.9589,4.9827,4.9619,4.9215,4.8565,4.8661,4.8281,4.7469,4.7628,4.7582,4.739,4.7255,4.6893,4.6415,4.6357,4.5489,4.4161,4.3912,4.3885,4.3991,4.3867,4.3849,4.3836,4.3335,4.2906,4.2561,4.2449,4.2272,4.2025,4.1592,4.1302,4.1021,4.059,4.0183,3.9943,4.0255,4.0189,4.0055,4.0163,4.027,4.0305,4.0194,4.0223,4.0261,4.0201,3.9664,3.9394,3.9842,3.9322,3.9007,3.9499,3.927,3.8778,3.8087,3.8656,3.86,3.7206,3.7297,3.6925,3.5576,3.5218,3.4817,3.421,3.3376,3.2667,3.2115,3.1466,3.0648,2.9726,2.9534,2.9004,2.8,0.0,0.0,0.0,0.0,0.0,0.0,0.0,0.0,0.0,0.0,0.0,0.0,0.0,0.0,0.0,0.0,0.0,0.0,0.0,0.0,0.0,0.0,0.0,3.9738,4.0247,4.1148,4.2595,4.3196,4.3494,4.3494,4.4704,4.545,4.5319,4.7331,4.8472,4.8262,4.9626,5.0221,4.981,4.9826,4.9684,4.9344,4.9149,4.8949,4.8714,4.8342,4.8044,4.7805,4.7645,4.7433,4.724,4.724,4.7107,4.6895,4.6713,4.6479,4.6206,4.5482,4.521,4.5226,4.5179,4.5036,4.4706,4.368,4.2591,4.1641,4.1652,4.1767,4.1839,4.1376,4.1371,4.1496,4.1418,4.1107,4.0744,4.0628,4.0428,4.0235,4.0037,4.0194,4.0415,4.0466,4.0648,4.0698,4.0451,4.0227,4.0208,4.045,4.0073,3.9807,4.0056,3.9657,0.0,3.8815,3.8788,3.8476,3.7665,3.7346,3.6667,3.5323,3.4965,3.4502,3.3762,3.3191,3.2647,3.2122,3.1584,3.1155,3.0855,3.041,2.9462,2.8033,0.0,0.0,0.0,0.0,0.0,0.0,0.0,0.0,0.0,0.0,0.0,0.0,0.0,0.0,0.0,0.0,0.0,0.0,0.0,0.0,0.0,3.9807,4.0437,4.0304,4.212,4.3627,4.4017,4.5003,4.5664,4.5664,4.6863,4.7628,4.7597,4.8877,4.9642,4.9575,5.0105,5.0278,5.0028,5.0383,5.0472,5.0244,5.0187,4.9782,4.9059,4.9284,4.8977,4.8169,4.8466,4.8447,4.8193,4.8065,4.7686,4.7165,4.6972,4.6554,4.5946,4.5312,4.5321,4.5607,4.4668,4.4185,4.3988,4.4174,4.3428,4.2451,4.2673,4.2467,4.2114,4.2137,4.1912,4.1591,4.1265,4.0815,4.0438,4.0451,4.0284,4.0025,3.9829,4.0131,4.0365,3.9947,4.0205,4.0505,4.0396,4.0353,4.0354,4.0394,4.0308,4.0096,3.9796,3.9597,0.0,3.8601,3.8526,3.8163,3.7331,3.716,3.6729,3.5783,3.5152,3.4543,3.3959,3.3288,3.2569,3.1849,3.1482,3.0904,3.0052,2.9555,2.9129,0.0,0.0,0.0,0.0,0.0,0.0,0.0,0.0,0.0,0.0,0.0,0.0,0.0,0.0,0.0,0.0,0.0,0.0,0.0,0.0,0.0,0.0,4.1371,4.1988,4.2154,4.3552,4.475,4.5245,4.6236,4.6936,4.7068,4.8075,4.8778,4.8945,4.9749,5.0199,5.0095,5.0697,5.0911,5.0611,5.1182,5.1335,5.1021,5.0815,5.0366,4.9659,4.965,4.9289,4.862,4.9078,4.9144,4.8898,4.8778,4.8458,4.7966,4.7461,4.7008,0.0,0.0,0.0,0.0,0.0,4.4354,4.4182,4.4372,4.3773,4.2932,4.3019,4.2744,4.2399,4.2273,4.2163,4.1923,4.1343,4.0973,4.068,4.0498,4.0325,4.0172,4.0027,4.031,4.0545,4.018,4.0456,4.075,4.075,4.075,0.0,4.075,4.0538,4.0345,4.0138,3.9611,3.9048,3.8478,3.8077,3.7667,3.7158,3.6889,3.6464,3.5794,3.51,0.0,0.0,0.0,3.2704,3.1822,3.1222,0.0,0.0,0.0,2.9018,2.872,0.0,0.0,0.0,2.706,2.7063,0.0,0.0,0.0,0.0,0.0,0.0,0.0,0.0,0.0,0.0,0.0,0.0,0.0,0.0,0.0,0.0,4.3079,4.3947,4.4693,4.4836,4.5242,4.6292,4.7099,4.7692,4.8001,4.8729,4.9336,4.9679,5.0267,5.0505,5.0267,0.0,0.0,0.0,0.0,5.1981,5.157,5.116,5.0732,5.0289,4.966,4.9293,4.9135,4.951,4.9585,4.9405,4.9319,4.9154,4.8886,4.791,4.754,4.748,4.6441,4.5914,4.5767,4.5499,4.5125,4.4674,4.4337,0.0,0.0,4.2876,4.2753,4.2587,4.2198,4.2318,4.2379,4.1607,4.1304,4.1117,4.0634,4.0484,4.0386,4.0301,4.0538,4.072,4.0664,4.0873,4.1098,4.1098,4.1098,4.1098,4.1098,4.0728,4.0495,4.0659,3.9659,3.8772,3.8476,3.7738,3.7176,3.7064,0.0,0.0,3.5485,3.4872,3.4325,3.3912,3.3451,3.2768,3.1837,3.09,3.0193,2.9724,2.9493,2.9045,2.832,2.8475,2.8234,2.771,2.7777,2.773,0.0,0.0,0.0,0.0,0.0,0.0,0.0,0.0,0.0,0.0,0.0,0.0,0.0,0.0,0.0,4.38,4.4454,4.5219,4.6419,4.6886,4.7104,4.7182,4.8078,4.8713,4.8779,4.9746,5.0354,5.025,5.1234,5.1662,5.1243,5.1701,5.1837,5.1549,5.1508,5.1445,5.1361,5.1278,5.0913,5.0305,0.0,0.0,4.9796,4.9725,4.9846,5.0053,4.9367,4.8923,4.8595,4.7483,4.7243,4.7466,4.6907,4.6077,4.5251,4.5813,4.5062,4.3806,4.4098,4.3228,4.2117,4.282,4.2791,4.2544,4.2974,4.3028,0.0,4.2124,4.132,4.0659,4.0736,4.0255,3.976,3.9688,4.0026,4.0282,3.9841,4.0101,4.0397,4.0397,4.0397,4.0397,4.0397,4.0544,4.0507,4.012,3.9663,3.9205,3.8708,3.8265,3.7669,3.6793,3.6346,3.5848,3.5157,3.4378,3.3923,3.3824,3.2684,3.1724,3.1052,3.0622,3.0267,2.9951,2.9415,2.8935,2.8524,2.8634,2.8357,2.7784,2.8183,2.8366,0.0,0.0,0.0,0.0,0.0,0.0,0.0,0.0,0.0,0.0,0.0,4.0113,4.1628,0.0,4.4126,4.5301,4.5775,4.6351,4.7368,4.777,4.7981,4.8099,4.8727,4.9259,4.9515,4.9968,5.0406,5.0816,5.1291,5.1542,5.1555,5.1957,5.2077,5.1822,5.2063,5.2141,5.1995,5.1778,5.1421,5.101,5.0663,5.0387,5.0174,5.0383,5.0297,4.9953,4.9842,4.9395,4.8701,4.8,4.7729,4.7766,4.7292,4.6688,4.6101,4.6106,4.5433,4.4544,4.4387,4.3818,4.3173,4.3217,4.2995,4.271,4.2736,4.2565,4.2249,4.1811,4.1196,4.0668,4.0779,4.0373,3.9982,4.0078,4.0173,4.018,3.9916,4.0017,4.0194,4.0194,4.0194,4.0194,4.0194,4.0089,4.0007,4.0055,3.9439,3.8907,3.8623,3.797,3.7235,3.656,3.5991,3.5425,3.4912,3.4035,3.3309,3.2833,3.1919,3.1116,3.053,3.0014,2.9675,2.9543,2.9208,2.886,2.8498,2.8598,2.8403,2.7961,2.8407,2.8579,0.0,0.0,0.0,0.0,0.0,0.0,0.0,3.9133,3.9676,3.956,4.0683,4.2178,4.381,4.468,4.5518,4.6599,4.7,4.7391,4.8084,4.8365,4.863,4.8961,4.9239,4.9623,5.0189,5.0193,5.0499,5.1367,5.1351,5.1422,5.1659,5.2208,5.2402,5.214,5.2726,5.2915,5.2691,5.2315,5.199,5.1698,5.1274,5.0888,5.0584,5.1046,5.0772,4.9982,5.0253,4.9738,4.864,4.8418,4.8199,4.7941,4.7444,4.7175,4.6934,4.6234,4.5751,4.5393,4.4743,4.4432,4.4196,4.3661,4.3232,4.2838,4.2424,4.2074,4.1793,4.1453,4.104,4.0736,4.076,4.0467,4.0187,4.0448,4.0305,4.0089,4.003,3.996,3.996,4.0019,3.9943,3.9884,3.9931,3.9473,3.9338,3.9943,3.9133,3.8462,3.8392,3.7529,3.6738,3.63,3.5638,3.4978,3.441,3.3544,3.2645,3.1672,3.116,3.0648,3.018,2.9495,2.9086,2.9102,2.898,2.8702,2.8241,2.8492,2.8463,2.8122,2.859,2.8738,3.8449,3.8651,3.8838,3.8833,3.9417,3.9933,0.0,4.0302,4.0931,4.1319,4.2488,4.3625,4.4318,4.5755,4.7027,4.7652,4.7916,4.8312,4.9027,4.942,4.9634,4.9685,4.9712,4.9997,5.0655,5.1121,5.1531,5.1905,5.2439,5.2539,5.1989,5.2635,5.2896,5.2628,5.269,5.2736,5.2691,5.2659,5.232,5.1698,5.1414,5.1361,5.1524,5.1179,5.1145,5.1308,5.0126,4.8937,4.7832,4.7794,4.7693,4.7545,4.7225,4.6836,4.6348,4.5968,4.5488,4.5018,4.4706,4.3963,4.3232,4.3637,4.3261,4.2689,4.2841,4.2674,4.2283,4.1736,4.1011,4.0483,4.0669,4.0099,3.9559,3.9849,3.9861,3.9761,3.9444,3.9167,3.9049,3.9326,3.8964,3.8697,3.893,3.8716,3.8697,3.9308,3.8848,3.8309,3.7999,3.7585,3.6937,3.5888,3.5433,3.4646,3.3226,3.2743,3.2073,3.1044,3.0402,3.0046,3.0026,2.9443,2.909,2.9092,2.8794,2.8337,2.7683,2.8343,2.8533,2.8213,2.8924,2.9186,4.0182,3.985,3.9768,4.0608,4.103,4.1324,4.1581,4.1815,4.2269,4.3238,4.3674,4.431,4.5764,4.6799,4.7473,4.7488,4.8146,4.8745,4.8911,4.9128,4.9487,5.0035,4.9759,4.9931,5.1003,5.1422,5.1829,5.2208,5.2352,5.2399,5.2401,5.2694,5.2803,5.2691,5.2691,5.2691,5.2691,5.2691,5.2553,5.2276,5.2006,5.1871,5.1872,5.1516,5.127,5.1061,4.9645,4.896,4.8832,4.8349,4.8041,4.7799,4.7179,4.6694,4.6291,4.5817,4.5294,4.477,4.4305,4.3966,4.372,4.3438,4.332,4.3183,4.2647,4.2465,4.2324,4.1777,4.109,4.0593,4.0675,4.0151,3.961,3.9527,3.9367,3.9149,3.8846,3.8656,3.8596,3.8757,3.8589,3.844,3.8537,3.8148,3.7897,3.8167,3.7987,3.7626,3.7091,3.6737,3.6099,3.4968,3.436,3.3589,3.2525,3.1946,3.1296,3.0491,2.9815,2.9348,2.918,2.8967,2.8866,2.8869,2.8766,2.8452,2.7945,2.8059,2.7943,2.7566,2.807,2.8315,4.1357,4.0952,4.0922,4.2007,4.2523,4.2843,4.3196,4.348,4.3925,4.4882,4.4878,4.5169,4.6608,4.7358,4.7712,4.7633,4.8458,4.913,4.9138,4.9321,4.9619,5.0058,5.0136,5.0464,5.1227,5.1486,5.1867,5.2526,5.2393,5.239,5.2577,5.2669,5.2669,5.2586,5.2838,5.2968,5.2968,5.3107,5.3046,5.2862,5.2528,5.2246,5.2002,5.1564,5.1058,5.0436,4.9358,4.9005,4.9203,4.8631,4.8103,4.7568,4.7128,4.662,4.6142,4.5847,4.5422,4.4877,4.4356,4.4169,4.4049,4.3424,4.3249,4.309,4.2144,4.1938,4.1909,4.135,4.0855,4.0468,4.061,4.0217,3.972,3.9597,3.9321,3.9021,3.8833,3.8632,3.8497,3.8454,3.822,3.8014,3.8002,3.7415,3.695,3.6859,3.6696,3.6452,3.6166,3.5592,3.4861,3.3939,3.3312,3.268,3.1955,3.1354,3.0689,2.9875,2.9204,2.8724,2.8498,2.8353,2.8337,2.8403,2.8373,2.8191,2.7914,2.7738,2.7516,2.7232,2.7575,2.7735,4.1783,4.2091,4.2595,4.252,4.3555,4.4546,4.4302,4.5224,4.6081,4.5978,4.6247,4.6486,4.634,4.718,4.8068,4.8566,4.912,4.9668,5.0181,5.0588,5.0538,4.9716,5.1215,5.2036,5.1365,5.1318,5.1789,5.2991,5.3062,5.2862,5.2352,5.2563,5.2586,5.2329,5.3192,5.3676,5.3676,5.4059,5.3926,5.3269,5.2802,5.2391,5.1964,5.1176,5.0427,4.9732,4.9399,4.8856,4.8154,4.8128,4.7452,4.6509,4.7052,4.6597,4.569,4.62,4.6029,4.5516,4.5171,4.45,4.3806,4.3777,4.2934,4.1875,4.1369,4.1126,4.0922,4.0405,4.0042,3.9948,4.0383,4.0073,3.9715,4.015,4.0017,3.9781,3.975,3.9252,3.8757,3.8624,3.7817,3.711,3.6965,3.6401,3.5829,3.551,3.4922,3.4735,3.5356,3.4298,3.3323,3.2965,3.2626,3.2137,3.1389,3.1015,3.0315,2.9199,2.8483,2.815,2.8193,2.7596,2.7381,2.7735,2.7335,2.7165,2.7122,2.7443,2.7603,2.7583,2.7926,2.8086,4.2252,4.2645,4.3186,4.3591,4.4341,4.5037,4.5364,4.5589,4.582,4.614,4.6127,4.6155,4.6456,4.749,4.8141,4.77,4.8982,4.9992,4.9836,5.021,5.0568,5.0705,5.1039,5.1395,5.1726,5.2219,5.2647,5.3062,5.2765,5.257,5.2563,5.248,5.248,5.2563,5.2884,5.3029,5.3029,5.2986,5.2857,5.2643,5.1989,5.143,5.0985,5.0361,4.9936,4.9659,4.8856,4.8355,4.808,4.7714,4.7355,4.6986,4.6794,4.6481,4.6046,4.5434,4.531,4.5396,4.4941,4.447,4.3929,4.3128,4.2669,4.2243,4.1188,4.0933,4.0893,4.0346,4.007,3.9979,4.014,3.9943,3.9716,3.9645,3.9379,3.9077,3.8847,3.846,3.8038,3.773,3.7369,3.6947,3.6466,3.5935,3.5232,3.4235,3.389,3.3733,3.3733,3.3143,3.2603,3.2275,3.1955,3.1451,3.0686,3.0148,2.952,2.8897,2.8213,2.7812,2.7795,2.7589,2.7512,2.764,2.75,2.7423,2.7429,2.7267,2.7184,2.7184,2.7332,2.7384,4.3061,4.3518,4.4133,4.4702,4.5287,4.5785,4.6001,4.601,4.6077,4.6352,4.6178,4.6066,4.6376,4.7483,4.8097,4.7357,4.8827,5.0006,4.9878,5.0258,5.0725,5.1139,5.1314,5.1504,5.1733,5.2491,5.296,5.296,5.2846,5.2833,5.2916,5.2994,5.3094,5.33,5.3423,5.3438,5.33,5.3192,5.2776,5.2105,5.1413,5.0813,5.0342,4.9902,4.9547,4.9242,4.8671,4.8196,4.7801,4.7538,4.7244,4.6944,4.6653,4.635,4.5962,4.5409,4.527,4.5286,4.4738,4.4287,4.3811,4.306,4.2634,4.2219,4.1011,4.0832,4.0864,3.994,3.982,3.9947,3.9947,3.991,3.9846,3.9697,3.9372,3.9,3.853,3.8166,3.7768,3.7193,3.6862,3.6403,3.5699,3.4872,3.3933,3.2838,3.2594,3.2466,3.238,3.2061,3.1667,3.1198,3.0949,3.0529,2.9828,2.9353,2.8885,2.8378,2.7912,2.7598,2.7428,2.716,2.7087,2.7164,2.6907,2.6855,2.6969,2.6843,2.6778,2.6801,2.6918,2.6991,4.4229,4.4723,4.5369,4.5731,4.6364,4.6764,4.624,4.6509,4.679,4.6598,4.642,4.6273,4.6144,4.7217,4.7988,4.7607,4.873,4.9795,5.0278,5.0765,5.1045,5.107,5.2017,5.2355,5.1466,5.2196,5.273,5.2783,5.333,5.3576,5.3384,5.3957,5.4324,5.4378,5.4687,5.4703,5.4393,5.4492,5.3641,5.1828,5.1155,5.0611,5.0164,4.9814,4.9274,4.8597,4.8848,4.8332,4.7351,4.7594,4.7173,4.6454,4.6668,4.622,4.5501,4.601,4.5787,4.5165,4.462,4.4032,4.3511,4.3456,4.2784,4.1777,4.0776,4.0755,4.0709,3.9224,3.9299,3.9797,3.9808,3.9883,4.001,4.0192,3.992,3.9451,3.8781,3.836,3.7847,3.7021,3.6236,3.5426,3.4655,3.3309,3.2138,3.1497,3.1068,3.0971,3.1317,3.1059,3.0615,2.9874,2.9768,2.9506,2.8824,2.8684,2.8367,2.7712,2.76,2.7404,2.7063,2.637,2.6137,2.6365,2.5683,2.5462,2.58,2.621,2.6392,2.6392,2.6801,2.6998,4.5389,4.5797,4.6234,4.624,4.6568,4.6806,4.6532,4.6382,4.6261,4.6062,4.6241,4.6442,4.6405,4.7403,4.8224,4.8106,4.9247,5.0289,5.0775,5.1351,5.1796,5.1942,5.2243,5.2459,5.2558,5.2787,5.3184,5.3844,5.3591,5.3683,5.4321,5.4177,5.415,5.4324,5.4216,5.4097,5.404,5.3902,5.3318,5.224,5.1615,5.1175,5.0904,4.9921,4.9507,4.9509,4.8754,4.811,4.7593,4.7445,4.7129,4.6694,4.6484,4.6267,4.595,4.5123,4.4712,4.4472,4.3826,4.3829,4.3942,4.3037,4.2272,4.1499,4.0516,4.0167,3.9983,3.9219,3.9478,3.9901,3.9627,3.9669,3.966,3.9221,3.8824,3.8437,3.7983,3.7371,3.6803,3.6333,3.5168,3.4046,3.3493,3.242,3.1612,3.1423,3.064,3.0233,3.0621,3.0588,3.0338,2.9843,2.9513,2.9072,2.84,2.8043,2.7698,2.7198,2.7148,2.6978,2.6576,2.6402,2.6185,2.5972,2.579,2.5716,2.58,2.621,2.6392,2.6392,2.6801,2.7122,4.6037,4.6503,4.6897,4.6665,4.6947,4.7071,4.6397,4.61,4.59,4.5716,4.5813,4.6047,4.6423,4.7226,4.7879,4.8091,4.9273,5.034,5.0804,5.1456,5.1988,5.2275,5.2566,5.2757,5.2818,5.3176,5.3672,5.4387,5.4163,5.4284,5.4918,5.4809,5.4807,5.5042,5.468,5.4324,5.4023,5.3509,5.296,5.2392,5.1815,5.1341,5.0946,5.0049,4.9517,4.9311,0.0,4.8185,4.7514,4.7325,4.6991,4.6531,4.6055,4.5757,4.5544,4.4619,4.4206,4.3989,4.3314,4.322,4.3318,4.2619,4.1974,4.1313,4.0518,4.0008,3.9612,3.9113,3.9147,3.9313,3.9099,3.9163,3.9121,3.8592,3.8204,3.7737,3.7055,3.6573,3.6005,3.5152,3.4013,3.3018,3.2412,3.1553,3.0833,3.0479,2.98,2.9326,2.9382,2.9716,2.9699,2.9174,2.8907,2.8494,2.7775,2.747,2.7188,2.6772,2.674,2.6598,2.6321,2.6157,2.6043,2.5945,2.5758,2.5684,2.5684,2.6064,2.625,2.6287,2.6696,2.6975,4.6438,4.6994,4.74,4.6977,4.7268,4.7319,4.6056,4.5735,4.5662,4.5497,4.5356,4.5566,4.6429,4.702,4.7492,4.7922,4.9202,5.0275,5.0663,5.1344,5.1971,5.2345,5.2933,5.3189,5.2892,5.3581,5.4258,5.475,5.4912,5.5117,5.5383,5.5522,5.5681,5.588,5.5421,5.4874,5.4306,5.3422,5.2842,5.2532,5.1991,5.1416,5.0827,5.018,4.9476,4.8723,4.8895,0.0,4.7278,4.7131,4.6755,4.6163,4.5514,4.5025,4.4674,4.4311,4.397,4.3565,4.2949,4.2506,4.2166,4.2229,4.1763,4.1128,4.0483,3.9972,3.9462,3.8864,3.8647,3.8571,3.8474,3.8541,3.8516,3.8071,3.7659,3.7122,3.6152,3.5811,3.5243,3.3694,3.2886,3.2188,3.14,3.0693,3.0011,2.9305,2.8875,2.8501,2.8153,2.871,2.8891,2.8256,2.8082,2.7776,2.7154,2.6932,2.6724,2.6394,2.6372,2.6335,2.6191,2.5926,2.5831,2.6008,2.5664,2.5511,2.5511,2.59,2.6091,2.6091,2.6496,2.6738,4.709,4.7544,4.7831,4.69,4.7057,4.7123,4.5827,4.5426,4.5294,4.5257,4.5528,4.6043,4.6904,4.7641,4.8184,4.8445,4.9794,5.0795,5.0725,5.1759,5.261,5.2847,5.3138,5.3548,5.4183,5.4589,5.5083,5.5702,5.5574,5.5599,5.587,5.5695,5.5506,5.533,5.5017,5.482,5.4701,5.4258,5.38,5.3312,5.271,5.2153,5.1585,5.0417,4.9694,4.9305,4.8641,0.0,4.7195,4.667,4.624,4.5817,4.5147,4.4662,4.4311,4.3689,4.3251,4.2917,4.2518,4.1977,4.1518,4.1795,4.1442,4.0675,3.9525,3.9408,3.9444,3.8305,3.8519,3.8961,3.8388,3.8285,3.8037,3.7035,3.6539,3.6152,3.5684,3.4853,3.3723,3.2178,3.1789,3.1452,3.0684,2.9931,2.9387,2.9304,2.8684,2.8161,2.8115,2.8219,2.8259,2.8146,2.7566,2.7177,2.7032,2.6387,2.6084,2.6221,2.6217,2.6205,2.6109,2.6047,2.5884,2.5626,2.5549,2.5511,2.5511,2.59,2.6091,2.6091,2.6496,2.6857,4.7246,4.8014,4.8614,4.688,4.7059,4.7236,4.5698,4.526,4.5201,4.5201,4.5209,4.5622,4.6971,4.7399,4.7796,4.8492,4.9958,5.0919,5.074,5.1852,5.2779,5.2983,5.3496,5.402,5.4545,5.5026,5.5432,5.5775,5.5531,5.5506,5.578,5.5531,5.527,5.4991,5.4879,5.4711,5.4553,5.4086,5.3762,5.3489,5.2617,5.1965,5.1499,5.045,4.9627,4.8986,4.8434,0.0,4.6695,4.624,4.5726,4.5208,4.4539,4.4187,4.3958,4.3283,4.2822,4.2495,4.2157,4.1497,4.082,4.0982,4.0647,4.0072,3.9236,3.8916,3.8655,3.7854,3.7815,3.7949,3.7698,3.7334,3.693,3.6369,3.5529,3.474,3.4361,3.3425,3.2456,3.1713,3.1075,3.0478,2.9914,2.9336,2.8806,2.848,2.8108,2.7774,2.7543,2.7351,2.7306,2.7514,2.7202,2.6845,2.6392,2.6019,2.5859,2.5912,2.5932,2.5951,2.6033,2.6053,2.6012,2.5965,2.5972,2.5972,2.5972,2.6167,2.6244,2.6244,2.6464,2.6623,4.7319,4.83,4.9084,4.6985,4.7222,4.7492,4.5625,4.5238,4.5257,4.5201,4.498,4.5289,4.6909,4.7138,4.7448,4.843,4.9862,5.0812,5.071,5.1728,5.2649,5.315,5.3839,5.4455,5.4869,5.5379,5.5681,5.5681,5.5381,5.5295,5.5506,5.532,5.5067,5.4803,5.4737,5.4502,5.4123,5.3658,5.3331,5.3146,5.2221,5.1541,5.0989,5.0179,4.9299,4.8392,4.7967,4.7185,0.0,4.5757,4.5239,4.4644,4.4032,4.3721,4.3502,4.2905,4.2495,4.2134,4.1731,4.1003,4.0279,4.0203,3.9909,3.9507,3.8948,3.843,3.7919,3.741,3.7123,3.6935,3.6887,3.6413,3.5913,3.5606,3.4533,3.3416,3.2972,3.2052,3.1312,3.1143,3.0384,2.9585,2.9126,2.8769,2.8315,2.7565,2.7412,2.7194,2.6801,2.6465,2.6356,2.6589,2.6626,2.6363,2.5733,2.558,2.5598,2.5647,2.5592,2.5666,2.5948,2.5968,2.6002,2.6109,2.6228,2.6268,2.6268,2.6268,2.6307,2.6386,2.6307,2.6268,4.7576,4.8192,4.8535,4.7319,4.7609,4.7648,4.5662,4.5349,4.5423,4.5238,4.5312,4.5775,4.6986,4.7537,4.7988,4.8512,4.959,5.0429,5.067,5.1328,5.2296,5.3673,5.4098,5.4709,5.5766,5.5924,5.5954,5.5954,5.5481,5.5219,5.5244,5.5219,5.5067,5.4803,5.4487,5.4112,5.3594,5.3292,5.2734,5.195,5.1841,5.1211,5.0095,4.9486,4.8669,4.772,4.6857,4.624,0.0,4.5147,4.4662,4.4299,4.3927,4.3439,4.2854,4.2495,4.2134,4.1763,4.1121,4.0615,4.0236,3.9888,3.9528,3.9069,3.795,3.7887,3.7959,3.6823,3.6773,3.6927,3.6278,3.605,3.5675,3.4336,3.3381,3.2605,3.1912,3.1091,3.0302,2.9648,2.9363,2.9036,2.8335,2.8126,2.782,2.7173,2.6728,2.6349,2.5946,2.5873,2.5733,2.5417,2.538,2.5343,2.5269,2.4931,2.4951,2.5476,2.5165,2.523,2.5806,2.5832,2.5647,2.5209,2.5634,2.5872,2.5872,2.5872,2.603,2.6386,2.603,2.5872,4.8003,4.857,4.8887,4.7604,4.7654,4.7551,4.5792,4.5349,4.5294,4.522,4.5074,4.5384,4.6753,4.7173,4.7586,4.845,4.9795,5.0716,5.0694,5.1621,5.2763,5.3992,5.4371,5.4922,5.5891,5.6003,5.588,5.5531,5.532,5.5118,5.4966,5.4966,5.4824,5.4513,5.4215,5.38,5.3266,5.3001,5.2505,5.1787,5.1266,5.0656,4.9982,4.8999,4.813,4.7353,4.6618,4.5878,0.0,4.4693,4.4311,4.3958,4.3408,4.2905,4.2463,4.2114,4.1667,4.1121,4.0647,3.9812,3.8849,3.8502,3.7857,3.7233,3.7441,3.7511,3.73,3.608,3.6077,3.621,3.5264,3.4524,3.3754,3.2719,3.1868,3.1189,3.0674,2.9954,2.923,2.8691,2.82,2.7715,2.718,2.6852,2.6602,2.6333,2.6136,2.6046,2.6045,2.5628,2.5263,2.5164,2.4965,2.4747,2.4488,2.4112,2.4136,2.4745,2.4623,2.4804,2.5382,2.5362,2.5289,2.509,2.5289,2.5362,2.5362,2.5362,2.5441,2.56,2.5441,2.5362,4.7898,4.833,4.8634,4.7572,4.744,4.7205,4.5819,4.5248,4.5025,4.5173,4.4825,4.4922,4.6342,4.6803,4.7291,4.8168,4.965,5.0687,5.071,5.1682,5.2801,5.3889,5.4358,5.4854,5.5603,5.5808,5.5731,5.5345,5.5229,5.5067,5.4813,5.4711,5.4502,5.42,5.393,5.3527,5.2988,5.2627,5.21,5.1403,5.0683,5.0038,4.9442,4.8492,4.7645,4.6891,4.6258,4.5483,0.0,4.428,4.375,4.3091,4.2633,4.2089,4.1542,4.1099,4.0654,4.0142,3.9487,3.855,3.7573,3.7143,3.6438,3.5904,3.6685,3.678,3.6412,3.5341,3.5025,3.4834,3.4084,3.3068,3.207,3.1519,3.0705,2.9978,2.9589,2.8805,2.8093,2.768,2.7151,2.6654,2.6297,2.606,2.5868,2.5674,2.5582,2.5603,2.5667,2.5137,2.4781,2.4819,2.4522,2.4183,2.3866,2.3556,2.3611,2.4163,2.4036,2.418,2.4659,2.476,2.4725,2.4606,2.4813,2.4931,2.4931,2.4931,2.497,2.509,2.497,2.4851,4.7027,4.716,4.7367,4.7169,4.6951,4.6573,4.5709,4.4997,4.4645,4.5098,4.4674,4.4556,4.5687,4.6629,4.7294,4.7572,4.896,5.0182,5.0626,5.1282,5.211,5.317,5.3888,5.445,5.4871,5.5323,5.5606,5.5606,5.5355,5.5067,5.4813,5.4487,5.4175,5.3904,5.3632,5.3251,5.2707,5.2127,5.1376,5.0516,5.0179,4.9385,4.8214,4.785,4.7201,4.6283,4.5605,4.4939,0.0,4.3927,4.2958,4.1612,4.1612,4.091,3.9839,3.9193,3.8932,3.8712,3.7328,3.6815,3.6716,3.6109,3.5685,3.543,3.5505,3.5514,3.5377,3.4612,3.359,3.2736,3.2701,3.1868,3.0988,3.0935,3.0078,2.9169,2.8717,2.7782,2.691,2.6509,2.6347,2.6194,2.5849,2.6089,2.6045,2.5311,2.5107,2.4876,2.4462,2.4284,2.4227,2.4227,2.3835,2.354,2.3415,2.3408,2.3528,2.3889,2.3486,2.3338,2.3694,2.3967,2.388,2.3414,2.4117,2.4492,2.4492,2.4492,2.4691,2.509,2.4691,2.4252,4.7154,4.7425,4.7602,4.7532,4.726,4.6686,4.5441,4.4784,4.4459,4.4606,4.4278,4.4362,4.5824,4.6493,4.7018,4.7682,4.8919,5.0013,5.0611,5.1282,5.233,5.4052,5.4955,5.5573,5.5899,5.5719,5.5606,5.5606,5.5506,5.5164,5.4473,5.4355,5.4175,5.3904,5.3462,5.3054,5.2707,5.21,5.1376,5.0488,4.9742,4.897,4.8156,4.7185,4.6451,4.5908,4.5,4.4373,0.0,4.2988,4.2238,4.1535,4.0745,3.9929,3.914,3.8449,3.8231,3.8113,3.6956,3.6368,3.6059,3.536,3.4581,3.3919,3.3923,3.4327,3.4543,3.3521,3.2614,3.1833,3.1251,3.0488,2.9708,2.9113,2.8343,2.7647,2.7408,2.6883,2.6401,2.6214,2.5828,2.5344,2.4987,2.4576,2.4247,2.4014,2.393,2.3948,2.4065,2.3745,2.3529,2.3573,2.2963,2.274,2.309,2.3006,2.2905,2.2893,2.3026,2.3231,2.3465,2.3733,2.3839,2.368,2.3644,2.3766,2.4006,2.3766,2.3806,2.4206,2.4086,2.3926,4.6454,4.6787,4.6974,4.6922,4.6605,4.6017,4.4888,4.4115,4.3786,4.4304,4.3943,4.401,4.5525,4.6381,4.6984,4.7442,4.9027,5.0312,5.0657,5.1498,5.2744,5.4491,5.5088,5.567,5.6457,5.5979,5.5631,5.5731,5.5456,5.5012,5.4329,5.4097,5.3878,5.362,5.3186,5.2761,5.237,5.165,5.0934,5.0151,4.92,4.8421,4.7792,4.678,4.6029,4.5574,4.4681,0.0,0.0,4.2319,4.1433,4.056,3.9596,3.8713,3.7877,3.719,3.6834,3.652,3.5596,3.4978,3.4494,3.4094,3.3437,3.2744,3.2442,3.281,3.3173,3.229,3.1418,3.0567,2.9945,2.9202,2.8485,2.7802,2.7203,2.6669,2.6236,2.5873,2.5473,2.5144,2.4822,2.4511,2.4137,2.3798,2.3528,2.3427,2.3229,2.3173,2.3385,2.2997,2.2675,2.2719,2.2298,2.2093,2.229,2.2177,2.2042,2.1933,2.2174,2.2481,2.2763,2.2953,2.3103,2.3262,2.3065,2.3084,2.3365,2.3245,2.3325,2.3566,2.3566,2.3646,0.0,4.5489,4.5741,4.5654,4.5296,4.4778,4.4094,4.3184,0.0,4.4086,4.374,4.3615,4.497,4.6311,4.7138,4.6943,4.9151,5.0847,5.0725,5.1898,5.3245,5.4553,5.4511,5.5,5.6614,5.6077,5.5731,5.5954,5.527,5.4671,5.4329,5.3789,5.3357,5.3068,5.2787,5.2356,5.1744,5.0865,5.0084,4.9463,4.8489,4.7691,4.7018,4.6415,4.5766,0.0,4.4418,0.0,0.0,4.1695,4.0473,3.8953,3.8216,3.7288,3.6239,3.5552,3.4921,3.4335,3.364,3.3002,3.2494,3.2532,3.2287,3.1824,3.11,3.1179,3.1418,3.0966,3.0041,2.911,2.8663,2.8013,2.7377,2.6876,2.6497,2.6038,2.5204,2.4789,2.4336,2.3614,2.3618,2.3662,2.3403,2.3517,2.3555,2.3297,2.2797,2.2501,2.2501,2.2064,2.1745,2.1745,2.1706,2.1551,2.1168,2.1155,2.1137,2.1117,2.1123,2.1317,2.1711,2.1816,2.202,2.2364,2.2492,2.2545,2.2567,2.2964,2.3165,2.3165,2.3165,2.3365,4.4538,0.0,4.5325,4.5845,4.5184,4.4201,0.0,4.3388,4.3477,4.3808,4.3981,4.4358,4.5251,4.6406,4.7177,4.7138,4.8461,4.9812,5.0801,5.2387,5.3768,5.4614,5.4925,5.5433,5.6402,5.6151,5.5855,5.5706,5.5345,5.486,5.4329,5.3789,5.3278,5.2814,5.2289,5.1725,5.1125,5.0051,4.906,4.8212,4.705,4.6196,4.5561,4.471,4.397,4.3343,0.0,0.0,4.1153,4.0101,3.9134,3.8216,3.6925,3.6108,3.5521,3.4637,3.4465,3.4508,3.3572,3.3354,3.3301,3.2174,3.137,3.0657,2.9926,3.0176,3.048,2.9525,2.8835,2.815,2.7187,2.6823,2.6407,2.5389,2.5089,2.4858,2.4297,2.4115,2.4053,2.408,2.3732,2.3316,2.2945,2.2484,2.2069,2.1709,2.1525,2.1453,2.1453,2.1354,2.1275,2.1275,2.1004,2.0765,2.0651,2.111,2.1355,2.1195,2.1471,2.1755,2.2078,2.2109,2.2161,2.224,2.2281,2.2202,2.2078,2.2527,2.2723,2.2723,2.2723,2.2964,4.4548,4.4645,4.469,4.4853,4.4379,4.3648,4.2795,4.2979,4.3396,4.3658,4.4153,4.4742,4.5374,4.6501,4.7274,4.7099,4.8405,4.9899,5.1154,5.2442,5.3599,5.4583,5.4787,5.5241,5.629,5.6053,5.5755,5.5606,5.5088,5.4626,5.4329,5.3553,5.2986,5.2707,5.1841,5.111,5.0497,4.9487,4.8429,4.7355,4.6306,4.5495,4.4875,4.3902,4.3223,4.276,0.0,0.0,4.0167,3.9095,3.8117,3.7183,3.5913,3.5262,3.4871,3.3901,3.361,3.3615,3.2676,3.233,3.2027,3.0698,3.0108,2.9704,2.8779,2.8671,2.8735,2.8302,2.776,2.71,2.6122,2.5726,2.5329,2.4297,2.3927,2.3707,2.3386,2.3177,2.303,2.2985,2.2768,2.248,2.2026,2.1834,2.1594,2.1175,2.1012,2.0972,2.0972,2.0719,2.0578,2.0695,2.0406,2.0221,2.0221,2.0574,2.0757,2.0731,2.0941,2.1285,2.1727,2.1642,2.1669,2.1792,2.1569,2.1456,2.1424,2.1905,2.2145,2.2145,2.2229,2.2602,4.4642,4.4385,4.3969,4.3686,4.3541,4.325,4.2315,4.2678,4.3342,4.3771,4.4382,4.4971,4.5512,4.662,4.7364,4.7118,4.8789,5.0522,5.1601,5.2305,5.3199,5.4553,5.4488,5.4906,5.6259,5.5954,5.5631,5.5606,5.4779,5.4304,5.4304,5.329,5.2664,5.2564,5.1401,5.0436,4.9732,4.9005,4.7972,4.6617,4.5783,4.5027,4.426,4.3321,4.2673,4.221,0.0,0.0,3.9194,3.817,3.7122,3.6074,3.5067,3.4495,3.4149,3.3257,3.2761,3.2387,3.1528,3.0797,3.006,2.8962,2.8759,2.8758,2.7739,2.7056,2.6692,2.7049,2.6648,2.5953,2.5132,2.466,2.4223,2.3408,2.2992,2.2705,2.2483,2.218,2.1865,2.1521,2.1625,2.1569,2.1121,2.136,2.1463,2.0978,2.0787,2.0648,2.0648,2.0201,1.9924,2.0019,1.9973,1.9887,1.9811,1.9849,1.9989,2.0199,2.0215,2.0472,2.1096,2.094,2.0953,2.1203,2.0809,2.0696,2.085,2.1247,2.145,2.145,2.1706,2.2207,4.3994,4.3626,4.3409,4.3953,4.3783,4.341,4.3069,4.3876,4.466,4.4545,4.4984,4.5528,4.5997,4.6724,4.738,4.7785,4.9517,5.1107,5.185,5.2378,5.3199,5.4553,5.466,5.5088,5.6283,5.6127,5.5855,5.5606,5.4779,5.4304,5.4304,5.329,5.245,5.1866,5.0731,4.9594,4.8489,4.8406,4.7405,4.5457,4.4813,4.379,4.249,4.1816,4.089,3.9804,0.0,3.8593,3.7665,3.6661,3.5799,3.5046,3.4016,3.3459,3.3163,3.2799,3.2407,3.1933,3.0901,3.0072,2.931,2.8462,2.7795,2.7274,2.6721,2.5843,2.4968,2.5035,2.4961,2.4703,2.3883,2.363,2.337,2.2589,2.2497,2.2445,2.1725,2.1706,2.1817,2.1739,2.1602,2.1345,2.0933,2.0766,2.0573,2.0162,2.007,2.0054,2.0054,1.9946,1.9746,1.9405,1.9682,1.9736,1.9358,1.966,1.9989,2.0199,2.0215,2.0356,2.0672,2.0676,2.0674,2.0712,2.0642,2.062,2.0653,2.0731,2.0731,2.077,2.1117,2.1564,4.4008,4.3671,4.3476,4.3936,4.3751,4.3282,4.2635,4.3709,4.4788,4.4577,4.4961,4.5478,4.5964,4.6575,4.7503,4.8866,5.0377,5.1525,5.1933,5.2401,5.3199,5.4553,5.4574,5.493,5.6063,5.5954,5.5681,5.5406,5.4703,5.4304,5.4304,5.329,5.2393,5.1709,5.0577,4.9334,4.8002,4.7686,4.6592,4.4695,4.4104,4.3044,4.159,4.0959,4.0147,3.9238,0.0,3.7605,3.6787,3.5788,3.4859,3.3985,3.2965,3.253,3.2403,3.1924,3.1116,3.0201,2.9681,2.8979,2.8158,2.7172,2.6633,2.621,2.5366,2.4703,2.4149,2.3482,2.363,2.3816,2.3265,2.2924,2.2626,2.2072,2.1705,2.1446,2.1299,2.1218,2.1146,2.1146,2.1051,2.0819,2.0402,2.0331,2.0228,1.9941,2.0,2.0043,2.0043,1.9968,1.986,1.9765,1.9854,1.9806,1.9585,1.9547,1.9724,2.0161,2.0334,2.0491,2.0593,2.0441,2.0436,2.0599,2.0345,2.0281,2.0371,2.0371,2.0371,2.0377,2.0734,2.1218,4.408,4.3805,4.3549,4.3598,4.3622,4.3441,4.2726,4.3758,4.4829,4.4629,4.501,4.5525,4.6044,4.6911,4.8145,4.9946,5.1049,5.1832,5.2212,5.2493,5.3199,5.4553,5.4527,5.4835,5.599,5.578,5.5481,5.5219,5.4575,5.42,5.42,5.3093,5.2152,5.1416,5.0201,4.8882,4.7386,4.6714,4.5653,4.4179,4.3659,4.254,4.0942,4.038,3.9638,3.8793,3.7736,3.6818,3.5982,3.5036,3.4076,3.3088,3.2143,3.1658,3.1432,3.0729,2.9784,2.8742,2.8411,2.7913,2.718,2.5946,2.5506,2.5286,2.4075,2.3667,2.337,2.2365,2.2439,2.2812,2.2558,2.2221,2.1842,2.151,2.0981,2.0635,2.0902,2.0756,2.0604,2.0604,2.0556,2.0405,2.0038,2.0043,2.0064,1.9914,1.9929,1.9976,1.9976,1.974,1.9654,1.9807,1.9767,1.9736,1.9736,1.932,1.9285,1.9774,2.0219,2.0459,2.0518,2.0312,2.0301,2.0518,2.0157,2.0032,2.0129,2.0129,2.0129,2.0134,2.0428,2.0897,4.3904,4.3626,4.3298,4.2808,4.3509,4.4371,4.446,4.4987,4.5387,4.5179,4.5506,4.604,4.6702,4.8291,4.9818,5.0772,5.1358,5.2017,5.2894,5.2839,5.3199,5.4553,5.4683,5.5127,5.6259,5.5904,5.5481,5.5219,5.441,5.393,5.393,5.2555,5.1375,5.0526,4.9088,4.7611,4.614,4.5286,4.4515,4.3837,4.3548,4.2311,4.0252,3.996,3.8978,3.7495,3.7121,3.6207,3.4953,3.4267,3.3429,3.2497,3.1718,3.0868,2.995,2.9235,2.8871,2.8644,2.7518,2.71,2.6772,2.5189,2.471,2.4445,2.3259,2.2626,2.2215,2.1767,2.1473,2.1253,2.1253,2.1216,2.1066,2.0673,2.0662,2.0692,2.0347,2.0448,2.0604,2.0604,2.0387,2.0231,2.0194,2.0054,1.9903,1.9887,1.952,1.927,1.927,1.8919,1.8691,1.8706,1.9033,1.9244,1.9244,1.8871,1.8653,1.8706,1.9476,2.0038,2.0231,2.0221,2.0221,2.0242,2.0204,2.0086,1.9908,1.9908,1.9908,1.9946,2.0302,2.0535,4.3875,4.3896,4.3977,4.3816,4.4243,4.4592,4.412,4.4909,4.5737,4.5658,4.6013,4.6537,4.7216,4.8974,5.0475,5.0927,5.1743,5.2443,5.2795,5.2992,5.3361,5.4177,5.4611,5.5101,5.5838,5.5731,5.5481,5.5219,5.4209,5.359,5.359,5.1857,5.0552,4.981,4.8427,4.7079,4.5755,4.4682,4.3685,4.274,4.2428,4.1444,3.9931,3.9215,3.8324,3.7344,3.6146,3.5253,3.4485,3.3187,3.2209,3.138,2.9972,2.8915,2.8175,2.7867,2.7461,2.6939,2.6134,2.5601,2.5041,2.3704,2.3117,2.2792,2.2085,2.1686,2.136,2.0673,2.0372,2.0339,2.0597,2.0484,2.0183,1.9806,1.9762,1.9755,1.9486,1.9734,1.9985,1.9985,1.9916,1.9887,1.9973,1.9946,1.9811,1.9509,1.932,1.9093,1.8871,1.8681,1.861,1.861,1.8757,1.8714,1.8481,1.8752,1.8752,1.8258,1.9017,1.94,1.9227,1.9723,1.987,1.9565,1.987,1.9979,1.9887,1.9887,1.9887,1.9887,2.007,2.0259,4.3758,4.4006,4.4359,4.4379,4.4773,4.5027,4.4523,4.5136,4.5882,4.6063,4.6533,4.7107,4.7722,4.9408,5.0725,5.078,5.185,5.2646,5.2488,5.3025,5.3483,5.3658,5.4487,5.5065,5.516,5.509,5.489,5.4527,5.3474,5.2802,5.2726,5.1147,4.9909,4.916,4.7927,4.6623,4.5328,4.4206,4.3103,4.1935,4.1308,4.0472,3.9462,3.8563,3.7725,3.6859,3.5479,3.4485,3.366,3.2297,3.1078,2.9905,2.8461,2.7447,2.6796,2.6404,2.5919,2.5411,2.4776,2.4202,2.3566,2.2535,2.1867,2.142,2.091,2.0637,2.0345,1.9622,1.9428,1.9466,1.9606,1.9536,1.9353,1.9093,1.9017,1.8988,1.8873,1.9096,1.9282,1.9282,1.9282,1.9312,1.946,1.9471,1.9396,1.9055,1.8903,1.8714,1.8453,1.8301,1.8263,1.8415,1.8415,1.8296,1.8025,1.8519,1.8595,1.8025,1.8747,1.9093,1.8795,1.9509,1.973,1.9433,1.9736,1.9887,1.9887,1.9887,1.9887,1.9887,1.9887,2.0032,4.3567,4.3794,4.4218,4.4212,4.4964,4.5788,4.6141,4.5912,4.5807,4.648,4.7157,4.7758,4.8206,4.961,5.0617,5.0347,5.1651,5.2533,5.2071,5.2979,5.3523,5.3059,5.4357,5.5019,5.4266,5.3953,5.3577,5.3023,5.2129,5.1472,5.1203,5.0348,4.9496,4.8614,4.7488,4.6179,4.4695,4.3835,4.2768,4.1566,4.0356,3.9432,3.8771,3.8167,3.7143,3.586,3.517,3.3923,3.2342,3.1658,3.0106,2.8122,2.7449,2.6728,2.5944,2.4812,2.4379,2.4282,2.3457,2.295,2.2563,2.1738,2.1122,2.0518,1.9716,1.9361,1.9093,1.8681,1.8605,1.8491,1.8101,1.8296,1.8567,1.8605,1.8605,1.8605,1.8605,1.8605,1.8605,1.8605,1.8605,1.861,1.861,1.861,1.861,1.8605,1.8258,1.7987,1.7987,1.765,1.7535,1.7949,1.7987,1.7987,1.7987,1.7987,1.7987,1.7987,1.8747,1.9206,1.9206,1.966,1.9887,1.9881,1.9887,1.9887,1.9887,1.9887,1.9887,1.9887,1.9887,1.9887,4.4041,4.4327,4.4626,4.49,4.5274,4.5801,4.6696,4.7095,4.7435,4.7901,4.805,4.8182,4.8449,4.9716,5.0617,5.0347,5.1651,5.2533,5.2071,5.306,5.3545,5.2814,5.4204,5.4705,5.3332,5.356,5.346,5.2637,5.1745,5.1206,5.1131,4.9534,4.8435,4.7987,4.668,4.5368,4.4097,4.3199,4.2049,4.06,3.935,3.8641,3.8403,3.7352,3.6078,3.4707,3.3322,3.2158,3.1137,2.9488,2.813,2.6959,2.5775,2.4982,2.4456,2.3603,2.3265,2.3165,2.2319,2.1639,2.1042,2.0418,1.9728,1.9121,1.9038,1.8686,1.8253,1.7883,1.7535,1.7302,1.7188,1.7226,1.7421,1.7693,1.7769,1.7769,1.7769,1.7992,1.8182,1.8182,1.8182,1.8258,1.8529,1.861,1.8491,1.822,1.8063,1.7911,1.7612,1.7464,1.7464,1.7574,1.7574,1.7574,1.7574,1.7835,1.7873,1.7612,1.8339,1.8795,1.8795,1.9509,1.973,1.9396,1.9736,1.9887,1.9887,1.9887,1.9887,1.9887,1.9887,1.9887,4.409,4.4415,4.4684,4.4998,4.5667,4.657,4.7672,4.8086,4.8286,4.846,4.8683,4.8846,4.8873,5.0015,5.0848,5.0606,5.1611,5.2284,5.1918,5.289,5.3292,5.2327,5.3694,5.4105,5.254,5.2709,5.2595,5.191,5.0949,5.0352,5.0239,4.8855,4.7875,4.7403,4.6218,4.5006,4.381,4.2837,4.1623,4.0194,3.8714,3.7784,3.7278,3.6254,3.5211,3.4011,3.1649,3.0045,2.9043,2.7491,2.644,2.5698,2.4513,2.3747,2.3153,2.2298,2.1846,2.162,2.0799,2.0143,1.9575,1.9126,1.8408,1.7729,1.7923,1.7615,1.7118,1.6983,1.6739,1.6543,1.6543,1.6429,1.6462,1.704,1.7273,1.735,1.7192,1.734,1.7531,1.7531,1.7378,1.7345,1.7616,1.7764,1.7802,1.7569,1.7645,1.7688,1.7426,1.7388,1.7388,1.7388,1.7388,1.7388,1.7388,1.7764,1.7911,1.765,1.8225,1.861,1.861,1.9093,1.9244,1.8984,1.9244,1.9396,1.9396,1.9547,1.9622,1.9622,1.9806,1.9811,4.3808,4.4172,4.4532,4.4763,4.6163,4.7731,4.8654,4.8733,4.8557,4.837,4.9021,4.9575,4.9338,5.0374,5.1201,5.0985,5.1539,5.1918,5.1634,5.2541,5.2824,5.1732,5.2967,5.3305,5.1842,5.1536,5.1283,5.089,4.9884,4.9182,4.8895,4.8344,4.7685,4.6899,4.6007,4.4938,4.3727,4.2578,4.1322,3.9995,3.8263,3.6795,3.5586,3.5015,3.4262,3.3236,2.998,2.7803,2.6511,2.577,2.5051,2.4366,2.3528,2.2756,2.2035,2.0977,2.0353,1.9907,1.9198,1.8679,1.8263,1.7928,1.7181,1.6487,1.6668,1.6299,1.588,1.6064,1.6088,1.6067,1.6101,1.5842,1.5774,1.6539,1.6963,1.7159,1.6811,1.6768,1.6768,1.6768,1.6433,1.6208,1.6208,1.6505,1.6768,1.6806,1.7116,1.735,1.7388,1.7388,1.7388,1.7388,1.7388,1.7388,1.7388,1.7726,1.7949,1.7949,1.8296,1.8453,1.8453,1.8529,1.861,1.861,1.861,1.861,1.861,1.8984,1.9169,1.9169,1.9585,1.9547,4.3489,4.4008,4.4524,4.5555,4.6541,4.7376,4.7812,4.8255,4.8599,4.8542,4.8873,4.9169,4.9277,5.0266,5.0985,5.0721,5.1432,5.1918,5.1634,5.2269,5.2458,5.1686,5.2453,5.2474,5.093,5.1028,5.0773,4.9748,4.9441,4.9182,4.8895,4.799,4.7274,4.6846,4.5582,4.4341,4.3184,4.1774,4.0232,0.0,3.6987,3.55,3.4057,3.3679,3.2116,2.9621,2.758,2.622,2.5375,2.4633,2.3956,2.3224,2.2097,2.1421,2.0943,2.0139,1.9581,1.9168,1.8679,1.8082,1.7515,1.7337,1.6704,1.6058,1.626,1.5835,1.5286,1.5328,1.5186,1.5106,1.54,1.5548,1.5624,1.5816,1.5931,1.6046,1.628,1.6318,1.6318,1.6318,1.6242,1.6208,1.6208,1.6284,1.6429,1.6768,1.6883,1.704,1.735,1.7388,1.7388,1.7388,1.7388,1.7388,1.7388,1.7464,1.754,1.754,1.7616,1.754,1.7188,1.8111,1.861,1.861,1.861,1.861,1.861,1.8681,1.8719,1.8719,1.8833,1.8833,4.3266,4.381,4.4509,4.621,4.7009,4.749,4.7861,4.8208,4.8432,4.8328,4.9011,4.9641,4.962,5.0538,5.125,5.1098,5.1384,5.1625,5.161,5.1889,5.1979,5.1656,5.1875,5.1667,5.0721,5.0621,5.0315,4.9541,4.9256,4.8945,4.8545,4.7622,4.6847,4.6244,4.4939,4.3597,4.2211,4.0841,3.9294,3.7487,3.5772,3.3692,3.1345,3.143,3.0104,2.7595,2.6105,2.5038,2.4317,2.3397,2.2758,2.2317,2.1349,2.0625,2.0063,1.9506,1.8947,1.8428,1.8012,1.7379,1.6728,1.6484,1.5874,1.5268,1.5417,1.4993,1.4481,1.451,1.4556,1.457,1.4615,1.4958,1.5293,1.5205,1.5523,1.5897,1.5897,1.5897,1.5897,1.5897,1.5778,1.5624,1.5624,1.5782,1.6046,1.6467,1.6505,1.6582,1.6815,1.6815,1.6892,1.7078,1.7116,1.7192,1.7388,1.7388,1.7312,1.7116,1.7116,1.7035,1.6806,1.7383,1.7678,1.7619,1.7766,1.7825,1.7727,1.7946,1.8081,1.8185,1.8368,1.831,4.288,4.3722,4.4689,4.6566,4.7264,4.7583,4.8028,4.8231,4.8223,4.7986,4.9135,5.0129,4.9976,5.0812,5.1541,5.1541,5.1331,5.1284,5.1494,5.1541,5.1541,5.1541,5.1261,5.0979,5.0775,5.0313,4.9902,4.9585,4.9143,4.8645,4.8052,4.7248,4.6401,4.5475,4.4254,4.2798,4.117,3.989,3.8312,3.6474,3.4071,3.1413,2.8619,2.8821,2.8024,2.6451,2.5101,2.4071,2.3244,2.2136,2.1548,2.1326,2.061,1.99,1.9235,1.8931,1.8352,1.765,1.7303,1.6709,1.6037,1.5713,1.5039,1.4433,1.4544,1.4115,1.365,1.3676,1.3945,1.4086,1.3833,1.4275,1.4798,1.4629,1.524,1.582,1.5548,1.5509,1.5509,1.5509,1.5237,1.5002,1.5002,1.5275,1.5624,1.605,1.6093,1.6127,1.6208,1.6208,1.6318,1.6658,1.6692,1.6844,1.7269,1.7312,1.7192,1.6921,1.6883,1.6883,1.6806,1.6806,1.6659,1.6357,1.6829,1.7005,1.6802,1.7128,1.7367,1.7547,1.7798,1.7672,4.2013,4.3749,4.5468,4.615,4.6668,4.7055,4.7364,4.7873,4.8197,4.773,4.8744,4.9702,4.9658,5.0538,5.1261,5.1261,5.1214,5.1214,5.1238,5.1261,5.1261,5.1261,5.0852,5.0581,5.0534,5.0062,4.9561,4.9044,4.8945,4.8545,4.7775,4.6937,4.5949,4.4849,4.3469,4.2078,4.0616,3.9008,3.7082,3.4867,3.0922,2.852,2.7481,2.627,2.5742,2.5674,2.4324,2.3203,2.2226,2.1141,2.0342,1.9753,1.9106,1.8637,1.8275,1.8103,1.7545,1.6835,1.6805,1.631,1.5678,1.5607,1.4861,1.3979,1.4,1.3487,1.2928,1.2928,1.3063,1.3165,1.312,1.3651,1.4164,1.4029,1.4312,1.4707,1.5006,1.5083,1.5083,1.5083,1.5041,1.5002,1.5002,1.5041,1.5237,1.5624,1.5663,1.582,1.617,1.6208,1.6203,1.6284,1.628,1.6429,1.6844,1.6883,1.7002,1.7312,1.7312,1.7154,1.6806,1.6806,1.6444,1.575,1.6642,1.7005,1.6802,1.6839,1.689,1.6918,1.6619,1.6444,4.2389,4.4047,4.5413,4.5764,4.6569,4.7234,4.6975,4.7526,4.8007,4.7531,4.8211,4.8976,4.9374,5.0101,5.0772,5.1131,5.1191,5.1191,5.1191,5.1191,5.1144,5.0988,5.0686,5.0366,5.0086,4.9683,4.9242,4.872,4.8368,4.7836,4.702,4.5973,4.4877,4.3782,4.2395,4.0769,3.8941,3.7228,3.4687,3.1271,2.8738,2.6814,2.5477,2.4502,2.4205,2.4406,2.3274,2.2265,2.1388,2.0125,1.9286,1.8744,1.8091,1.7675,1.7458,1.7151,1.6777,1.6386,1.6169,1.5607,1.4933,1.4719,1.415,1.3539,1.3325,1.2964,1.2547,1.2463,1.2656,1.2772,1.2594,1.3114,1.3618,1.3443,1.3595,1.3911,1.4379,1.4593,1.4713,1.4804,1.4937,1.4974,1.4838,1.4941,1.5012,1.5104,1.5175,1.528,1.5333,1.5446,1.5624,1.5859,1.5859,1.6012,1.6429,1.6467,1.6429,1.639,1.6586,1.6662,1.6467,1.6467,1.6284,1.5923,1.6147,1.6223,1.6128,1.5912,1.5976,1.6304,1.5931,1.5701,4.2844,4.4129,4.4999,4.5272,4.6342,4.716,4.6509,4.7195,4.7858,4.7396,4.7698,4.8259,4.8917,4.9688,5.0405,5.1086,5.1191,5.1167,5.112,5.1097,5.1003,5.0751,5.0519,5.0222,4.9756,4.9477,4.9083,4.8545,4.7939,4.7253,4.6441,4.5267,4.405,4.2827,4.131,3.9486,3.7399,3.4896,3.1875,2.8295,2.6755,2.517,2.3578,2.2866,2.2543,2.2487,2.1934,2.1244,2.0399,1.9102,1.8263,1.7773,1.7197,1.6782,1.649,1.6176,1.5886,1.5567,1.5119,1.454,1.3946,1.3563,1.3146,1.2678,1.2427,1.2153,1.1897,1.1791,1.1958,1.2078,1.1818,1.2357,1.2893,1.2689,1.2919,1.3301,1.3838,1.4202,1.4429,1.4514,1.4698,1.4835,1.4737,1.485,1.4945,1.4732,1.4818,1.4838,1.4663,1.4749,1.4944,1.5252,1.5336,1.5519,1.5938,1.6024,1.5974,1.5778,1.6012,1.6208,1.6208,1.6093,1.6003,1.5953,1.5535,1.5357,1.5465,1.5155,1.523,1.566,1.5335,1.5084,4.2934,4.3769,4.4252,4.4577,4.5669,4.649,4.5793,4.6862,4.7858,4.7396,4.7339,4.7563,4.8244,4.9351,5.0405,5.1086,5.1191,5.112,5.0855,5.0831,5.0751,5.0534,5.0294,5.0014,4.9732,4.9477,4.9083,4.8545,4.7939,4.7253,4.6441,4.5267,4.3887,4.2277,4.0387,3.8439,3.6475,3.1955,2.8881,2.7262,2.4771,2.3114,2.2167,2.1249,2.034,1.9585,2.0353,2.0109,1.9098,1.8007,1.719,1.6589,1.6412,1.5934,1.529,1.5188,1.4721,1.4027,1.344,1.2971,1.2576,1.2376,1.1746,1.1136,1.11,1.0854,1.0609,1.0599,1.0609,1.0618,1.0603,1.1289,1.1916,1.1722,1.2209,1.289,1.3419,1.4007,1.4352,1.4173,1.4282,1.4502,1.4665,1.485,1.4945,1.4732,1.4716,1.4655,1.4431,1.4415,1.4423,1.446,1.4615,1.4905,1.5311,1.5519,1.5782,1.617,1.6208,1.6208,1.6208,1.5816,1.5527,1.5361,1.4778,1.466,1.5012,1.5017,1.5021,1.503,1.4709,1.4531,4.2287,4.3097,4.3536,4.3831,4.4941,4.5947,4.5875,4.6648,4.7395,4.7463,4.7236,4.7292,4.814,4.8671,4.9344,5.0398,5.0461,5.0456,5.0748,5.0695,5.0519,5.027,5.0014,4.9659,4.9242,4.8945,4.84,4.7491,4.6841,4.6051,4.5032,4.353,4.2186,4.115,3.8881,3.601,3.2521,2.9369,2.6865,2.5061,2.3163,2.168,2.0579,1.965,1.8811,1.8075,1.8086,1.7855,1.7438,1.6534,1.5634,1.48,1.4547,1.4055,1.3537,1.3503,1.316,1.2685,1.2365,1.2103,1.1835,1.1186,1.0986,1.092,1.0452,1.0203,1.0167,1.0419,1.0311,1.0167,1.0419,1.0745,1.1023,1.1191,1.1696,1.2223,1.2386,1.3088,1.3642,1.354,1.3699,1.3797,1.3746,1.425,1.4531,1.4237,1.4481,1.4643,1.4419,1.4395,1.4395,1.4395,1.4452,1.4616,1.488,1.4843,1.4989,1.5416,1.5544,1.5687,1.5812,1.5663,1.5493,1.5303,1.4708,1.453,1.4828,1.4458,1.4462,1.4792,1.4476,1.4357,4.1909,4.2737,4.3145,4.335,4.4473,4.5557,4.5728,4.6176,4.673,4.7372,4.7028,4.6878,4.7789,4.7887,4.8261,4.9551,4.966,4.9721,5.018,4.9931,4.9697,4.9639,4.9209,4.874,4.8315,4.8045,4.7539,4.6699,4.6003,0.0,4.4386,4.2591,4.0728,3.8811,3.6528,3.3427,2.9361,2.7097,2.5004,2.3078,2.1677,2.0342,1.9136,1.8321,1.7516,1.6746,1.6197,1.6007,1.6049,1.535,1.4525,1.3678,1.3214,1.2731,1.2313,1.2094,1.1774,1.1393,1.0971,1.0795,1.0617,0.9785,0.9736,0.9948,0.9446,0.9304,0.9377,0.9771,0.9699,0.959,0.9987,1.0203,1.0383,1.075,1.1145,1.1428,1.1355,1.2286,1.307,1.2992,1.3154,1.3288,1.3208,1.3706,1.3984,1.3699,1.3927,1.4072,1.3953,1.3996,1.403,1.403,1.42,1.442,1.4561,1.452,1.4627,1.4866,1.5088,1.5232,1.5303,1.5361,1.5303,1.5115,1.4633,1.4453,1.4531,1.4097,1.4068,1.4436,1.4191,1.4209,0.0,0.0,0.0,4.3137,4.4201,4.5239,4.528,4.5481,4.597,4.7044,4.6599,4.6253,4.7116,4.7084,4.731,4.8632,4.8855,4.8909,4.9054,4.855,4.8311,4.8624,4.7907,4.7281,4.7029,4.6818,4.6581,4.6265,4.5476,4.4872,4.4574,4.2623,3.9594,3.5379,3.3408,3.0795,2.7386,2.5172,2.3184,2.1448,2.0288,1.9087,1.7864,1.7214,1.6432,1.5512,1.4781,1.4693,1.4976,1.454,1.3936,1.3251,1.252,1.2033,1.1633,1.1045,1.063,1.0181,0.9219,0.8957,0.8948,0.8206,0.8028,0.808,0.808,0.808,0.8189,0.8584,0.8693,0.8765,0.9196,0.959,0.9987,1.0383,1.0491,1.0491,1.0491,1.162,1.2609,1.2575,1.2692,1.29,1.3126,1.3304,1.3393,1.3196,1.3074,1.3003,1.3003,1.3182,1.3289,1.3289,1.381,1.4209,1.4342,1.4557,1.4666,1.4678,1.4866,1.4883,1.4687,1.4875,1.4883,1.4674,1.4488,1.431,1.4176,1.3993,1.3904,1.3908,1.3912,1.4103,4.1253,0.0,0.0,0.0,0.0,0.0,4.4465,4.4744,4.5172,4.6171,4.6169,4.6119,4.6497,4.6749,4.6969,4.72,4.7598,4.8031,4.8415,4.8132,4.7948,4.8052,4.7491,4.7091,4.7005,4.6639,4.6048,0.0,4.4858,4.4325,4.3426,4.0967,3.7906,3.4258,3.1947,2.9285,2.6189,2.399,2.2098,2.0537,1.8947,1.7913,1.7282,1.6199,1.5327,1.4627,1.4047,1.3522,1.3088,1.3079,1.2449,1.1442,1.1211,1.0449,0.9501,0.9667,0.9228,0.8519,0.8481,0.8411,0.8237,0.7409,0.7563,0.8008,0.7462,0.7496,0.7858,0.8509,0.8476,0.844,0.9124,0.9377,0.9557,0.9987,1.0059,1.0167,1.0455,1.0803,1.1219,1.158,1.1485,1.1424,1.1757,1.1945,1.2104,1.225,1.2447,1.2674,1.2966,1.2965,1.2932,1.2932,1.3159,1.3403,1.3534,1.3592,1.3721,1.3965,1.3942,1.3934,1.3976,1.4022,1.4007,1.3835,1.3633,1.3466,1.3335,1.3702,1.3969,1.4103,1.4229,1.4302,0.0,0.0,0.0,4.1593,0.0,0.0,4.3913,4.4045,4.4409,4.5581,4.5696,4.5733,4.6213,4.663,4.6851,4.6734,4.6712,4.6932,4.7514,4.725,4.7108,4.7346,4.6686,4.6209,4.6209,4.567,4.505,4.44,4.3836,4.2883,4.1385,3.9283,3.6635,3.3339,3.0833,2.8016,2.4903,2.2819,2.1002,1.9444,1.8151,1.7202,1.6525,1.5504,1.4684,1.4024,1.3209,1.2545,1.2028,1.1712,1.1243,1.0654,1.0054,0.9319,0.86,0.8621,0.829,0.7792,0.7816,0.7759,0.7548,0.6948,0.7029,0.7391,0.7278,0.7315,0.7496,0.8259,0.8403,0.8476,0.8943,0.916,0.9377,0.959,0.9663,0.9699,0.9951,0.9987,1.0206,1.0925,1.0844,1.077,1.1027,1.1097,1.1233,1.137,1.1636,1.1947,1.2265,1.2428,1.2545,1.2545,1.277,1.2969,1.31,1.3115,1.3193,1.3382,1.3409,1.3405,1.3393,1.3502,1.3461,1.329,1.3196,1.2956,1.2681,1.3196,1.3559,1.3846,1.3905,1.4033,0.0,0.0,0.0,0.0,4.2032,0.0,4.3285,4.3312,4.3613,4.5006,4.5095,4.5165,4.5929,4.6407,4.6687,4.6665,4.5966,4.5742,4.6515,4.6142,4.5945,4.6378,4.5577,4.4927,4.4832,4.4209,4.3779,4.3732,4.2502,4.0955,3.9078,3.7691,3.556,3.2488,2.9845,2.6883,2.3543,2.1637,1.9894,1.8252,1.7599,1.6732,1.5676,1.4959,1.4289,1.363,1.2346,1.171,1.1514,1.0495,1.0291,1.0455,0.912,0.8554,0.8403,0.7839,0.7633,0.7562,0.7222,0.6978,0.6793,0.6589,0.6466,0.6509,0.7238,0.7278,0.7208,0.7899,0.8367,0.8657,0.8693,0.8979,0.9232,0.9304,0.9304,0.9304,0.9304,0.9304,0.9552,1.0395,1.0529,1.0565,1.0602,1.0562,1.0565,1.0602,1.0759,1.0977,1.1172,1.1697,1.2086,1.2086,1.2417,1.2698,1.2809,1.2765,1.2776,1.2776,1.2915,1.2967,1.278,1.2956,1.2956,1.2751,1.2729,1.2503,1.1997,1.2466,1.2824,1.3182,1.3182,1.3348,0.0,0.0,0.0,0.0,0.0,0.0,4.1419,4.2149,4.2844,4.3188,4.3878,4.448,4.4655,4.5057,4.5293,4.5088,4.4771,4.4805,4.5478,4.5161,4.4686,4.4267,4.4124,4.3783,4.3158,4.2772,4.2393,4.2021,4.0962,3.9666,3.8218,3.6515,3.4185,3.1101,2.8458,2.5572,2.2433,2.0496,1.8789,1.7333,1.6353,1.56,1.5044,1.3999,1.3341,1.3,1.1732,1.1077,1.0813,0.9825,0.9608,0.9794,0.8956,0.8223,0.7672,0.7333,0.687,0.6423,0.6479,0.6224,0.5836,0.5578,0.5873,0.6359,0.6566,0.702,0.7568,0.7969,0.8152,0.8297,0.862,0.8765,0.8907,0.9232,0.9304,0.9304,0.9304,0.9304,0.9346,0.9552,0.9554,0.9666,0.9989,0.9772,0.9666,1.0025,1.0077,1.0251,1.06,1.0982,1.1224,1.1224,1.1467,1.1617,1.1647,1.1427,1.1309,1.1309,1.1335,1.1338,1.1313,1.1335,1.1284,1.114,1.1022,1.0949,1.0812,1.1495,1.2033,1.2391,1.2391,1.2607,0.0,0.0,0.0,3.9362,0.0,0.0,0.0,4.1437,4.2183,4.2331,4.2885,4.3364,4.3364,4.397,4.435,4.3927,4.3837,4.3708,4.3267,4.3719,4.3927,4.3501,4.3302,4.3029,4.2635,4.2023,4.1169,3.9981,3.928,3.8266,3.6767,3.4996,3.2782,3.0149,2.7514,2.4643,2.1532,1.9705,1.8077,1.6677,1.5727,1.5008,1.4525,1.3467,1.2805,1.2438,1.1329,1.0695,1.0404,0.9538,0.9184,0.9092,0.8323,0.7624,0.6996,0.6842,0.6377,0.5841,0.6017,0.578,0.5364,0.5333,0.5545,0.5832,0.6227,0.6807,0.7351,0.7498,0.7679,0.7894,0.8111,0.8256,0.844,0.8657,0.8693,0.8693,0.8693,0.8693,0.8765,0.8943,0.8837,0.8837,0.9232,0.8979,0.8765,0.8979,0.9341,0.9663,0.9879,1.0534,1.0933,1.0786,1.0993,1.1071,1.092,1.0767,1.0623,1.0403,1.0587,1.0513,1.0112,1.0293,1.0263,1.0014,0.9733,0.959,0.959,0.9771,1.0452,1.1606,1.1722,1.1971,0.0,0.0,0.0,0.0,0.0,3.969,0.0,0.0,0.0,4.1642,4.1995,4.2254,4.2216,4.2847,4.3217,4.2738,4.2716,4.2304,4.0978,4.1959,4.2725,4.2495,4.2186,4.197,4.1881,4.1045,3.9818,3.817,3.7653,3.6744,3.527,3.341,3.136,2.9185,2.6546,2.372,2.0672,1.8987,1.743,1.6031,1.5235,1.4538,1.3968,1.3012,1.2364,1.1995,1.0977,1.0359,1.0014,0.9367,0.881,0.8291,0.7717,0.7092,0.6487,0.642,0.5959,0.5396,0.5617,0.5367,0.5003,0.5232,0.5312,0.5452,0.6132,0.6634,0.6966,0.6984,0.7157,0.7399,0.7562,0.7749,0.7935,0.808,0.8116,0.8116,0.8116,0.8116,0.8186,0.8512,0.8259,0.815,0.862,0.837,0.8116,0.8116,0.8729,0.9196,0.9196,1.0137,1.0678,1.0419,1.057,1.057,1.0275,1.0131,0.9915,0.959,0.9843,0.9735,0.9088,0.9377,0.941,0.9088,0.8763,0.8584,0.8584,0.828,0.9,1.0675,1.0927,1.1246,0.0,0.0,0.0,0.0,3.8007,0.0,0.0,0.0,4.0265,4.0526,0.0,4.1727,4.1561,0.0,0.0,4.1071,4.0729,4.028,3.9771,3.9862,3.9808,3.9448,3.9655,3.9694,3.9265,3.8744,3.8096,3.7206,3.6179,3.515,3.413,3.2035,2.989,2.7795,2.5014,2.2328,1.9782,1.81,1.6532,1.5148,1.4574,1.395,1.3283,1.2215,1.1809,1.1837,1.048,0.9791,0.9524,0.8981,0.8245,0.7459,0.7488,0.7092,0.6453,0.6115,0.5517,0.4893,0.4981,0.4732,0.4421,0.4645,0.5172,0.5813,0.6246,0.6635,0.6922,0.6966,0.6717,0.664,0.7399,0.7351,0.728,0.7933,0.8116,0.8116,0.8116,0.8116,0.8116,0.8152,0.7894,0.7894,0.8582,0.837,0.8116,0.8116,0.8476,0.8765,0.8765,0.9521,1.0023,0.9987,0.9699,0.9485,0.9449,0.8801,0.8367,0.8297,0.8331,0.8331,0.8225,0.8295,0.8297,0.8225,0.8186,0.8152,0.8152,0.824,0.8711,0.9488,0.9663,1.0087,0.0,0.0,0.0,0.0,0.0,0.0,3.8296,0.0,3.9427,0.0,0.0,0.0,0.0,0.0,0.0,0.0,3.9053,3.8606,3.7453,3.7644,3.8058,3.8604,3.87,3.8447,3.7709,3.7356,3.6664,3.5396,3.4513,3.3458,3.2182,3.0336,2.8354,2.6172,2.3727,2.1189,1.8654,1.7128,1.5773,1.4519,1.3792,1.3192,1.2701,1.174,1.1264,1.1159,1.0218,0.945,0.8903,0.8563,0.7753,0.6718,0.6852,0.6487,0.585,0.588,0.531,0.4511,0.4538,0.4428,0.4331,0.4474,0.4785,0.5135,0.5569,0.5781,0.5903,0.6113,0.6204,0.634,0.6745,0.6911,0.7018,0.7341,0.7413,0.7413,0.7413,0.7413,0.7502,0.7774,0.7496,0.7423,0.7967,0.7713,0.7462,0.7462,0.7822,0.8075,0.8075,0.8724,0.9049,0.8615,0.8577,0.8432,0.8003,0.7858,0.7715,0.7462,0.7462,0.757,0.7786,0.757,0.7462,0.7462,0.7462,0.7462,0.7462,0.7501,0.7824,0.8331,0.8981,0.9585,3.9076,0.0,0.0,0.0,0.0,0.0,0.0,0.0,0.0,0.0,0.0,0.0,0.0,0.0,0.0,0.0,0.0,3.7213,3.5894,3.6125,3.668,3.7348,3.7303,3.6906,3.6175,3.5857,3.5141,3.3782,3.3026,3.1955,3.0412,2.8768,2.6846,2.4646,2.2199,1.9865,1.7696,1.6272,1.5041,1.3927,1.3229,1.2604,1.2028,1.1236,1.0715,1.0416,0.9812,0.9099,0.8319,0.8007,0.7226,0.6255,0.6181,0.5797,0.5279,0.5512,0.5042,0.4308,0.4308,0.4328,0.4367,0.4437,0.4481,0.4586,0.4917,0.5051,0.5094,0.5411,0.5674,0.5869,0.6053,0.6323,0.6534,0.6534,0.664,0.6681,0.6599,0.6569,0.6664,0.7042,0.6877,0.6807,0.7206,0.7133,0.699,0.699,0.7349,0.7602,0.7602,0.8075,0.8184,0.7675,0.7634,0.7417,0.6877,0.7097,0.7133,0.6845,0.6845,0.6954,0.7242,0.699,0.6881,0.699,0.699,0.699,0.699,0.699,0.7206,0.7607,0.8368,0.9036,0.0,0.0,0.0,3.7911,0.0,0.0,0.0,0.0,3.7737,0.0,0.0,0.0,0.0,0.0,0.0,0.0,0.0,0.0,0.0,3.5725,3.5475,3.482,3.4662,3.4526,3.432,3.3924,3.3409,3.2703,3.1915,3.0778,2.9246,2.7451,2.5487,2.3335,2.0309,1.818,1.7128,1.5539,1.4256,1.3342,1.3044,1.2278,1.1131,1.0582,1.0131,0.9783,0.9178,0.8545,0.7886,0.729,0.6672,0.6064,0.5533,0.5116,0.4806,0.4841,0.4607,0.4308,0.4308,0.4382,0.4469,0.4417,0.4478,0.4607,0.4608,0.4771,0.4938,0.5141,0.5083,0.5064,0.5514,0.5642,0.5646,0.5639,0.5955,0.6119,0.5804,0.5748,0.5771,0.5848,0.5863,0.5974,0.6375,0.6736,0.699,0.699,0.7349,0.7602,0.7602,0.7638,0.7638,0.7602,0.6912,0.644,0.6404,0.6446,0.6448,0.6413,0.6413,0.6413,0.6448,0.6413,0.6593,0.699,0.699,0.699,0.699,0.699,0.7206,0.7604,0.7707,0.8159,0.0,0.0,3.8913,3.9071,0.0,0.0,0.0,0.0,0.0,0.0,0.0,0.0,0.0,0.0,0.0,0.0,0.0,0.0,0.0,3.2948,3.2549,3.2073,3.3247,3.3973,3.3646,3.3232,3.2577,3.1551,3.0401,2.9159,2.7842,2.582,2.3742,2.1686,1.9308,1.7286,1.5669,1.445,1.3375,1.2441,1.1946,1.1322,1.0555,0.9981,0.9461,0.9035,0.8466,0.7691,0.6831,0.6729,0.6034,0.5061,0.5185,0.4887,0.445,0.469,0.4574,0.4308,0.4308,0.4224,0.4146,0.4336,0.4425,0.4465,0.4537,0.4564,0.4578,0.4655,0.4773,0.4959,0.52,0.5395,0.5544,0.5594,0.5672,0.5724,0.5663,0.5643,0.568,0.5767,0.579,0.5827,0.5974,0.6117,0.6372,0.6918,0.7133,0.7097,0.6845,0.6809,0.6591,0.6083,0.5756,0.55,0.528,0.5465,0.5721,0.5974,0.601,0.601,0.601,0.601,0.6192,0.6593,0.6593,0.6736,0.699,0.7278,0.7312,0.7206,0.7492,0.7911,3.9747,3.9604,0.0,3.9553,3.9169,0.0,3.7766,0.0,0.0,0.0,0.0,0.0,0.0,0.0,0.0,0.0,0.0,0.0,0.0,3.1224,3.0801,3.046,3.173,3.2435,3.1992,3.1716,3.1042,2.9781,2.8929,2.7761,2.6128,2.4242,2.2261,2.0161,1.8063,1.6231,1.4765,1.3665,1.2689,1.1841,1.135,1.0633,0.9781,0.9399,0.893,0.8437,0.7974,0.7222,0.6317,0.6167,0.5487,0.4518,0.4573,0.4439,0.4224,0.4516,0.4473,0.4308,0.4441,0.4312,0.4118,0.444,0.4483,0.4405,0.4442,0.4412,0.4371,0.4392,0.4552,0.4713,0.479,0.5045,0.5227,0.5171,0.518,0.524,0.5199,0.5221,0.5261,0.54,0.5391,0.5463,0.5574,0.5574,0.5865,0.6664,0.6664,0.6519,0.6412,0.6048,0.561,0.5067,0.4775,0.463,0.47,0.4994,0.5321,0.5574,0.5574,0.5574,0.5574,0.5574,0.5829,0.6377,0.6413,0.6593,0.699,0.7242,0.7242,0.7027,0.7421,0.7641]},{"header":{"parameterUnit":"m.s-1","parameterCategory":1,"la1":30.6,"la2":29.2853,"lo1":-89.7004,"lo2":-87.6739,"dy":0.0162,"dx":0.0183,"nx":112,"ny":82,"refTime":"2023-11-11T06:00:00:Z","depth":0,"parameterNumber":3,"parameterNumberName":"V-component_of_WINDS"},"data":[0.0,0.0,0.0,0.0,0.0,0.0,0.0,0.0,0.0,0.0,0.0,0.0,0.0,0.0,0.0,0.0,0.0,0.0,0.0,0.0,0.0,0.0,0.0,0.0,0.0,0.0,0.0,0.0,0.0,0.0,0.0,0.0,0.0,0.0,0.0,0.0,0.0,0.0,0.0,0.0,0.0,0.0,0.0,0.0,0.0,0.0,0.0,0.0,0.0,0.0,0.0,0.0,0.0,0.0,0.0,0.0,0.0,0.0,0.0,0.0,0.0,0.0,0.0,0.0,0.0,0.0,0.0,0.0,0.0,0.0,0.0,0.0,0.0,0.0,0.0,0.0,0.0,0.0,0.0,0.0,0.0,0.0,0.0,0.0,0.0,0.0,0.0,0.0,0.0,0.0,2.8543,2.9848,3.0906,3.1439,3.1191,3.0875,3.0342,2.9529,0.0,0.0,0.0,0.0,0.0,0.0,0.0,0.0,0.0,0.0,0.0,0.0,0.0,0.0,0.0,0.0,0.0,0.0,0.0,0.0,0.0,0.0,0.0,0.0,0.0,0.0,0.0,0.0,0.0,0.0,0.0,0.0,0.0,0.0,0.0,0.0,0.0,0.0,0.0,0.0,0.0,0.0,0.0,0.0,0.0,0.0,0.0,0.0,0.0,0.0,0.0,0.0,0.0,0.0,0.0,0.0,0.0,0.0,0.0,0.0,0.0,0.0,0.0,0.0,0.0,0.0,0.0,0.0,0.0,0.0,0.0,0.0,0.0,0.0,0.0,0.0,0.0,0.0,0.0,0.0,0.0,0.0,0.0,0.0,0.0,0.0,0.0,0.0,0.0,0.0,0.0,0.0,0.0,0.0,0.0,0.0,0.0,0.0,0.0,0.0,0.0,0.0,0.0,0.0,3.0553,3.2039,3.2389,3.2361,3.2033,3.1464,3.0882,3.0351,0.0,0.0,0.0,0.0,0.0,0.0,0.0,0.0,0.0,0.0,0.0,0.0,0.0,0.0,0.0,0.0,0.0,0.0,0.0,0.0,0.0,0.0,0.0,0.0,0.0,0.0,0.0,0.0,0.0,0.0,0.0,0.0,0.0,0.0,0.0,0.0,0.0,0.0,0.0,0.0,0.0,0.0,0.0,0.0,0.0,0.0,0.0,0.0,0.0,0.0,0.0,0.0,0.0,0.0,0.0,0.0,0.0,0.0,0.0,0.0,0.0,0.0,0.0,0.0,0.0,0.0,0.0,0.0,0.0,0.0,0.0,0.0,0.0,0.0,0.0,0.0,0.0,0.0,0.0,0.0,0.0,0.0,0.0,0.0,0.0,0.0,0.0,0.0,0.0,0.0,0.0,0.0,0.0,0.0,0.0,0.0,0.0,0.0,0.0,0.0,0.0,0.0,0.0,3.0771,3.173,3.266,3.2823,3.2705,3.2341,3.2017,3.1676,3.1276,3.0762,0.0,0.0,0.0,0.0,0.0,0.0,0.0,0.0,0.0,0.0,0.0,0.0,0.0,0.0,0.0,0.0,0.0,0.0,0.0,0.0,0.0,0.0,0.0,0.0,0.0,0.0,0.0,0.0,0.0,0.0,0.0,0.0,0.0,0.0,0.0,0.0,0.0,0.0,0.0,0.0,0.0,0.0,0.0,0.0,0.0,0.0,0.0,0.0,0.0,0.0,0.0,0.0,0.0,0.0,0.0,0.0,0.0,0.0,0.0,0.0,0.0,0.0,0.0,0.0,0.0,0.0,0.0,0.0,0.0,0.0,0.0,0.0,0.0,0.0,0.0,0.0,0.0,0.0,0.0,0.0,0.0,0.0,0.0,0.0,0.0,0.0,0.0,0.0,0.0,0.0,0.0,0.0,0.0,0.0,0.0,0.0,0.0,0.0,0.0,0.0,0.0,0.0,3.2083,3.2728,3.3224,3.3317,3.3219,3.2854,3.2646,3.2441,3.2274,3.2039,0.0,0.0,0.0,0.0,0.0,0.0,0.0,0.0,0.0,0.0,0.0,0.0,0.0,0.0,0.0,0.0,0.0,0.0,0.0,0.0,0.0,0.0,0.0,0.0,0.0,0.0,0.0,0.0,0.0,0.0,0.0,0.0,0.0,0.0,0.0,0.0,0.0,0.0,0.0,0.0,0.0,0.0,0.0,0.0,0.0,0.0,0.0,0.0,0.0,0.0,0.0,0.0,0.0,0.0,0.0,0.0,0.0,0.0,0.0,0.0,0.0,0.0,0.0,0.0,0.0,0.0,0.0,0.0,0.0,0.0,0.0,0.0,0.0,0.0,0.0,0.0,0.0,0.0,0.0,0.0,0.0,0.0,0.0,0.0,0.0,0.0,0.0,0.0,0.0,0.0,0.0,0.0,0.0,0.0,0.0,0.0,0.0,0.0,0.0,0.0,0.0,0.0,3.3227,3.3798,3.4593,3.4492,3.4311,3.4098,3.3319,3.2982,3.3289,3.2662,0.0,0.0,0.0,0.0,0.0,0.0,0.0,0.0,0.0,0.0,0.0,0.0,0.0,0.0,0.0,0.0,0.0,0.0,0.0,0.0,0.0,0.0,0.0,0.0,0.0,0.0,0.0,0.0,0.0,0.0,0.0,0.0,0.0,0.0,0.0,0.0,0.0,0.0,0.0,0.0,0.0,0.0,0.0,0.0,0.0,0.0,0.0,0.0,0.0,0.0,0.0,0.0,0.0,0.0,0.0,0.0,0.0,0.0,0.0,0.0,0.0,0.0,0.0,0.0,0.0,0.0,0.0,0.0,0.0,0.0,0.0,0.0,0.0,0.0,0.0,0.0,0.0,0.0,0.0,0.0,0.0,0.0,0.0,0.0,0.0,0.0,0.0,0.0,0.0,0.0,0.0,0.0,0.0,0.0,0.0,0.0,0.0,0.0,0.0,0.0,0.0,0.0,3.4006,3.4629,3.5172,3.5027,3.4738,3.4411,3.4048,3.3846,3.3897,0.0,0.0,0.0,0.0,0.0,0.0,0.0,0.0,0.0,0.0,0.0,0.0,0.0,0.0,0.0,0.0,0.0,0.0,0.0,0.0,0.0,0.0,0.0,0.0,0.0,0.0,0.0,0.0,0.0,0.0,0.0,0.0,0.0,0.0,0.0,0.0,0.0,0.0,0.0,0.0,0.0,0.0,0.0,0.0,0.0,0.0,0.0,0.0,0.0,0.0,0.0,0.0,0.0,0.0,0.0,0.0,0.0,0.0,0.0,0.0,0.0,0.0,0.0,0.0,0.0,0.0,0.0,0.0,0.0,0.0,0.0,0.0,0.0,0.0,0.0,0.0,0.0,0.0,0.0,0.0,0.0,0.0,0.0,0.0,0.0,0.0,0.0,0.0,0.0,0.0,0.0,0.0,0.0,0.0,0.0,0.0,0.0,0.0,0.0,0.0,0.0,0.0,3.3856,3.4681,3.5239,3.5645,3.5629,3.5457,3.5107,3.4964,3.4886,3.4891,0.0,0.0,0.0,0.0,0.0,0.0,0.0,0.0,0.0,0.0,0.0,0.0,0.0,0.0,0.0,0.0,0.0,0.0,0.0,0.0,0.0,0.0,0.0,0.0,0.0,0.0,0.0,0.0,0.0,0.0,0.0,0.0,0.0,0.0,0.0,0.0,0.0,0.0,0.0,0.0,0.0,0.0,0.0,0.0,0.0,0.0,0.0,0.0,0.0,0.0,0.0,0.0,0.0,0.0,0.0,0.0,0.0,0.0,0.0,0.0,0.0,0.0,0.0,0.0,0.0,0.0,0.0,0.0,0.0,0.0,0.0,0.0,0.0,0.0,0.0,0.0,0.0,0.0,0.0,0.0,0.0,0.0,0.0,0.0,0.0,0.0,0.0,0.0,0.0,0.0,0.0,0.0,0.0,0.0,0.0,0.0,0.0,0.0,0.0,0.0,0.0,0.0,3.4698,3.5258,3.5678,3.6079,3.6457,3.6591,3.6338,3.6069,3.606,0.0,0.0,0.0,0.0,0.0,0.0,0.0,0.0,0.0,0.0,0.0,0.0,0.0,0.0,0.0,0.0,0.0,0.0,0.0,0.0,0.0,0.0,0.0,0.0,0.0,0.0,0.0,0.0,0.0,0.0,0.0,0.0,0.0,0.0,0.0,0.0,0.0,0.0,0.0,0.0,0.0,0.0,0.0,0.0,0.0,0.0,0.0,0.0,0.0,0.0,0.0,0.0,0.0,0.0,0.0,0.0,0.0,0.0,0.0,0.0,0.0,0.0,0.0,0.0,0.0,0.0,0.0,0.0,0.0,0.0,0.0,0.0,0.0,0.0,0.0,0.0,0.0,0.0,0.0,0.0,0.0,0.0,0.0,0.0,0.0,0.0,0.0,0.0,0.0,0.0,0.0,0.0,0.0,0.0,0.0,0.0,0.0,0.0,0.0,0.0,0.0,0.0,0.0,3.5181,3.6059,3.6769,3.731,3.7234,3.7252,3.7538,3.7245,3.7023,3.6959,0.0,0.0,0.0,0.0,0.0,0.0,0.0,0.0,0.0,0.0,0.0,0.0,0.0,0.0,0.0,0.0,0.0,0.0,0.0,0.0,0.0,0.0,0.0,0.0,0.0,0.0,0.0,0.0,0.0,0.0,0.0,0.0,0.0,0.0,0.0,0.0,0.0,0.0,0.0,0.0,0.0,0.0,0.0,0.0,0.0,0.0,0.0,0.0,0.0,0.0,0.0,0.0,0.0,0.0,0.0,0.0,0.0,0.0,0.0,0.0,0.0,0.0,0.0,0.0,0.0,0.0,0.0,0.0,0.0,0.0,0.0,0.0,0.0,0.0,0.0,0.0,0.0,0.0,0.0,0.0,0.0,0.0,0.0,0.0,0.0,0.0,0.0,0.0,0.0,0.0,0.0,0.0,0.0,0.0,0.0,0.0,0.0,0.0,0.0,0.0,0.0,0.0,3.6281,3.6928,3.7542,3.8337,3.8103,3.8091,3.8579,3.8142,3.7779,3.7615,0.0,0.0,0.0,0.0,0.0,0.0,0.0,0.0,0.0,0.0,0.0,0.0,0.0,0.0,0.0,0.0,0.0,0.0,0.0,0.0,0.0,0.0,0.0,0.0,0.0,0.0,0.0,0.0,0.0,0.0,0.0,0.0,0.0,0.0,0.0,0.0,0.0,0.0,0.0,0.0,0.0,0.0,0.0,0.0,0.0,0.0,0.0,0.0,0.0,0.0,0.0,0.0,0.0,0.0,0.0,0.0,0.0,0.0,0.0,0.0,0.0,0.0,0.0,0.0,0.0,0.0,0.0,0.0,0.0,0.0,0.0,0.0,0.0,0.0,0.0,0.0,0.0,0.0,0.0,0.0,0.0,0.0,0.0,0.0,0.0,0.0,0.0,0.0,0.0,0.0,0.0,0.0,0.0,0.0,0.0,0.0,0.0,0.0,0.0,0.0,0.0,0.0,3.7763,3.793,3.8241,3.9295,3.9115,3.9106,3.9535,3.8924,3.8458,3.8302,0.0,0.0,0.0,0.0,0.0,0.0,0.0,0.0,0.0,0.0,0.0,0.0,0.0,0.0,0.0,0.0,0.0,0.0,0.0,0.0,0.0,0.0,0.0,0.0,0.0,0.0,0.0,0.0,0.0,0.0,0.0,0.0,0.0,0.0,0.0,0.0,0.0,0.0,0.0,0.0,0.0,0.0,0.0,0.0,0.0,0.0,0.0,0.0,0.0,0.0,0.0,0.0,0.0,0.0,0.0,0.0,0.0,0.0,0.0,0.0,1.9764,0.0,0.0,0.0,0.0,0.0,0.0,0.0,0.0,0.0,0.0,0.0,0.0,0.0,0.0,0.0,0.0,0.0,0.0,0.0,0.0,0.0,0.0,0.0,0.0,0.0,0.0,0.0,0.0,0.0,0.0,0.0,0.0,0.0,0.0,0.0,0.0,0.0,0.0,0.0,0.0,0.0,3.8302,3.9157,3.9979,4.0838,4.0263,4.0102,4.0842,3.9987,3.9307,3.9005,3.8058,0.0,0.0,0.0,0.0,0.0,0.0,0.0,0.0,0.0,0.0,0.0,0.0,0.0,0.0,0.0,0.0,0.0,0.0,0.0,0.0,0.0,0.0,0.0,0.0,0.0,0.0,0.0,0.0,0.0,0.0,0.0,0.0,0.0,0.0,0.0,0.0,0.0,0.0,0.0,0.0,0.0,0.0,0.0,0.0,0.0,0.0,0.0,0.0,0.0,0.0,0.0,0.0,0.0,0.0,0.0,0.0,0.0,0.0,0.0,0.0,2.0811,0.0,0.0,0.0,0.0,0.0,0.0,0.0,0.0,0.0,0.0,0.0,0.0,0.0,0.0,0.0,0.0,0.0,0.0,0.0,0.0,0.0,0.0,0.0,0.0,0.0,0.0,0.0,0.0,0.0,0.0,0.0,0.0,0.0,0.0,0.0,0.0,0.0,0.0,0.0,0.0,3.9575,4.0197,4.0812,4.1611,4.1117,4.08,4.0997,4.0504,3.9887,3.9234,3.8662,0.0,0.0,0.0,0.0,0.0,0.0,0.0,0.0,0.0,0.0,0.0,0.0,0.0,0.0,0.0,0.0,0.0,0.0,0.0,0.0,0.0,0.0,0.0,0.0,0.0,0.0,0.0,0.0,0.0,0.0,0.0,0.0,0.0,0.0,0.0,0.0,0.0,0.0,0.0,0.0,0.0,0.0,0.0,0.0,0.0,0.0,0.0,0.0,0.0,0.0,0.0,0.0,0.0,2.276,2.3549,2.4713,2.496,2.5161,2.5267,2.3886,2.3287,2.3237,2.2815,0.0,0.0,0.0,0.0,0.0,0.0,0.0,0.0,0.0,0.0,0.0,0.0,0.0,0.0,0.0,0.0,0.0,0.0,0.0,0.0,0.0,0.0,0.0,0.0,3.1258,3.1363,0.0,0.0,0.0,0.0,0.0,0.0,0.0,0.0,0.0,0.0,0.0,0.0,4.0948,4.1204,4.1478,4.2213,4.1861,4.1456,4.1178,4.0991,4.0495,3.9616,3.9156,3.8582,0.0,0.0,0.0,0.0,0.0,0.0,0.0,0.0,0.0,0.0,0.0,0.0,0.0,0.0,0.0,0.0,0.0,0.0,0.0,0.0,0.0,0.0,0.0,0.0,0.0,0.0,0.0,0.0,0.0,0.0,0.0,0.0,1.7243,1.798,0.0,0.0,0.0,0.0,0.0,0.0,0.0,0.0,0.0,0.0,0.0,0.0,0.0,2.1524,2.2492,2.252,2.2776,2.3229,2.3694,2.4454,2.5474,2.5895,2.6467,2.7091,2.7487,0.0,2.4693,2.422,0.0,0.0,0.0,0.0,0.0,0.0,0.0,0.0,0.0,0.0,0.0,0.0,0.0,0.0,0.0,0.0,0.0,0.0,0.0,0.0,0.0,0.0,3.1674,3.2884,3.3535,3.4052,0.0,3.3214,3.1864,3.2529,3.2881,0.0,0.0,0.0,0.0,0.0,0.0,0.0,4.1621,4.2287,4.2907,4.3422,4.2743,4.2461,4.2919,4.2092,4.1403,4.1056,4.0271,3.9567,3.8994,3.7798,0.0,0.0,0.0,0.0,0.0,0.0,0.0,0.0,0.0,0.0,0.0,0.0,0.0,0.0,0.0,0.0,0.0,0.0,0.0,0.0,0.0,0.0,0.0,0.0,0.0,0.0,0.0,0.0,0.0,1.737,1.8163,1.8374,1.8562,1.874,0.0,0.0,0.0,0.0,0.0,0.0,0.0,0.0,0.0,2.2781,2.2935,2.3317,2.4037,2.4407,2.4751,2.5097,2.5873,2.6626,2.7364,2.7972,2.8524,2.9011,2.9633,2.9319,2.8267,2.7118,2.6442,2.6086,0.0,0.0,0.0,0.0,2.5023,2.5217,2.5291,2.56,0.0,2.6122,0.0,0.0,0.0,0.0,0.0,0.0,0.0,0.0,0.0,0.0,3.3566,3.5237,3.5874,3.6428,3.7614,3.7094,3.6138,0.0,3.5353,3.5837,3.7038,0.0,0.0,0.0,0.0,4.1999,4.2421,4.343,4.4025,4.3726,4.3657,4.3503,4.316,4.2792,4.2406,4.19,4.123,4.0613,4.0127,3.9157,3.8408,0.0,0.0,0.0,0.0,0.0,0.0,0.0,0.0,0.0,0.0,0.0,0.0,0.0,0.0,0.0,0.0,0.0,0.0,0.0,0.0,0.0,0.0,0.0,0.0,0.0,0.0,0.0,0.0,1.8277,1.8964,1.9009,1.938,1.9687,0.0,0.0,0.0,0.0,0.0,0.0,2.2083,2.2981,2.3811,2.444,2.4756,2.5183,2.573,2.6288,2.6679,2.6888,2.7793,2.8544,2.9205,2.9831,3.0313,3.073,3.124,3.1393,3.1151,2.9607,2.8612,2.805,2.7775,2.7356,2.6906,2.6831,2.6965,2.7151,2.7206,2.7622,2.8087,2.8062,0.0,2.7851,2.7915,0.0,0.0,0.0,0.0,3.1475,3.3624,3.4588,3.5468,3.7472,3.8141,3.8729,4.0159,4.0675,4.0299,0.0,3.8159,3.8669,3.9824,0.0,0.0,0.0,0.0,4.3195,4.3526,4.4465,4.4788,4.4012,4.4338,4.4256,4.3392,4.3457,4.3298,4.2751,4.2168,4.1619,4.1146,4.0325,3.9475,3.8607,0.0,0.0,0.0,0.0,0.0,0.0,0.0,0.0,0.0,0.0,0.0,0.0,0.0,0.0,0.0,0.0,0.0,0.0,0.0,0.0,0.0,0.0,0.0,0.0,0.0,0.0,0.0,0.0,0.0,2.0569,2.0912,0.0,0.0,0.0,0.0,2.1793,2.2802,2.3485,2.367,2.4287,2.5141,2.6221,2.6294,2.6769,2.7739,2.8025,2.8186,2.8211,2.8782,2.9561,3.0504,3.0801,3.1335,3.2037,3.2571,3.2527,3.1946,3.0724,3.0183,3.0093,2.9655,2.9453,2.9385,2.9134,2.9202,2.9351,2.8858,2.8868,2.9101,2.9056,2.9149,2.9329,2.9604,3.0004,0.0,0.0,3.2939,3.4002,3.5639,3.656,3.7533,3.9479,4.0303,4.1091,4.2744,4.3481,4.3292,0.0,4.1417,4.1654,4.1909,0.0,4.3263,4.3567,4.4321,4.4944,4.5158,4.5244,4.5097,4.4614,4.4574,4.4497,4.4258,4.4255,4.4132,4.3843,4.3149,4.2525,4.2051,4.079,4.0123,4.0177,3.9565,0.0,0.0,0.0,0.0,0.0,0.0,0.0,0.0,0.0,0.0,0.0,0.0,0.0,0.0,0.0,0.0,0.0,0.0,0.0,0.0,0.0,0.0,0.0,0.0,0.0,0.0,0.0,0.0,2.1881,2.2364,0.0,2.2438,2.2849,2.3119,2.3119,2.4513,2.5411,2.546,2.6537,2.7551,2.8423,2.8751,2.9309,3.0128,3.0409,3.0491,3.0364,3.1244,3.1879,3.2302,3.3098,3.3691,3.4111,3.4474,3.4338,3.3797,3.3377,3.2606,3.1692,3.1518,3.139,3.1296,3.1309,3.1297,3.1262,3.1194,3.124,3.1344,3.1511,3.1836,3.224,3.2641,3.3092,3.3658,3.4621,3.5323,3.6209,3.7997,3.8757,3.9585,4.1674,4.2277,4.2824,4.4276,4.4727,4.485,4.4958,4.4262,4.3816,4.4281,4.4398,4.461,4.5103,4.5539,4.5771,4.5586,4.6262,4.6514,4.5778,4.6077,4.6015,4.521,4.5272,4.5113,4.4564,4.4086,4.3564,4.2963,4.2189,4.1411,4.0642,4.0404,4.0134,0.0,0.0,0.0,0.0,0.0,0.0,0.0,0.0,0.0,0.0,0.0,0.0,0.0,0.0,0.0,0.0,0.0,0.0,0.0,0.0,0.0,0.0,0.0,0.0,0.0,2.1549,2.2754,2.2884,2.3579,2.3976,2.3783,2.4395,2.485,2.4955,2.6428,2.7384,2.7475,2.8669,2.9654,3.0312,3.0638,3.1137,3.182,3.2108,3.2228,3.222,3.3093,3.3611,3.3781,3.4564,3.5089,3.5348,3.5528,3.5457,3.5215,3.5291,3.4787,3.3886,3.3278,3.2957,3.2849,3.2981,3.3005,3.2958,3.3102,3.3147,3.3178,3.3352,3.3889,3.4566,3.5055,3.5666,3.6372,3.7316,3.7925,3.8657,4.0343,4.0986,4.166,4.3544,4.4188,4.4763,4.6035,4.6527,4.6984,4.7804,4.6595,4.5669,4.6392,4.6091,4.6026,4.6761,4.68,4.6677,4.6513,4.7208,4.7455,4.6722,4.7099,4.6944,4.5792,4.5897,4.5735,4.5142,4.4645,4.4248,4.395,4.3408,4.277,4.2012,4.1741,4.1278,4.0597,0.0,0.0,0.0,0.0,0.0,0.0,0.0,0.0,0.0,0.0,0.0,0.0,0.0,0.0,0.0,0.0,0.0,0.0,0.0,0.0,0.0,0.0,0.0,2.124,2.2023,2.2897,2.3671,2.4595,2.5174,2.5174,2.6201,2.6973,2.7231,2.8509,2.9377,2.9647,3.056,3.1306,3.1847,3.1895,3.2188,3.2777,3.3034,3.3329,3.3637,3.4204,3.4587,3.4852,3.5135,3.542,3.5678,3.5678,3.5821,3.6066,3.6333,3.66,3.6631,3.486,3.4185,3.4196,3.4161,3.4285,3.4459,3.4473,3.449,3.4479,3.4526,3.5241,3.621,3.6767,3.762,3.8695,3.9997,4.0706,4.1371,4.2626,4.3165,4.3717,4.5055,4.6035,4.6955,4.8066,4.8983,4.9701,4.9953,4.8368,4.7286,4.8207,4.781,4.765,4.8484,4.8054,0.0,4.7986,4.8007,4.7833,4.7405,4.7533,4.7196,4.6086,4.6138,4.6047,4.5575,4.4856,4.4626,4.4981,4.4381,4.4135,4.4322,4.3632,4.2768,4.1708,0.0,0.0,0.0,0.0,0.0,0.0,0.0,0.0,0.0,0.0,0.0,0.0,0.0,0.0,0.0,0.0,0.0,0.0,0.0,0.0,0.0,2.111,2.1756,2.2083,2.3679,2.4903,2.5126,2.6114,2.6764,2.6764,2.7846,2.8583,2.8635,2.9989,3.0832,3.0903,3.2074,3.2886,3.323,3.3824,3.4285,3.4653,3.4735,3.4736,3.4712,3.5439,3.5829,3.597,3.6647,3.7091,3.7357,3.7553,3.7467,3.7182,3.7488,3.7447,3.7082,3.6124,3.605,3.6318,3.5491,3.5344,3.562,3.6011,3.6239,3.6457,3.7095,3.7862,3.8717,3.9639,4.0385,4.105,4.1763,4.2311,4.294,4.4048,4.4544,4.5091,4.6429,4.73,4.7998,4.8675,4.9373,4.9909,4.9997,4.9555,4.9226,4.9495,4.9389,4.9184,4.8925,4.8734,0.0,4.8258,4.8218,4.8356,4.8706,4.8812,4.8576,4.7919,4.756,4.7111,4.6473,4.5923,4.5502,4.5223,4.517,4.5071,4.487,4.4918,4.48,0.0,0.0,0.0,0.0,0.0,0.0,0.0,0.0,0.0,0.0,0.0,0.0,0.0,0.0,0.0,0.0,0.0,0.0,0.0,0.0,0.0,0.0,2.2492,2.3275,2.3819,2.4955,2.5967,2.6552,2.7371,2.8028,2.8491,2.9316,3.0001,3.0473,3.1579,3.2289,3.2416,3.3635,3.4542,3.4947,3.5631,3.6196,3.6603,3.6288,3.6175,3.6287,3.653,3.6722,3.6929,3.7744,3.8266,3.8548,3.8669,3.8632,3.8497,3.8562,3.8407,0.0,0.0,0.0,0.0,0.0,3.6807,3.7073,3.7605,3.8093,3.8572,3.9204,4.0077,4.1034,4.186,4.2579,4.3223,4.3805,4.4179,4.4687,4.5977,4.6439,4.688,4.8128,4.9009,4.9625,4.9896,5.0576,5.1115,5.1115,5.1115,0.0,5.1115,5.051,4.9988,4.9955,4.9576,4.92,4.9028,4.8846,4.8867,4.9255,4.9457,4.9335,4.8761,4.8589,0.0,0.0,0.0,4.7032,4.6573,4.6507,0.0,0.0,0.0,4.6607,4.6355,0.0,0.0,0.0,4.4212,4.4325,0.0,0.0,0.0,0.0,0.0,0.0,0.0,0.0,0.0,0.0,0.0,0.0,0.0,0.0,0.0,0.0,2.4126,2.5405,2.6064,2.6246,2.675,2.7849,2.844,2.9119,3.0067,3.0634,3.1355,3.2339,3.3153,3.3746,3.4065,0.0,0.0,0.0,0.0,3.781,3.8335,3.7641,3.7497,3.7895,3.7464,3.7399,3.7703,3.8464,3.9002,3.9387,3.9274,3.945,3.972,3.9494,3.9451,3.9401,3.8113,3.7555,3.7518,3.8178,3.8498,3.8664,3.9226,0.0,0.0,4.1045,4.2013,4.3148,4.3745,4.4496,4.5297,4.6007,4.6175,4.6525,4.8052,4.8408,4.8667,4.9823,5.0735,5.1364,5.1408,5.2139,5.2781,5.2781,5.2781,5.2781,5.2781,5.1432,5.0569,5.1288,5.0534,4.9963,5.0142,4.9796,4.9559,4.9521,0.0,0.0,4.9179,4.94,4.9307,4.8714,4.8842,4.881,4.856,4.8213,4.7737,4.711,4.8127,4.8399,4.7899,4.8827,4.9462,4.9735,4.7809,4.743,0.0,0.0,0.0,0.0,0.0,0.0,0.0,0.0,0.0,0.0,0.0,0.0,0.0,0.0,0.0,2.4876,2.6087,2.717,2.8168,2.9049,2.9291,2.849,2.9498,3.0365,3.0555,3.173,3.2661,3.3142,3.4274,3.5175,3.5714,3.6793,3.7575,3.797,3.8288,3.8503,3.8615,3.8465,3.8235,3.7907,0.0,0.0,3.8253,3.8632,3.9207,3.9858,3.9621,3.9705,4.0014,3.9976,4.0349,4.0899,3.993,3.9007,3.835,3.9825,4.0087,3.979,4.0542,4.1157,4.1796,4.3054,4.3878,4.4685,4.6185,4.6906,0.0,4.7928,4.7954,4.8082,4.9088,4.9105,4.9155,5.0288,5.1115,5.1733,5.2098,5.2735,5.3246,5.3246,5.3246,5.3246,5.3246,5.2838,5.2374,5.1933,5.1865,5.1674,5.1193,5.1184,5.114,5.0933,5.1132,5.1078,5.056,5.0196,4.9939,4.9794,4.9733,4.9796,5.0057,5.0093,5.0125,5.0156,5.063,5.0883,5.0869,5.1858,5.2499,5.2738,5.1371,5.0845,0.0,0.0,0.0,0.0,0.0,0.0,0.0,0.0,0.0,0.0,0.0,2.0438,2.2221,0.0,2.4934,2.6419,2.7572,2.8578,2.9384,3.0506,3.09,2.991,3.093,3.1837,3.2232,3.3073,3.3999,3.4925,3.5748,3.6511,3.7199,3.814,3.8799,3.9139,3.95,3.9784,3.9943,3.9552,3.9279,3.9141,3.8919,3.8926,3.92,3.963,4.0053,4.0451,4.0587,4.0763,4.0955,4.1087,4.1491,4.1982,4.1841,4.1079,4.0208,4.1469,4.186,4.1812,4.263,4.3437,4.427,4.5393,4.6005,4.6508,4.7672,4.8164,4.8442,4.8846,4.8932,4.917,5.019,5.0417,5.0603,5.1644,5.2237,5.2601,5.285,5.3165,5.3399,5.3399,5.3399,5.3399,5.3399,5.3503,5.3393,5.2794,5.2696,5.258,5.2256,5.2202,5.2202,5.2153,5.2002,5.1846,5.1699,5.1299,5.1168,5.1475,5.1082,5.1026,5.138,5.166,5.1855,5.1953,5.3102,5.3781,5.3951,5.4936,5.552,5.57,5.5978,5.5341,0.0,0.0,0.0,0.0,0.0,0.0,0.0,1.9166,1.9566,2.0103,2.1038,2.2309,2.4097,2.5343,2.6512,2.7792,2.9014,2.9974,3.0522,3.1672,3.2264,3.1795,3.2475,3.3274,3.3972,3.4416,3.5278,3.6724,3.7181,3.7747,3.8575,3.9341,3.9893,4.0235,4.0595,4.0925,4.1213,4.0552,4.0301,4.0391,3.979,3.9714,4.0101,4.0649,4.1022,4.1248,4.1748,4.1967,4.205,4.2275,4.2643,4.3167,4.3713,4.337,4.2679,4.3208,4.3606,4.3979,4.4694,4.566,4.6726,4.7439,4.7909,4.8313,4.8911,4.9263,4.9477,4.9787,4.9951,5.0249,5.1357,5.1737,5.2078,5.3011,5.3365,5.3503,5.3546,5.3574,5.3574,5.3531,5.3612,5.3655,5.3596,5.3958,5.4081,5.3612,5.3432,5.3365,5.3391,5.3287,5.3267,5.3377,5.3023,5.2783,5.2735,5.2527,5.2562,5.2972,5.2505,5.2421,5.2871,5.3279,5.357,5.3739,5.5375,5.6332,5.6565,5.7617,5.8197,5.8385,6.0109,5.9497,2.0042,1.9694,1.9496,1.968,1.9868,2.0101,0.0,2.0924,2.1449,2.226,2.334,2.4431,2.5426,2.7187,2.8783,2.9668,3.0821,3.1788,3.2335,3.3295,3.3954,3.3948,3.4047,3.4322,3.4814,3.5547,3.646,3.7582,3.8143,3.8832,3.9758,4.0297,4.0726,4.1071,4.1119,4.1156,4.1213,4.1095,4.0831,4.0391,4.0531,4.0535,4.0391,4.0984,4.1648,4.2342,4.2717,4.2869,4.2879,4.2892,4.3702,4.4922,4.5258,4.5576,4.5795,4.5123,4.5192,4.5661,4.5993,4.6785,4.7751,4.8411,4.9113,4.9817,5.0662,5.1083,5.1407,5.1827,5.1731,5.17,5.2644,5.2614,5.2557,5.3486,5.3746,5.3795,5.398,5.4157,5.4242,5.4066,5.4375,5.4565,5.4327,5.4528,5.4565,5.4103,5.4338,5.4648,5.484,5.5007,5.5021,5.4803,5.4889,5.4581,5.3627,5.3695,5.3643,5.3365,5.3599,5.4135,5.5015,5.5374,5.5956,5.679,5.7205,5.7541,5.7794,5.934,6.0158,6.0331,6.1939,6.1621,2.1113,2.0607,2.0427,2.0971,2.1302,2.1626,2.2226,2.2615,2.313,2.4122,2.5057,2.61,2.7362,2.8819,3.0026,3.0655,3.1792,3.2724,3.3107,3.424,3.5055,3.5157,3.5615,3.5945,3.592,3.6848,3.7786,3.872,3.9182,3.98,4.0664,4.0892,4.1069,4.1213,4.1213,4.1213,4.1213,4.1213,4.1105,4.0888,4.1136,4.1306,4.1399,4.181,4.2358,4.3035,4.3394,4.3698,4.4017,4.4547,4.5193,4.5958,4.6566,4.7052,4.7312,4.6573,4.6648,4.7178,4.7615,4.835,4.9254,4.997,5.0665,5.1293,5.1563,5.2091,5.2558,5.2345,5.2415,5.2604,5.3009,5.3162,5.3348,5.3846,5.406,5.4194,5.446,5.4571,5.4613,5.4523,5.4666,5.4771,5.4655,5.4927,5.5077,5.489,5.5014,5.5262,5.5576,5.5834,5.5854,5.5555,5.5796,5.5694,5.4942,5.5123,5.5315,5.5362,5.5707,5.6152,5.6657,5.7861,5.8696,5.9108,5.9722,6.0412,6.1143,6.1392,6.1852,6.2555,6.3699,6.3783,2.2106,2.1746,2.1759,2.2424,2.2908,2.3383,2.4037,2.4569,2.5169,2.6011,2.6865,2.7815,2.9053,3.0243,3.1207,3.1752,3.2801,3.3687,3.4088,3.5221,3.6009,3.6036,3.7056,3.7597,3.7219,3.7924,3.8819,3.9762,4.0066,4.0519,4.1263,4.1242,4.1242,4.1316,4.1374,4.143,4.143,4.1632,4.1678,4.1533,4.1923,4.2119,4.211,4.2553,4.3129,4.3795,4.4102,4.4611,4.5234,4.5848,4.6402,4.695,4.7749,4.8381,4.8783,4.8524,4.8549,4.8814,4.9262,4.9979,5.0784,5.1294,5.2002,5.2564,5.2276,5.2841,5.3461,5.2807,5.2944,5.3339,5.3526,5.3919,5.4358,5.4689,5.4936,5.515,5.533,5.5494,5.5493,5.5238,5.5352,5.5375,5.5099,5.5405,5.5693,5.5754,5.5838,5.5997,5.6159,5.6547,5.6749,5.6555,5.6836,5.6819,5.6266,5.6491,5.6744,5.6934,5.7238,5.7611,5.8028,5.9444,6.0424,6.091,6.1634,6.249,6.3533,6.3226,6.3472,6.4252,6.5062,6.5439,2.3161,2.3331,2.3671,2.3965,2.4674,2.546,2.5998,2.6972,2.7859,2.8141,2.8968,2.9722,3.0093,3.1376,3.2575,3.3301,3.4115,3.4899,3.5629,3.6502,3.6971,3.6704,3.8288,3.9212,3.8706,3.8671,3.9248,4.057,4.067,4.093,4.1549,4.1344,4.1316,4.1578,4.184,4.1983,4.1983,4.276,4.2895,4.2372,4.3045,4.2901,4.2126,4.2989,4.3835,4.4681,4.5019,4.5609,4.6349,4.6376,4.704,4.8108,4.8724,4.9643,5.0689,5.1255,5.112,5.0662,5.0944,5.1531,5.2148,5.2172,5.2842,5.3537,5.2891,5.3475,5.4244,5.3558,5.3562,5.3924,5.4574,5.5092,5.5615,5.6288,5.6622,5.6813,5.6834,5.7179,5.7257,5.633,5.6664,5.6804,5.5847,5.6053,5.6444,5.6622,5.6987,5.7101,5.6719,5.7364,5.7936,5.8118,5.8332,5.8201,5.7587,5.7722,5.7696,5.7306,5.76,5.8198,5.9109,5.9519,6.052,6.2202,6.24,6.2943,6.3896,6.4651,6.5028,6.5079,6.5889,6.6266,2.3844,2.422,2.4808,2.5358,2.6086,2.6827,2.746,2.8177,2.8876,2.943,3.0098,3.073,3.1298,3.2487,3.3436,3.3555,3.4617,3.5659,3.6375,3.7153,3.7718,3.7992,3.8943,3.957,3.9556,3.9843,4.0216,4.067,4.1086,4.1304,4.1344,4.1418,4.1418,4.1344,4.141,4.1478,4.1478,4.1912,4.2044,4.1874,4.2714,4.3203,4.3306,4.3971,4.4423,4.4762,4.5609,4.6139,4.6481,4.7662,4.8347,4.8815,5.018,5.0948,5.142,5.2324,5.2818,5.2976,5.2619,5.2763,5.3113,5.2962,5.3582,5.4191,5.3255,5.3648,5.4267,5.3602,5.4028,5.4774,5.4995,5.574,5.6524,5.6883,5.7163,5.7393,5.7526,5.7832,5.8017,5.7822,5.7474,5.7166,5.7103,5.6816,5.6796,5.7402,5.7606,5.7698,5.7698,5.8062,5.8367,5.8526,5.8702,5.8841,5.8869,5.9168,5.9615,6.0244,6.0589,6.1204,6.2154,6.2886,6.3559,6.4142,6.4202,6.4702,6.5611,6.5424,6.5628,6.624,6.6497,6.6623,2.4987,2.5443,2.6093,2.6893,2.7548,2.8194,2.8919,2.9559,3.0174,3.0716,3.1221,3.1697,3.221,3.3287,3.411,3.4171,3.5272,3.6373,3.7076,3.7872,3.8485,3.8843,3.9642,4.0194,4.0282,4.0643,4.0867,4.0867,4.1427,4.1697,4.1622,4.1965,4.2091,4.1924,4.221,4.2222,4.1924,4.2501,4.2737,4.2572,4.295,4.3447,4.4052,4.4491,4.4857,4.5221,4.6288,4.6951,4.7437,4.8906,4.9676,5.0067,5.153,5.2274,5.2641,5.358,5.431,5.4753,5.4091,5.4083,5.4344,5.4195,5.4753,5.527,5.4055,5.4556,5.5287,5.41,5.4745,5.581,5.581,5.6602,5.7505,5.7963,5.8302,5.8575,5.8839,5.9122,5.9284,5.9233,5.8564,5.8045,5.8114,5.768,5.7536,5.819,5.835,5.8421,5.8491,5.8666,5.8858,5.9063,5.9216,5.9434,5.9745,6.0349,6.1072,6.1911,6.2508,6.3095,6.3744,6.4474,6.4991,6.5277,6.5362,6.5847,6.675,6.6232,6.6279,6.6859,6.6834,6.6804,2.6543,2.6972,2.7564,2.8541,2.9112,2.9613,3.0389,3.115,3.1746,3.2026,3.2353,3.2665,3.2914,3.3797,3.4666,3.5187,3.6099,3.7057,3.7845,3.869,3.9257,3.932,4.0458,4.1135,4.0938,4.1148,4.129,4.1285,4.176,4.2141,4.2416,4.2919,4.3211,4.3206,4.4039,4.4051,4.3218,4.4373,4.4761,4.4364,4.3739,4.3802,4.4431,4.4706,4.53,4.6168,4.712,4.8121,4.9141,5.0098,5.0975,5.1762,5.2749,5.3581,5.4346,5.5015,5.5606,5.5962,5.5348,5.5418,5.5754,5.5747,5.6264,5.6652,5.5231,5.6094,5.7137,5.5054,5.5671,5.6968,5.6984,5.7693,5.8625,5.9516,5.9957,6.0244,6.0654,6.0944,6.1011,6.0488,5.9936,5.9398,5.8833,5.8574,5.858,5.9082,5.9286,5.9337,5.9133,5.9269,5.9522,5.9919,5.995,6.0079,6.0431,6.1339,6.2067,6.2426,6.3286,6.3882,6.4048,6.4358,6.4895,6.5667,6.5936,6.644,6.721,6.7073,6.7001,6.7001,6.6859,6.6822,2.8054,2.8582,2.9172,2.9636,3.0387,3.1127,3.1534,3.2064,3.258,3.2894,3.3481,3.3936,3.3986,3.5036,3.5929,3.6086,3.6942,3.7895,3.8741,3.9403,4.0105,4.0902,4.1277,4.1728,4.2324,4.2413,4.2542,4.2685,4.2438,4.2416,4.2679,4.3239,4.346,4.3211,4.3659,4.3806,4.3566,4.4138,4.469,4.5262,4.4671,4.5027,4.6238,4.6298,4.6827,4.7758,4.886,4.9603,5.0153,5.1495,5.2285,5.2778,5.4126,5.4774,5.5065,5.5971,5.6399,5.6539,5.6794,5.6669,5.6433,5.6341,5.6674,5.6857,5.5446,5.5988,5.6837,5.5751,5.6643,5.7989,5.82,5.895,5.9778,6.0323,6.0649,6.0919,6.1157,6.151,6.1783,6.1834,6.1066,6.0177,5.9502,5.9093,5.9375,6.0929,6.0955,6.0722,6.0505,6.0522,6.0931,6.187,6.205,6.2257,6.2588,6.2985,6.3606,6.4564,6.4839,6.5332,6.6192,6.6283,6.6474,6.6788,6.6858,6.6992,6.721,6.7073,6.7001,6.7001,6.6859,6.713,2.9118,2.9768,3.031,3.0667,3.1443,3.22,3.2488,3.2807,3.3119,3.3406,3.39,3.4307,3.439,3.5306,3.6161,3.6528,3.7426,3.841,3.9248,3.9842,4.0526,4.1488,4.1813,4.2294,4.3058,4.3205,4.3462,4.3944,4.3568,4.3324,4.3342,4.4137,4.4481,4.4127,4.4576,4.4732,4.4483,4.4553,4.4933,4.5594,4.5541,4.6076,4.7146,4.7391,4.7974,4.8882,0.0,5.0776,5.1457,5.2791,5.3583,5.4061,5.513,5.5631,5.5805,5.6473,5.6772,5.694,5.748,5.7551,5.7355,5.7269,5.7574,5.7786,5.6673,5.6939,5.7501,5.6777,5.7629,5.8766,5.8932,5.9662,6.0458,6.0797,6.1065,6.1355,6.1746,6.201,6.2206,6.2289,6.1917,6.1369,6.0719,6.0532,6.0923,6.2147,6.2215,6.2268,6.2652,6.2213,6.2177,6.2921,6.3066,6.3253,6.3593,6.413,6.4737,6.5438,6.5873,6.6562,6.7574,6.77,6.7954,6.8367,6.8438,6.8466,6.8466,6.8343,6.8272,6.8258,6.8099,6.8262,2.9942,3.0628,3.1114,3.1538,3.2259,3.2941,3.327,3.3381,3.3481,3.3704,3.4023,3.4297,3.4513,3.5191,3.5992,3.6813,3.784,3.8752,3.9494,4.0114,4.0833,4.1683,4.2199,4.2785,4.3552,4.3729,4.4134,4.4982,4.4815,4.4533,4.4202,4.5212,4.5696,4.5453,4.6042,4.6147,4.5669,4.5475,4.5582,4.5968,4.6404,4.7011,4.7761,4.83,4.8993,4.9906,5.0854,0.0,5.2912,5.398,5.4743,5.532,5.583,5.6225,5.6479,5.6715,5.698,5.729,5.7778,5.8104,5.8303,5.8257,5.8617,5.8873,5.8085,5.8296,5.8642,5.7891,5.8528,5.9465,5.9528,6.0135,6.0823,6.1148,6.1379,6.1706,6.2302,6.2498,6.2529,6.238,6.2589,6.2666,6.2212,6.2325,6.2656,6.3205,6.3359,6.3828,6.4941,6.4013,6.3395,6.3745,6.3821,6.3976,6.4264,6.5119,6.5732,6.5949,6.6736,6.7611,6.8566,6.8771,6.9203,6.9909,7.0036,7.0091,7.0091,6.9969,6.9899,6.9899,6.9704,6.9654,3.0874,3.1357,3.1771,3.1896,3.2531,3.3188,3.3486,3.3767,3.3977,3.4026,3.4542,3.5091,3.5345,3.586,3.6599,3.7637,3.8511,3.9197,3.9542,4.0439,4.1474,4.2556,4.2505,4.3025,4.4566,4.4502,4.4605,4.5207,4.5456,4.5426,4.5092,4.5555,4.5908,4.612,4.6524,4.6665,4.6564,4.6751,4.7129,4.7739,4.7357,4.7999,4.9544,4.9652,5.0458,5.1786,5.2677,0.0,5.4053,5.4764,5.5229,5.5581,5.6127,5.6464,5.6715,5.7195,5.7527,5.7801,5.812,5.8511,5.8814,5.8594,5.8844,5.9045,5.7915,5.8631,5.9593,5.8426,5.9103,6.0283,6.0695,6.0899,6.1169,6.1713,6.203,6.2302,6.2593,6.3038,6.334,6.3153,6.3154,6.3256,6.3437,6.3105,6.3382,6.5052,6.4901,6.4959,6.5935,6.519,6.4895,6.571,6.604,6.6222,6.6281,6.6667,6.7184,6.7864,6.8075,6.8603,6.96,6.9665,6.9809,7.005,7.0077,7.0091,7.0091,6.9969,6.9899,6.9899,6.9704,6.9964,3.1346,3.2272,3.3023,3.2409,3.3143,3.4005,3.3892,3.399,3.41,3.41,3.4573,3.5126,3.5516,3.5921,3.6592,3.7801,3.8682,3.9292,3.9554,4.0511,4.1607,4.2761,4.2839,4.3404,4.4863,4.5108,4.529,4.5519,4.5878,4.5908,4.5574,4.5878,4.6223,4.6554,4.6716,4.6883,4.7006,4.7484,4.788,4.8214,4.8532,4.9259,5.0278,5.0726,5.1559,5.2703,5.3263,0.0,5.4794,5.5229,5.5656,5.6077,5.6561,5.6812,5.6964,5.7503,5.7871,5.8088,5.8358,5.8853,5.9324,5.9213,5.9419,5.955,5.8582,5.9006,5.9737,5.9276,5.9717,6.051,6.1218,6.1601,6.1844,6.213,6.2637,6.3078,6.3285,6.3784,6.413,6.4043,6.4246,6.4532,6.4795,6.4652,6.4889,6.5991,6.5917,6.5931,6.6494,6.6235,6.6127,6.6527,6.6697,6.6863,6.7001,6.7126,6.7585,6.8505,6.856,6.9179,7.0566,7.0621,7.0865,7.1339,7.1358,7.1358,7.1358,7.1287,7.1258,7.1258,7.1135,7.1326,3.173,3.2964,3.3892,3.2976,3.3722,3.4584,3.4186,3.4051,3.4026,3.41,3.4359,3.4791,3.5469,3.5683,3.6244,3.7753,3.852,3.9078,3.953,4.0415,4.1551,4.2896,4.3162,4.3705,4.493,4.5448,4.5696,4.5696,4.6059,4.6193,4.5908,4.6163,4.6464,4.6806,4.6853,4.7066,4.7412,4.7997,4.8389,4.8592,4.9556,5.0263,5.0823,5.1623,5.2464,5.3275,5.3684,5.4399,0.0,5.5631,5.6053,5.6503,5.6932,5.7171,5.7338,5.7785,5.8088,5.8326,5.8639,5.9174,5.9716,5.9744,5.9941,6.0043,5.9406,5.9533,5.9952,6.0087,6.0357,6.0792,6.1619,6.2127,6.244,6.2615,6.3191,6.3767,6.402,6.4463,6.4826,6.4929,6.5438,6.5868,6.5901,6.6164,6.6403,6.6548,6.659,6.6679,6.6859,6.6972,6.7015,6.6965,6.695,6.7033,6.7257,6.7294,6.7789,6.8939,6.9021,6.9806,7.1533,7.1588,7.1929,7.2596,7.2553,7.2539,7.2539,7.2539,7.2524,7.2496,7.2524,7.2539,3.2431,3.3121,3.3553,3.3519,3.392,3.4302,3.4136,3.3902,3.3803,3.4051,3.3952,3.4182,3.5366,3.5216,3.5591,3.7647,3.8009,3.839,3.9454,4.0102,4.1273,4.3367,4.3369,4.3762,4.5159,4.5337,4.5361,4.5361,4.5939,4.6283,4.6253,4.6283,4.6464,4.6806,4.7053,4.7455,4.8098,4.846,4.9068,4.984,4.9953,5.06,5.1705,5.2261,5.2996,5.3878,5.4681,5.5229,0.0,5.6127,5.6464,5.67,5.6988,5.7385,5.7848,5.8088,5.8326,5.8617,5.9069,5.9441,5.9722,5.9908,6.0147,6.0306,6.0002,6.0411,6.0895,6.0608,6.105,6.1686,6.2206,6.2361,6.2576,6.3321,6.3785,6.4164,6.4533,6.4911,6.5261,6.5625,6.6437,6.6879,6.6351,6.697,6.7372,6.6836,6.6889,6.6997,6.7154,6.7182,6.7257,6.7419,6.7433,6.7446,6.7474,6.7579,6.8321,6.9876,7.0092,7.0878,7.2497,7.2571,7.2678,7.2955,7.2765,7.2681,7.2681,7.2681,7.2624,7.2496,7.2624,7.2681,3.2112,3.3226,3.4073,3.3488,3.3991,3.4469,3.3962,3.3902,3.3977,3.4075,3.4236,3.4667,3.5673,3.5669,3.6062,3.7726,3.8382,3.8915,3.9518,4.0331,4.1501,4.3188,4.3152,4.3589,4.5159,4.53,4.5453,4.5878,4.6163,4.6403,4.6584,4.6584,4.6721,4.7023,4.7337,4.7808,4.8489,4.8779,4.9284,5.001,5.0544,5.1155,5.1814,5.2718,5.3512,5.4175,5.4885,5.5531,0.0,5.6439,5.6715,5.6964,5.7409,5.7785,5.8111,5.8365,5.8685,5.9069,5.9419,5.9583,5.968,5.9858,6.0291,6.061,6.0137,6.0691,6.1393,6.1099,6.1554,6.2246,6.2808,6.3174,6.3566,6.4128,6.4533,6.4842,6.513,6.5443,6.5748,6.5985,6.6536,6.6909,6.6748,6.7092,6.7317,6.7066,6.7101,6.7304,6.7849,6.8091,6.8248,6.8326,6.7899,6.7647,6.7741,6.7855,6.8634,7.0241,7.0387,7.1152,7.2812,7.2881,7.2927,7.2996,7.2927,7.2881,7.2881,7.2881,7.2853,7.2798,7.2853,7.2881,3.1741,3.3023,3.4094,3.3465,3.3956,3.4414,3.3827,3.3712,3.3814,3.404,3.424,3.4626,3.56,3.5833,3.6288,3.7548,3.8443,3.9113,3.953,4.0379,4.1485,4.2817,4.2948,4.3486,4.4926,4.5293,4.5635,4.6132,4.624,4.6464,4.6763,4.6883,4.7066,4.7324,4.7661,4.8143,4.8821,4.9183,4.9712,5.0404,5.1128,5.1759,5.2329,5.3211,5.3971,5.4601,5.5189,5.5855,0.0,5.6739,5.6952,5.7183,5.755,5.7732,5.7838,5.8154,5.8466,5.8818,5.9307,5.9432,5.9478,6.0023,6.0568,6.0953,6.0829,6.1364,6.1969,6.1912,6.2383,6.3004,6.3434,6.3948,6.4498,6.5073,6.5288,6.5497,6.5973,6.6149,6.6284,6.6416,6.6887,6.7234,6.708,6.734,6.7498,6.7321,6.7523,6.7912,6.8535,6.9064,6.9379,6.9365,6.889,6.841,6.7983,6.805,6.8692,7.0051,7.0178,7.0851,7.2255,7.2551,7.2708,7.2748,7.2967,7.305,7.305,7.305,7.3037,7.2996,7.3037,7.3077,3.1534,3.245,3.3282,3.3529,3.38,3.3954,3.3746,3.3296,3.3148,3.3945,3.3664,3.369,3.4978,3.5417,3.5963,3.7042,3.7866,3.868,3.9509,4.0066,4.0942,4.234,4.2912,4.3554,4.4433,4.5301,4.5787,4.5787,4.609,4.6464,4.6763,4.7053,4.7353,4.769,4.8026,4.8476,4.9096,4.9683,5.0432,5.1293,5.1623,5.2383,5.3489,5.3789,5.4359,5.5219,5.5755,5.6244,0.0,5.6988,5.7137,5.7209,5.7209,5.709,5.6962,5.7361,5.7515,5.7664,5.8593,5.8916,5.9116,6.0469,6.1037,6.1366,6.2358,6.269,6.2768,6.317,6.3675,6.4075,6.4093,6.4533,6.5241,6.6151,6.6095,6.6096,6.7144,6.7071,6.6815,6.6976,6.7752,6.8126,6.7338,6.7853,6.8183,6.7584,6.8284,6.893,6.9078,6.9906,7.0484,7.0484,7.0596,6.9974,6.8243,6.8101,6.8452,6.9257,6.9436,6.9877,7.0685,7.15,7.2023,7.2196,7.287,7.3199,7.3199,7.3199,7.3131,7.2996,7.3131,7.3278,3.0989,3.2026,3.2945,3.3012,3.34,3.3532,3.2788,3.2762,3.2973,3.3233,3.3442,3.3848,3.4766,3.5595,3.6323,3.6836,3.7919,3.8899,3.9497,4.0066,4.0977,4.2516,4.386,4.4652,4.4713,4.5372,4.5787,4.5787,4.5908,4.6288,4.704,4.7146,4.7353,4.769,4.8243,4.8721,4.9096,4.9712,5.0432,5.1321,5.2017,5.2744,5.3541,5.4399,5.5053,5.5506,5.6195,5.6667,0.0,5.6918,5.7016,5.7168,5.6991,5.709,5.735,5.7816,5.8381,5.904,5.9794,6.0154,6.0385,6.1091,6.1669,6.2147,6.2478,6.2814,6.3208,6.3712,6.4181,6.455,6.479,6.5196,6.5662,6.6163,6.6369,6.6747,6.7731,6.792,6.8109,6.885,6.885,6.8697,6.8536,6.8332,6.8118,6.7931,6.8168,6.8575,6.9155,6.9575,6.9813,6.9819,7.0022,7.0116,7.0022,6.9514,6.9589,7.0456,7.0474,7.0839,7.1687,7.2503,7.2962,7.3014,7.3313,7.3417,7.3339,7.3417,7.3404,7.3273,7.3312,7.3365,3.0168,3.1225,3.2134,3.2211,3.2633,3.2823,3.2018,3.2088,3.2437,3.2821,3.3076,3.3504,3.4384,3.5389,3.6174,3.6444,3.7875,3.9087,3.9533,4.0234,4.1208,4.2621,4.3819,4.453,4.4607,4.5331,4.5757,4.5635,4.5969,4.6468,4.7176,4.7442,4.772,4.8068,4.8577,4.9039,4.9427,5.0151,5.0878,5.165,5.253,5.3249,5.3841,5.4773,5.5406,5.578,5.6424,0.0,0.0,5.6931,5.6832,5.6667,5.668,5.6791,5.7023,5.7474,5.8096,5.8801,5.9388,5.9753,6.0124,6.1113,6.223,6.3236,6.3414,6.362,6.3894,6.4323,6.4775,6.518,6.5425,6.5782,6.6202,6.6809,6.6908,6.7165,6.8235,6.829,6.8357,6.9082,6.9136,6.8977,6.8757,6.8627,6.8452,6.8156,6.843,6.8882,6.9388,6.9867,7.0177,7.0184,7.0319,7.0608,7.1099,7.007,6.9642,7.0229,7.0194,7.0363,7.0847,7.1975,7.2584,7.2533,7.3292,7.3634,7.3545,7.3584,7.3558,7.3481,7.3481,7.3456,0.0,3.0144,3.0961,3.1194,3.1643,3.1903,3.1416,3.1375,0.0,3.2622,3.2662,3.2829,3.3887,3.4898,3.5683,3.5939,3.7715,3.9193,3.9542,4.0547,4.1646,4.2669,4.3069,4.3553,4.4281,4.5208,4.5635,4.5361,4.6223,4.69,4.7176,4.785,4.836,4.8735,4.901,4.9413,4.9914,5.0809,5.1525,5.2067,5.2975,5.3669,5.4208,5.4827,5.5395,0.0,5.6407,0.0,0.0,5.6931,5.661,5.589,5.6325,5.6336,5.6205,5.6688,5.7125,5.757,5.8046,5.8479,5.9075,6.0943,6.2857,6.4533,6.4928,6.4912,6.4775,6.5013,6.5446,6.5865,6.6019,6.6297,6.6815,6.7902,6.7589,6.7391,6.8665,6.8338,6.7899,6.8216,6.8834,6.9087,6.833,6.8786,6.9021,6.8263,6.9008,6.9638,6.9638,7.0515,7.1125,7.1125,7.1137,7.1184,7.1319,6.9876,6.9003,6.907,6.9089,6.905,6.8989,7.0531,7.1327,7.1199,7.2857,7.374,7.3815,7.3672,7.3609,7.3609,7.3609,7.3545,2.8272,0.0,3.0178,3.0596,3.0981,3.113,0.0,3.1127,3.1769,3.2011,3.247,3.3011,3.3675,3.4772,3.5631,3.5683,3.6976,3.8265,3.9157,4.0745,4.2055,4.2717,4.3396,4.4044,4.4614,4.5117,4.5483,4.5666,4.6132,4.6648,4.7176,4.785,4.8447,4.8981,4.9512,4.9624,4.9317,5.038,5.0858,5.075,5.1855,5.2618,5.3169,5.3937,5.4542,5.5042,0.0,0.0,5.619,5.6155,5.6216,5.6325,5.6388,5.6474,5.6707,5.8004,5.8877,5.962,6.0956,6.1831,6.2547,6.3572,6.4407,6.5095,6.5477,6.5363,6.5178,6.5638,6.5922,6.6218,6.6661,6.6809,6.7037,6.768,6.7666,6.7835,6.897,6.9055,6.9118,6.9811,6.9662,6.9432,6.9329,6.9069,6.8813,6.8723,6.8924,6.909,6.909,6.9304,6.9451,6.9451,6.9513,6.9544,6.9578,6.9726,7.0121,7.0843,7.078,7.102,7.1656,7.2035,7.2203,7.2179,7.2595,7.3191,7.3942,7.3827,7.3747,7.3747,7.3747,7.3672,2.7668,2.8613,2.944,3.0076,3.0359,3.0421,3.014,3.0692,3.1349,3.172,3.2301,3.2919,3.3575,3.4645,3.5503,3.5734,3.7017,3.8375,3.9563,4.0834,4.1923,4.2693,4.3287,4.3941,4.4725,4.5239,4.5605,4.5787,4.6378,4.6862,4.7176,4.8114,4.8766,4.9096,4.9953,5.0117,4.9515,5.0524,5.0922,5.0726,5.1711,5.2452,5.3009,5.3793,5.4339,5.473,0.0,0.0,5.5796,5.6029,5.618,5.6311,5.6576,5.7052,5.7749,5.8866,5.9862,6.0799,6.1861,6.2856,6.3799,6.4449,6.5028,6.5557,6.599,6.6037,6.5987,6.6174,6.6403,6.6655,6.7065,6.7238,6.741,6.7789,6.792,6.8245,6.9264,6.952,6.9712,7.022,7.0332,7.0097,6.9462,6.9646,6.968,6.8991,6.9266,6.9543,6.9543,6.9252,6.9192,6.9585,6.9304,6.9094,6.9094,6.9458,7.0076,7.098,7.0979,7.1285,7.2049,7.2482,7.2862,7.3273,7.2525,7.2578,7.3504,7.3362,7.329,7.329,7.3713,7.3784,2.7256,2.8039,2.8759,2.9536,2.982,2.9899,2.994,3.0407,3.1023,3.1765,3.2319,3.2936,3.3716,3.4615,3.5449,3.6032,3.748,3.8943,4.0134,4.0819,4.161,4.2669,4.3003,4.3577,4.47,4.5361,4.5757,4.5787,4.6683,4.7205,4.7205,4.8405,4.9056,4.8963,5.0127,5.0436,4.9732,5.0802,5.1219,5.0929,5.1862,5.2546,5.3041,5.3736,5.4252,5.4638,0.0,0.0,5.5458,5.6192,5.6352,5.6218,5.6875,5.7838,5.8925,5.9612,6.0575,6.1638,6.2213,6.3144,6.4189,6.467,6.5359,6.6041,6.6455,6.6757,6.6903,6.6738,6.69,6.7172,6.7442,6.7637,6.7815,6.8101,6.8345,6.8729,6.9583,6.9946,7.0148,7.0254,7.0733,7.0689,6.9355,7.014,7.0476,6.9154,6.9619,7.0129,7.0129,6.9588,6.9485,7.025,6.9654,6.9211,6.9233,6.9222,6.9568,7.0442,7.0499,7.0811,7.1504,7.2282,7.3071,7.3791,7.2421,7.2027,7.2714,7.2599,7.256,7.256,7.3278,7.3495,2.6893,2.7559,2.8224,2.8748,2.9393,2.9975,3.0192,3.1081,3.1966,3.2327,3.2984,3.3728,3.4504,3.5129,3.5784,3.6543,3.8039,3.9304,3.9876,4.0693,4.161,4.2669,4.2849,4.3379,4.467,4.5147,4.5483,4.5787,4.6683,4.7205,4.7205,4.8405,4.8857,4.8366,4.9528,4.9594,4.8489,5.0565,5.0946,4.9608,5.1155,5.1957,5.2121,5.2688,5.341,5.4224,0.0,5.4926,5.5448,5.6117,5.6601,5.6911,5.7532,5.8466,5.9597,6.0644,6.176,6.2927,6.4244,6.5045,6.5542,6.585,6.6283,6.6668,6.687,6.7214,6.7565,6.752,6.7547,6.7642,6.7915,6.8024,6.8114,6.8377,6.8983,6.9595,6.9966,7.0585,7.1083,7.1106,7.0658,7.0226,7.0105,6.9686,6.9316,6.9172,6.928,6.9366,6.9366,6.9275,6.9292,6.953,6.9351,6.9254,6.9361,6.9276,6.9568,7.0442,7.0499,7.0844,7.1648,7.1809,7.1952,7.2083,7.1839,7.1764,7.1877,7.1854,7.1854,7.1843,7.1864,7.1792,2.6606,2.7156,2.7831,2.8703,2.9406,2.9921,3.0062,3.1249,3.2391,3.2648,3.3345,3.4154,3.4872,3.5456,3.6204,3.7412,3.8875,3.985,3.9895,4.0664,4.161,4.2669,4.2926,4.3547,4.4945,4.5361,4.5696,4.6029,4.6772,4.7205,4.7205,4.8405,4.8803,4.8219,4.9377,4.9495,4.8423,5.0415,5.0846,4.9693,5.0736,5.164,5.2344,5.2839,5.3459,5.413,0.0,5.523,5.5777,5.6447,5.7025,5.7551,5.8118,5.8988,6.0147,6.1901,6.3096,6.4036,6.5224,6.5859,6.6236,6.6625,6.6863,6.7073,6.7396,6.7642,6.7842,6.8075,6.8024,6.7959,6.817,6.8265,6.8365,6.8566,6.897,6.9603,7.0628,7.1203,7.153,7.153,7.1211,7.0709,6.9855,6.9753,6.9682,6.9257,6.9605,6.9898,6.9898,6.9493,6.9402,6.9936,6.9525,6.9214,6.9297,6.9308,6.9644,7.0453,7.0912,7.1314,7.167,7.1287,7.1268,7.1689,7.0807,7.0581,7.1043,7.1043,7.1043,7.1062,7.1426,7.1488,2.6486,2.6976,2.7644,2.8754,2.9562,3.0136,3.0441,3.1683,3.2832,3.3137,3.3802,3.4579,3.5251,3.6077,3.7068,3.8282,3.9571,4.0314,4.0109,4.0736,4.161,4.2669,4.2986,4.3667,4.5037,4.5574,4.5939,4.6283,4.6921,4.7324,4.7324,4.8332,4.8632,4.8104,4.9064,4.9256,4.859,5.0095,5.0591,5.01,5.0837,5.1777,5.2877,5.3283,5.3813,5.4449,5.5164,5.5757,5.6277,5.6894,5.7633,5.8408,5.8666,5.9461,6.0704,6.3003,6.4145,6.4747,6.583,6.6361,6.6643,6.7154,6.7322,6.7405,6.7868,6.8011,6.8114,6.8451,6.8426,6.8303,6.8408,6.8518,6.8619,6.8744,6.903,6.9664,7.0991,7.1501,7.1708,7.1708,7.1539,7.1013,6.9737,6.9898,6.9973,6.9305,6.9788,7.0242,7.0242,6.97,6.9542,7.0229,6.9652,6.9254,6.9254,6.9371,6.9685,7.0259,7.0802,7.1201,7.1407,7.0837,7.0799,7.1407,7.015,6.9718,7.0198,7.0198,7.0198,7.0217,7.0803,7.0972,2.674,2.7228,2.7783,2.8603,2.9694,3.0853,3.2044,3.2948,3.3623,3.3967,3.4603,3.5288,3.5836,3.7391,3.8704,3.9003,3.981,4.0458,4.0633,4.0959,4.161,4.2669,4.2819,4.3361,4.47,4.5422,4.5939,4.6283,4.7142,4.7661,4.7661,4.8052,4.8118,4.7738,4.8134,4.8397,4.8516,4.9367,4.9985,5.0373,5.1726,5.2718,5.3355,5.3574,5.4269,5.5328,5.5556,5.6156,5.6968,5.7383,5.8415,5.9697,5.9185,5.9853,6.1406,6.3689,6.4561,6.4811,6.6229,6.676,6.6892,6.7483,6.766,6.7736,6.8152,6.8365,6.8499,6.8643,6.8756,6.8845,6.8845,6.8856,6.8902,6.896,6.9615,7.0279,7.0522,7.1163,7.1708,7.1708,7.1099,7.0555,7.0424,6.9793,6.9267,6.9211,6.9356,6.9487,6.9487,6.9543,6.9604,6.9661,6.9512,6.9393,6.9393,6.9515,6.9614,6.9661,6.949,6.9737,7.0555,7.0517,7.0517,7.0592,7.0461,7.0048,6.9286,6.9286,6.9286,6.9275,6.9233,6.9185,2.6788,2.7496,2.8389,2.9624,3.0728,3.1624,3.1982,3.3382,3.4622,3.4758,3.5387,3.6114,3.6641,3.8134,3.9259,3.9122,4.0109,4.0927,4.1016,4.1589,4.2351,4.3239,4.3634,4.4272,4.5318,4.5635,4.5939,4.6283,4.6658,4.6894,4.6894,4.757,4.7711,4.7216,4.8164,4.8698,4.8745,4.9679,5.0531,5.1333,5.2045,5.2808,5.3596,5.4098,5.4733,5.543,5.6195,5.676,5.7252,5.7992,5.8786,5.9564,5.987,6.0452,6.1381,6.3425,6.4304,6.4736,6.6557,6.691,6.6642,6.7171,6.7375,6.7506,6.772,6.8259,6.8791,6.896,6.905,6.9079,6.8983,6.9016,6.9105,6.9214,6.9491,6.9899,7.0562,7.0858,7.1011,7.1011,7.0766,7.0369,6.9796,6.9418,6.9233,6.9319,6.9371,6.9434,6.9515,6.9567,6.9606,6.9606,6.9546,6.9537,6.9579,6.9527,6.9527,6.9658,6.9455,6.9511,6.9924,6.9786,6.9724,6.981,6.9724,6.953,6.9211,6.9211,6.9211,6.9211,6.9138,6.9083,2.6979,2.7799,2.8876,3.0359,3.1606,3.2527,3.2721,3.4089,3.5365,3.5546,3.6151,3.6845,3.7453,3.8689,3.9542,3.9407,4.0418,4.127,4.1471,4.1989,4.2637,4.3355,4.3976,4.469,4.5622,4.5767,4.6007,4.6467,4.6433,4.6459,4.6546,4.7073,4.731,4.7163,4.8084,4.8757,4.9143,5.0076,5.1028,5.2018,5.2517,5.3164,5.3942,5.4565,5.5147,5.5754,5.6641,5.7252,5.7718,5.8492,5.9149,5.9816,6.0775,6.1197,6.1442,6.316,6.3951,6.4407,6.6157,6.6494,6.6204,6.6624,6.7052,6.7421,6.7602,6.8298,6.9098,6.9287,6.9321,6.931,6.923,6.927,6.9342,6.9434,6.9455,6.9645,7.0283,7.0345,7.0273,7.0273,7.0273,7.0083,6.9434,6.9329,6.935,6.9445,6.9486,6.9537,6.9627,6.9667,6.9677,6.9637,6.9637,6.9648,6.9699,6.9569,6.9549,6.9699,6.9508,6.9434,6.9536,6.9319,6.9236,6.934,6.9254,6.9211,6.9211,6.9211,6.9211,6.9211,6.9211,6.9149,2.7323,2.8203,2.9163,3.0635,3.2146,3.3573,3.4573,3.523,3.5748,3.6314,3.6843,3.7439,3.8259,3.9065,3.968,3.9959,4.0672,4.1414,4.2025,4.2047,4.2241,4.2822,4.3577,4.4405,4.5383,4.5725,4.6165,4.6859,4.6629,4.6601,4.6867,4.6643,4.6867,4.7669,4.7695,4.8344,4.9693,5.0427,5.1309,5.2314,5.3252,5.3964,5.4417,5.489,5.5588,5.6424,5.6834,5.7519,5.8422,5.8841,5.9649,6.0739,6.1923,6.2025,6.168,6.3089,6.3613,6.3776,6.4998,6.5489,6.5644,6.5922,6.6737,6.764,6.7919,6.865,6.9434,6.9567,6.9587,6.9617,6.9679,6.9648,6.9597,6.9587,6.9587,6.9587,6.9587,6.9587,6.9587,6.9587,6.9587,6.9606,6.9606,6.9606,6.9606,6.9587,6.9658,6.9709,6.9709,6.9815,6.9844,6.9719,6.9709,6.9709,6.9709,6.9709,6.9709,6.9709,6.9508,6.9403,6.9403,6.9276,6.9211,6.9192,6.9211,6.9211,6.9211,6.9211,6.9211,6.9211,6.9211,6.9211,2.7889,2.8924,3.0065,3.1221,3.2518,3.3852,3.5069,3.5934,3.6645,3.7382,3.7794,3.8069,3.8108,3.893,3.968,3.9959,4.0672,4.1414,4.2025,4.2728,4.3215,4.3247,4.4632,4.5497,4.5249,4.5644,4.5912,4.5908,4.568,4.5552,4.5636,4.6141,4.662,4.7054,4.8023,4.9079,5.0172,5.0973,5.1926,5.3091,5.3975,5.4486,5.4654,5.5377,5.5821,5.6018,5.6853,5.7496,5.81,5.9631,6.0584,6.1179,6.1941,6.2223,6.2285,6.3551,6.4029,6.419,6.5398,6.5502,6.5245,6.6139,6.6735,6.7236,6.7929,6.8837,6.964,6.9776,6.9844,6.9882,6.991,6.9901,6.9873,6.9824,6.9805,6.9805,6.9805,6.9728,6.9678,6.9678,6.9678,6.9658,6.9607,6.9606,6.9617,6.9668,6.9689,6.9728,6.9825,6.9882,6.9882,6.9834,6.9834,6.9834,6.9834,6.9748,6.9738,6.9825,6.9657,6.9536,6.9536,6.9319,6.9236,6.935,6.9254,6.9211,6.9211,6.9211,6.9211,6.9211,6.9211,6.9211,2.8393,2.9467,3.0639,3.1728,3.3141,3.4618,3.6046,3.6856,3.7429,3.8031,3.8379,3.8551,3.8485,3.934,4.0176,4.048,4.1099,4.1728,4.2183,4.2782,4.3155,4.304,4.436,4.5149,4.4824,4.5167,4.5419,4.5374,4.5224,4.5188,4.5285,4.6009,4.6637,4.7145,4.828,4.9385,5.0397,5.1278,5.2268,5.3399,5.4026,5.4466,5.4814,5.5893,5.6418,5.6534,5.7466,5.7947,5.8172,5.989,6.0809,6.119,6.2031,6.2475,6.276,6.3628,6.4011,6.415,6.4975,6.4997,6.4783,6.5487,6.6098,6.6748,6.7626,6.8574,6.9465,6.99,7.0059,7.0086,7.0086,7.0113,7.0085,6.9966,6.9929,6.991,6.9929,6.9873,6.9825,6.9825,6.9863,6.9891,6.9844,6.9786,6.9776,6.9815,6.9796,6.9805,6.9891,6.9901,6.9901,6.9901,6.9901,6.9901,6.9901,6.9786,6.9728,6.9815,6.9687,6.9606,6.9606,6.9434,6.9393,6.9484,6.9393,6.935,6.935,6.9308,6.9287,6.9287,6.9214,6.9233,2.879,2.9864,3.0929,3.2225,3.3887,3.5642,3.7207,3.7776,3.8065,3.8303,3.8645,3.8951,3.9157,4.0114,4.0956,4.1287,4.1782,4.2183,4.2469,4.25,4.2491,4.2503,4.3276,4.3941,4.4228,4.4554,4.4875,4.5172,4.5212,4.5314,4.5595,4.6179,4.686,4.7673,4.8534,4.9473,5.0469,5.1366,5.2357,5.3378,5.358,5.4103,5.4929,5.624,5.7022,5.7422,5.8289,5.8537,5.8427,5.9801,6.0571,6.0976,6.2203,6.2842,6.3099,6.35,6.3702,6.3864,6.404,6.4213,6.4353,6.4508,6.5257,6.6281,6.7162,6.8056,6.8957,6.9756,7.0031,7.0116,7.0088,7.0187,7.0243,7.0067,6.9985,6.9957,7.0022,7.0012,7.0012,7.0012,7.0132,7.0204,7.0204,7.0095,7.0012,7.0003,6.9948,6.991,6.9901,6.9901,6.9901,6.9901,6.9901,6.9901,6.9901,6.9796,6.9719,6.9719,6.9648,6.9627,6.9627,6.9607,6.9606,6.9606,6.9606,6.9606,6.9606,6.9484,6.9413,6.9413,6.9297,6.9308,2.9024,3.014,3.1212,3.2494,3.4164,3.5822,3.702,3.7659,3.8012,3.8053,3.8832,3.9462,3.9328,4.0343,4.1287,4.158,4.1882,4.2183,4.2469,4.2896,4.3003,4.2559,4.3867,4.457,4.403,4.4603,4.5069,4.5188,4.5205,4.5314,4.5595,4.6546,4.7274,4.7671,4.8881,5.0009,5.1011,5.1243,5.2019,0.0,5.3379,5.3889,5.4835,5.5297,5.5837,5.645,5.7259,5.7701,5.8013,6.0025,6.1012,6.1399,6.2725,6.3331,6.3511,6.375,6.3923,6.4069,6.4213,6.4384,6.4662,6.5417,6.5924,6.6406,6.7242,6.7744,6.807,6.8261,6.8853,6.939,6.9286,6.9773,7.0296,7.0253,7.0227,7.0201,7.0167,7.0158,7.0158,7.0158,7.0176,7.0204,7.0204,7.0186,7.0113,7.0012,6.9984,6.9966,6.991,6.9901,6.9901,6.9901,6.9901,6.9901,6.9901,6.9882,6.9863,6.9863,6.9844,6.9863,6.991,6.9717,6.9606,6.9606,6.9606,6.9606,6.9606,6.9567,6.9556,6.9556,6.9526,6.9526,2.9286,3.0427,3.1675,3.369,3.5303,3.6606,3.7561,3.8004,3.8224,3.8356,3.916,3.9841,3.9868,4.097,4.192,4.2075,4.2311,4.2509,4.2497,4.2774,4.2848,4.2534,4.3432,4.3981,4.3704,4.4296,4.4761,4.4951,4.5234,4.5542,4.5967,4.6951,4.7724,4.8255,4.942,5.0375,5.1036,5.1517,5.2145,5.2981,5.3097,5.3658,5.4635,5.5553,5.6172,5.6578,5.7281,5.7755,5.8168,5.9972,6.1073,6.1734,6.3005,6.3594,6.3753,6.3926,6.4094,6.4265,6.4403,6.4577,6.4829,6.5355,6.5647,6.5971,6.6778,6.7455,6.7946,6.79,6.8849,6.9664,6.8757,6.9442,7.0249,6.9848,7.0019,7.0255,7.0255,7.0255,7.0255,7.0255,7.0262,7.0296,7.0296,7.0281,7.0201,7.0104,7.0095,7.0077,7.0041,7.0041,7.0022,6.9957,6.9948,6.9929,6.9901,6.9901,6.992,6.9948,6.9948,6.9948,7.0003,6.9882,6.9607,6.9218,6.9161,6.8924,6.8545,6.8468,6.8675,6.9072,6.9003,6.9241,2.9436,3.0792,3.2394,3.4852,3.6226,3.7218,3.8075,3.8321,3.8488,3.8815,3.9567,4.0233,4.0515,4.1654,4.2581,4.2581,4.2834,4.289,4.2638,4.2581,4.2581,4.2581,4.2918,4.3252,4.3462,4.4026,4.4491,4.4843,4.5328,4.5861,4.6454,4.73,4.805,4.8713,4.9746,5.0443,5.0728,5.1518,5.2073,5.2333,5.2653,5.3262,5.4108,5.581,5.6672,5.6885,5.7472,5.7933,5.8353,5.97,6.0744,6.1608,6.2963,6.36,6.3784,6.4038,6.4267,6.4463,6.4577,6.4754,6.4924,6.4982,6.5142,6.5439,6.6114,6.6946,6.766,6.7595,6.8736,6.9624,6.8181,6.9008,6.9996,6.9193,6.9641,7.0272,7.0313,7.0322,7.0322,7.0322,7.0361,7.0392,7.0392,7.0353,7.0296,7.022,7.023,7.0203,7.0204,7.0204,7.0158,7.0058,7.003,6.9994,6.991,6.992,6.9929,6.9975,6.9984,6.9984,7.0003,7.0003,6.9556,6.8624,6.8611,6.8205,6.739,6.7288,6.761,6.831,6.8204,6.864,2.918,3.1495,3.3645,3.4658,3.5527,3.6434,3.7465,3.808,3.8552,3.9128,4.0048,4.0789,4.0844,4.1985,4.2918,4.2918,4.2974,4.2974,4.2946,4.2918,4.2918,4.2918,4.3432,4.3776,4.3832,4.434,4.487,4.5435,4.5542,4.5967,4.6795,4.7608,4.8051,4.8042,4.9241,4.9926,5.0045,5.0323,5.0747,5.121,5.1782,5.2255,5.272,5.4464,5.5599,5.6254,5.6872,5.7339,5.7808,5.9085,5.9819,6.0345,6.2251,6.3045,6.3212,6.4053,6.4492,6.4661,6.4689,6.4815,6.4991,6.5008,6.5183,6.5417,6.5513,6.574,6.5932,6.5932,6.6622,6.7338,6.7108,6.8238,6.923,6.838,6.9379,7.0514,7.0411,7.0394,7.0394,7.0394,7.0383,7.0392,7.0392,7.0383,7.0361,7.0296,7.0288,7.0272,7.0213,7.0204,7.0185,7.0186,7.0167,7.0113,6.9994,6.9984,6.9976,6.992,6.992,6.9939,7.0003,7.0003,6.9326,6.7884,6.8334,6.8205,6.739,6.7381,6.7428,6.7542,6.7596,6.7679,3.0341,3.2445,3.4143,3.5037,3.5977,3.6904,3.7828,3.8357,3.8788,3.94,4.0141,4.0778,4.1064,4.19,4.265,4.2951,4.3002,4.3002,4.3002,4.3002,4.3058,4.3212,4.3626,4.4024,4.4313,4.4735,4.5221,4.5782,4.55,4.5693,4.656,4.6885,4.7291,4.7832,4.9039,4.9567,4.9285,5.0081,5.0766,5.1344,5.1979,5.2625,5.3263,5.4234,5.5093,5.5879,5.6888,5.7814,5.8664,5.9501,6.025,6.0952,6.1943,6.2672,6.322,6.3729,6.4292,6.4816,6.485,6.5008,6.5166,6.5215,6.5341,6.545,6.5494,6.5925,6.6284,6.5842,6.6661,6.7474,6.6533,6.7468,6.8463,6.7582,6.8348,6.9341,6.9704,7.0158,7.0353,6.9835,7.0086,7.0258,6.9807,7.0105,7.025,6.975,7.0075,7.0192,6.9701,7.0035,7.0296,7.0264,7.0264,7.0229,7.0113,7.0104,7.0113,7.0121,7.0096,7.0077,7.0104,7.0104,6.9324,6.7623,6.7911,6.7411,6.6068,6.612,6.6386,6.6789,6.6838,6.7174,3.1378,3.299,3.4141,3.5132,3.6206,3.722,3.7999,3.8517,3.8971,3.9594,4.0023,4.0449,4.1001,4.1693,4.2389,4.2914,4.3002,4.303,4.3085,4.3113,4.3225,4.3489,4.3819,4.4189,4.4654,4.4991,4.5421,4.5967,4.5443,4.5482,4.6339,4.6265,4.6622,4.7512,4.8529,4.8925,4.8629,4.9837,5.0764,5.1442,5.2019,5.2696,5.3427,5.4033,5.4676,5.5395,5.6769,5.8072,5.9243,5.9673,6.0323,6.11,6.1488,6.2088,6.2772,6.3116,6.3713,6.4375,6.4682,6.4915,6.5085,6.5385,6.553,6.5603,6.565,6.6178,6.6622,6.6026,6.675,6.7423,6.6179,6.6876,6.7709,6.6833,6.7446,6.8426,6.9176,6.9999,7.0332,6.9397,6.9897,7.0168,6.933,6.9865,7.0124,6.9311,6.9712,6.9807,6.8986,6.9387,6.9745,6.9698,6.99,6.9999,6.9905,7.0106,7.0238,7.0262,7.0229,7.0204,7.0204,7.023,6.949,6.7917,6.7794,6.6852,6.5042,6.5155,6.5479,6.602,6.6096,6.6494,3.1552,3.2721,3.3574,3.4593,3.564,3.665,3.7456,3.8246,3.8971,3.9594,3.9722,3.991,4.0437,4.1456,4.2389,4.2914,4.3002,4.3085,4.3338,4.3366,4.3489,4.3832,4.4107,4.4395,4.4681,4.4991,4.5421,4.5967,4.5443,4.5482,4.6339,4.6265,4.6399,4.685,4.7339,4.7787,4.8131,4.9206,5.0149,5.0937,5.1284,5.1688,5.2144,5.343,5.4221,5.4643,5.611,5.7482,5.8669,5.9013,5.9337,5.9691,6.059,6.1061,6.1326,6.2216,6.2669,6.2948,6.3915,6.429,6.4508,6.5382,6.5776,6.5882,6.5888,6.5968,6.6048,6.599,6.6048,6.6106,6.6009,6.6569,6.6936,6.6058,6.7101,6.8505,6.9239,7.0019,7.0348,6.9467,7.0003,7.0297,6.9365,6.9865,7.0124,6.9311,6.9234,6.8948,6.8077,6.8,6.8039,6.8031,6.8757,6.9194,6.9065,6.9819,7.0281,7.0213,7.0204,7.0204,7.0204,7.0253,6.9858,6.8934,6.8242,6.6989,6.5188,6.5207,6.5226,6.5264,6.5337,6.5377,3.1113,3.2218,3.3031,3.409,3.5112,3.614,3.7107,3.7859,3.8551,3.9299,3.9724,4.008,4.0439,4.084,4.1404,4.2336,4.2624,4.2903,4.3343,4.3585,4.3819,4.4134,4.4395,4.4762,4.5221,4.5542,4.578,4.5911,4.5431,4.5205,4.5427,4.493,4.4943,4.5552,4.6285,4.7356,4.8787,4.9365,5.013,5.1099,5.1645,5.2179,5.2665,5.3352,5.415,5.5017,5.6184,5.7282,5.8287,5.9118,5.9645,5.9918,6.0301,6.0879,6.1536,6.1864,6.2756,6.377,6.3614,6.432,6.5244,6.51,6.5432,6.5918,6.5994,6.6052,6.6058,6.6019,6.6036,6.6058,6.6019,6.6204,6.6317,6.5991,6.6756,6.7595,6.7863,6.8527,6.8976,6.8658,6.9264,6.9563,6.8716,6.9651,7.0052,6.8636,6.8865,6.889,6.802,6.7905,6.7905,6.7905,6.8172,6.8577,6.9079,6.8908,6.9216,7.0262,6.9754,6.9682,7.0234,7.0288,6.9885,6.9027,6.8277,6.7277,6.6031,6.5553,6.5572,6.6039,6.6149,6.6475,3.087,3.1949,3.2771,3.3945,3.4981,3.6035,3.7195,3.7727,3.8223,3.9225,3.9637,3.9905,4.0189,4.0315,4.072,4.1856,4.218,4.256,4.3285,4.3453,4.3631,4.411,4.4211,4.4467,4.4956,4.5246,4.541,4.5493,4.5059,0.0,4.4775,4.4153,4.4059,4.4598,4.5614,4.6809,4.8208,4.9137,5.0082,5.1083,5.2011,5.2736,5.3206,5.3492,5.411,5.4987,5.6026,5.7116,5.8239,5.9356,5.9925,6.0144,6.0227,6.0711,6.1375,6.1677,6.2574,6.3597,6.3433,6.4295,6.5413,6.499,6.5392,6.6072,6.6165,6.6205,6.6194,6.6118,6.6128,6.6144,6.6085,6.6052,6.6024,6.6005,6.6375,6.6724,6.6736,6.7524,6.8232,6.8227,6.8872,6.9165,6.8345,6.9302,6.9705,6.8288,6.8262,6.8212,6.7638,6.729,6.7084,6.7084,6.7347,6.784,6.8688,6.8497,6.8814,6.9941,6.9674,6.9603,6.9927,7.0194,6.9927,6.9068,6.8293,6.7453,6.6577,6.5792,6.5658,6.6138,6.6231,6.6846,0.0,0.0,0.0,3.4121,3.5199,3.6308,3.7617,3.7742,3.7979,3.9344,3.9449,3.9373,3.9623,3.9904,4.0451,4.149,4.168,4.2097,4.3209,4.2954,4.293,4.3781,4.3612,4.3515,4.3759,4.4042,4.4349,4.4678,4.4397,4.4288,4.4477,4.4041,4.3878,4.4082,4.5303,4.6088,4.6318,4.8484,5.0004,5.0836,5.2254,5.3162,5.3585,5.3777,5.4062,5.4434,5.5527,5.6943,5.8565,5.9559,6.0064,6.0239,6.0356,6.0494,6.0732,6.1655,6.2065,6.2298,6.3336,6.4242,6.4953,6.507,6.5683,6.6405,6.6405,6.6405,6.6391,6.6322,6.6307,6.6298,6.622,6.6144,6.6085,6.6024,6.6007,6.6007,6.6007,6.7186,6.8239,6.8265,6.8899,6.9179,6.8321,6.8843,6.9105,6.8287,6.7456,6.6892,6.6892,6.6081,6.5501,6.5501,6.6212,6.7026,6.7836,6.8669,6.9185,6.9242,6.9941,7.0018,6.9281,6.9979,7.0018,6.9223,6.8344,6.7504,6.6693,6.5834,6.5413,6.5433,6.5452,6.635,3.077,0.0,0.0,0.0,0.0,0.0,3.5807,3.6517,3.7196,3.7765,3.8655,3.9259,3.9145,3.9664,4.0249,4.076,4.1195,4.1799,4.2693,4.2866,4.2984,4.3219,4.3517,4.3721,4.3785,4.4259,4.4565,0.0,4.4468,4.4422,4.4432,4.3596,4.3366,4.3799,4.453,4.5583,4.7005,4.8448,4.9853,5.1232,5.1446,5.2022,5.2893,5.3193,5.3451,5.3768,5.5435,5.6871,5.8135,5.8997,5.9852,6.0629,6.0672,6.0808,6.1062,6.1906,6.2684,6.3375,6.3617,6.4709,6.5893,6.5343,6.5738,6.6413,6.6457,6.6434,6.6392,6.6312,6.6336,6.634,6.623,6.6194,6.6169,6.6085,6.6074,6.6058,6.6013,6.6333,6.6818,6.7391,6.7724,6.7814,6.7539,6.818,6.843,6.7531,6.7157,6.6955,6.6899,6.6124,6.5573,6.5573,6.6344,6.7192,6.8042,6.8329,6.898,7.0206,6.9892,6.9854,7.0264,7.0494,7.0218,6.9356,6.854,6.7697,6.6847,6.5875,6.5719,6.635,6.6942,6.7465,0.0,0.0,0.0,3.2386,0.0,0.0,3.5402,3.6107,3.6771,3.7283,3.8216,3.893,3.8906,3.9563,4.0147,4.0313,4.0517,4.1068,4.2268,4.2358,4.237,4.2631,4.2921,4.3091,4.3091,4.3719,4.4078,4.4015,4.4027,4.3925,4.3658,4.3105,4.2941,4.3301,4.3932,4.4999,4.6528,4.7975,4.9328,5.057,5.1256,5.1788,5.2213,5.2871,5.3287,5.3505,5.4757,5.6295,5.7984,5.8547,5.9573,6.0812,6.0894,6.0991,6.1195,6.208,6.2972,6.3744,6.3367,6.4653,6.6251,6.5079,6.5503,6.6485,6.6458,6.6454,6.6434,6.6363,6.6345,6.6336,6.6254,6.6225,6.6194,6.6144,6.6134,6.6128,6.6091,6.6085,6.6309,6.7085,6.7276,6.7288,6.7246,6.767,6.7806,6.7268,6.6846,6.6692,6.6992,6.6247,6.5688,6.5688,6.6082,6.672,6.759,6.7666,6.8069,6.9047,6.8982,6.8963,6.9105,6.9461,6.9251,6.8369,6.7889,6.724,6.6397,6.5779,6.5725,6.6204,6.6671,6.7282,0.0,0.0,0.0,0.0,3.3471,0.0,3.5523,3.5982,3.6475,3.7183,3.7839,3.8362,3.8667,3.9373,3.9918,3.9944,3.9738,4.0114,4.1745,4.1546,4.1414,4.1897,4.1992,4.2032,4.199,4.2646,4.3115,4.3163,4.3204,4.3016,4.2552,4.2462,4.252,4.2772,4.3476,4.4411,4.5588,4.7341,4.8627,4.9475,5.12,5.188,5.1678,5.2602,5.3212,5.3546,5.3877,5.5537,5.8049,5.8222,5.9309,6.0846,6.1021,6.1103,6.1242,6.2164,6.3016,6.3595,6.3084,6.4369,6.6018,6.4724,6.5286,6.6459,6.6423,6.6458,6.6485,6.6426,6.6349,6.6312,6.6307,6.625,6.6215,6.6205,6.6205,6.6205,6.6205,6.6205,6.6387,6.705,6.7188,6.7182,6.7176,6.7163,6.7182,6.7176,6.6518,6.6265,6.6985,6.634,6.5813,6.5813,6.5792,6.6096,6.687,6.7037,6.7095,6.7095,6.7824,6.7894,6.7114,6.7836,6.7836,6.6961,6.6846,6.6451,6.573,6.5663,6.5594,6.5523,6.5523,6.6346,0.0,0.0,0.0,0.0,0.0,0.0,3.3578,3.463,3.5475,3.5641,3.6615,3.7447,3.7512,3.8186,3.8813,3.9022,3.9177,3.9553,4.0324,4.0708,4.0768,4.0386,4.1146,4.1594,4.1315,4.1575,4.1933,4.2389,4.2278,4.2166,4.2121,4.1546,4.1655,4.2611,4.3302,4.4459,4.6123,4.7207,4.8394,4.9722,4.9683,5.0435,5.1825,5.1571,5.229,5.3763,5.4034,5.5686,5.8163,5.8319,5.9404,6.0976,6.1065,6.1168,6.1378,6.2245,6.273,6.3092,6.4342,6.4642,6.4678,6.5819,6.5891,6.5669,6.6297,6.6446,6.6426,6.6398,6.6396,6.6378,6.6317,6.6298,6.6259,6.6215,6.6205,6.6205,6.6205,6.6205,6.6238,6.6387,6.6406,6.6409,6.6342,6.6374,6.6409,6.6336,6.619,6.6124,6.6227,6.6066,6.5966,6.5966,6.6519,6.6949,6.7122,6.7833,6.8269,6.8269,6.8423,6.8442,6.8288,6.8423,6.8114,6.7247,6.6534,6.6091,6.5936,6.582,6.5724,6.5657,6.5657,6.5815,0.0,0.0,0.0,3.0927,0.0,0.0,0.0,3.3742,3.4773,3.4624,3.5549,3.6346,3.6346,3.7264,3.7962,3.7766,3.8317,3.867,3.849,3.9537,4.0295,4.0124,4.0824,4.1281,4.1127,4.1613,4.194,4.1948,4.1939,4.176,4.1376,4.1156,4.163,4.2908,4.3608,4.4803,4.6572,4.7353,4.8269,4.9307,4.9597,5.0064,5.0654,5.0925,5.184,5.3214,5.3441,5.5343,5.8258,5.8366,5.9451,6.1065,6.1155,6.1266,6.1399,6.1849,6.2311,6.2815,6.321,6.3664,6.4131,6.4604,6.5018,6.5424,6.58,6.6154,6.645,6.6453,6.6432,6.6388,6.6361,6.6344,6.634,6.6312,6.6307,6.6307,6.6307,6.6307,6.6298,6.6254,6.6288,6.6288,6.6215,6.625,6.6298,6.625,6.62,6.6134,6.6102,6.604,6.5995,6.5999,6.6361,6.6606,6.6591,6.7031,6.7311,6.7346,6.7317,6.7328,6.741,6.7363,6.7169,6.6753,6.636,6.6144,6.6144,6.6118,6.5994,6.582,6.6692,6.6827,0.0,0.0,0.0,0.0,0.0,3.1677,0.0,0.0,0.0,3.3985,3.4695,3.5299,3.5345,3.6353,3.7033,3.6542,3.7255,3.7634,3.6978,3.828,3.9409,3.9714,4.0297,4.0663,4.0754,4.1541,4.1914,4.1609,4.1499,4.1213,4.0663,4.0801,4.1616,4.3217,4.3908,4.5144,4.6981,4.7666,4.8299,4.8884,4.9832,5.0081,4.9736,5.0539,5.1626,5.2875,5.2916,5.489,5.8088,5.8315,5.9389,6.0923,6.1195,6.1349,6.1396,6.1403,6.1882,6.2463,6.1874,6.2524,6.3573,6.3378,6.4351,6.5614,6.5554,6.5878,6.6275,6.645,6.6353,6.6228,6.6367,6.6405,6.6422,6.6405,6.64,6.64,6.64,6.64,6.6372,6.6331,6.6363,6.6376,6.6317,6.6369,6.64,6.64,6.6303,6.622,6.622,6.6102,6.6017,6.6019,6.6034,6.6034,6.6041,6.6063,6.6096,6.6144,6.6107,6.6123,6.6235,6.6194,6.617,6.6235,6.6279,6.6322,6.6322,6.6537,6.6404,6.5998,6.7559,6.7883,0.0,0.0,0.0,0.0,2.9996,0.0,0.0,0.0,3.2861,3.3742,0.0,3.4589,3.4758,0.0,0.0,3.5545,3.5995,3.6468,3.6764,3.701,3.7325,3.7763,3.8504,3.9135,3.9566,4.0076,4.0586,4.114,4.0093,3.973,4.0405,4.0004,4.0811,4.3058,4.3766,4.5152,4.732,4.801,4.8614,4.9164,4.9399,4.9984,5.0792,5.0396,5.1535,5.3811,5.3296,5.4657,5.73,5.8138,5.9135,6.0204,6.0987,6.1349,6.14,6.1395,6.1511,6.174,6.2419,6.2301,6.2245,6.4403,6.5715,6.6445,6.6386,6.5897,6.5514,6.6275,6.5987,6.5583,6.6228,6.645,6.6477,6.6403,6.64,6.64,6.64,6.64,6.64,6.6396,6.6388,6.6388,6.6302,6.6369,6.64,6.64,6.6336,6.6298,6.6298,6.6174,6.608,6.6085,6.6128,6.6179,6.6184,6.6293,6.6349,6.6378,6.6354,6.6354,6.6387,6.6358,6.6378,6.6387,6.6372,6.6396,6.6396,6.7113,6.7014,6.6198,6.716,6.7492,0.0,0.0,0.0,0.0,0.0,0.0,3.1011,0.0,3.2034,0.0,0.0,0.0,0.0,0.0,0.0,0.0,3.4589,3.5029,3.4811,3.5065,3.588,3.7484,3.8113,3.8699,3.9391,3.9753,3.9837,3.9615,3.9354,3.9131,3.8953,3.9401,4.0446,4.219,4.37,4.531,4.6979,4.8117,4.8906,4.9313,4.9521,4.9887,5.0356,5.0228,5.1337,5.3357,5.3187,5.4638,5.7222,5.8162,5.9142,6.0134,6.1023,6.1396,6.146,6.1418,6.147,6.1612,6.1982,6.1873,6.1938,6.3984,6.4863,6.5247,6.5721,6.5252,6.4633,6.4967,6.4801,6.4729,6.5552,6.5751,6.574,6.5704,6.5696,6.5696,6.5696,6.5696,6.5843,6.6303,6.6434,6.6442,6.6379,6.6409,6.6457,6.6457,6.6396,6.6366,6.6366,6.6264,6.622,6.6278,6.6263,6.6282,6.6375,6.6392,6.6428,6.6457,6.6457,6.6445,6.64,6.6445,6.6457,6.6457,6.6457,6.6457,6.6457,6.6807,6.673,6.6354,6.7648,6.7664,3.0943,0.0,0.0,0.0,0.0,0.0,0.0,0.0,0.0,0.0,0.0,0.0,0.0,0.0,0.0,0.0,0.0,3.3802,3.3362,3.3687,3.4694,3.6702,3.7385,3.7968,3.8665,3.896,3.89,3.8436,3.8626,3.8507,3.785,3.8701,3.9894,4.1426,4.3161,4.4946,4.6785,4.8021,4.8911,4.9484,4.9695,4.9857,4.9979,5.0163,5.1235,5.297,5.3105,5.4559,5.6934,5.7886,5.8855,5.983,6.0721,6.125,6.1492,6.1452,6.1493,6.1607,6.1607,6.1899,6.2445,6.3458,6.4082,6.4564,6.5205,6.4627,6.384,6.4265,6.4046,6.3871,6.4717,6.4927,6.4887,6.4887,6.4876,6.493,6.5174,6.5236,6.5462,6.6307,6.6481,6.6508,6.6466,6.6474,6.6508,6.6508,6.6431,6.6402,6.6402,6.6366,6.6353,6.6394,6.6359,6.6384,6.6481,6.6478,6.6474,6.6524,6.6524,6.6512,6.6462,6.6508,6.652,6.6508,6.6508,6.6508,6.6508,6.6508,6.6466,6.6441,6.7845,6.7779,0.0,0.0,0.0,3.0803,0.0,0.0,0.0,0.0,3.1108,0.0,0.0,0.0,0.0,0.0,0.0,0.0,0.0,0.0,0.0,3.3314,3.3665,3.4592,3.5737,3.6542,3.6763,3.7102,3.7514,3.808,3.7699,3.7503,3.7602,3.7827,3.8921,4.1036,4.1813,4.3756,4.7058,4.7647,4.8515,4.9685,4.9764,4.9939,5.0207,5.0325,5.1374,5.311,5.3238,5.4332,5.6109,5.7056,5.7996,5.8927,5.9862,6.0761,6.1492,6.1509,6.1546,6.1607,6.1607,6.2659,6.3906,6.3166,6.4043,6.5365,6.5385,6.4198,6.3186,6.4875,6.4135,6.3019,6.3825,6.4088,6.4127,6.4049,6.404,6.428,6.5113,6.5294,6.5547,6.6423,6.6598,6.6607,6.659,6.6535,6.6508,6.6508,6.6431,6.6402,6.6402,6.6398,6.6398,6.6402,6.6458,6.6505,6.6509,6.6563,6.6583,6.6606,6.6606,6.6606,6.6583,6.6606,6.6569,6.6508,6.6508,6.6508,6.6508,6.6508,6.6466,6.6421,6.7314,6.7674,0.0,0.0,3.2292,3.21,0.0,0.0,0.0,0.0,0.0,0.0,0.0,0.0,0.0,0.0,0.0,0.0,0.0,0.0,0.0,3.1335,3.1777,3.2284,3.4279,3.5722,3.6002,3.6385,3.666,3.6778,3.6675,3.6576,3.649,3.6832,3.7674,3.9073,4.123,4.3466,4.575,4.7356,4.8745,4.9898,4.9999,5.0164,5.0331,5.0468,5.1203,5.241,5.3079,5.4085,5.5381,5.6849,5.7713,5.8218,5.9638,6.0408,6.0775,6.1305,6.1549,6.1607,6.1607,6.2357,6.3263,6.2995,6.3283,6.3848,6.4371,6.3763,6.2998,6.358,6.3297,6.3008,6.3851,6.3658,6.3371,6.3935,6.3634,6.3434,6.4321,6.45,6.4928,6.6332,6.6604,6.6601,6.6607,6.6575,6.6551,6.6516,6.6474,6.6478,6.6524,6.6527,6.6549,6.6598,6.6627,6.6629,6.6627,6.6651,6.6649,6.6607,6.6604,6.6604,6.6604,6.6604,6.6588,6.6569,6.6569,6.6535,6.6508,6.6458,6.6435,6.6466,6.6729,6.6838,3.2692,3.2865,0.0,3.2896,3.2685,0.0,3.141,0.0,0.0,0.0,0.0,0.0,0.0,0.0,0.0,0.0,0.0,0.0,0.0,3.0617,3.1071,3.1405,3.2893,3.403,3.442,3.5071,3.5436,3.5335,3.5684,3.5813,3.5553,3.6067,3.6867,3.7967,4.0511,4.2912,4.5106,4.6979,4.8626,5.0044,5.0158,5.0294,5.0467,5.0559,5.1299,5.253,5.3155,5.4169,5.5442,5.6598,5.7316,5.7812,5.8924,5.9737,6.0399,6.122,6.1556,6.1607,6.1578,6.2155,6.2834,6.2518,6.2633,6.2991,6.3517,6.3088,6.2503,6.2815,6.2647,6.2498,6.306,6.2786,6.2496,6.3069,6.2755,6.2652,6.3831,6.4104,6.4591,6.6304,6.6638,6.6632,6.6642,6.6642,6.6617,6.6542,6.6542,6.6556,6.6586,6.662,6.6639,6.6702,6.6724,6.6734,6.669,6.6708,6.6682,6.6642,6.6642,6.6642,6.6642,6.6642,6.662,6.6609,6.6606,6.6569,6.6508,6.6462,6.6462,6.6505,6.6422,6.6417]}]]